     2              OBSERVATION DATA    GPS                 RINEX VERSION / TYPE
teqc 2000Feb29 20030428 17:02:47UTC                         PGM / RUN BY / DATE
                                                            COMMENT
L2: 1 -> 1; 150 -> 5; 250 -> 9                              COMMENT
L2: 1 -> 1; 150 -> 5; 250 -> 9                              COMMENT
L2: 1 -> 1; 150 -> 5; 250 -> 9                              COMMENT
L2: 1 -> 1; 150 -> 5; 250 -> 9                              COMMENT
L2: 1 -> 1; 150 -> 5; 250 -> 9                              COMMENT
Original Marker Name: WDW1                                  COMMENT
Campaign Name: Rose Canyon                                  COMMENT
4-Character Station Name: WDW1                              COMMENT
6-Character Antenna Code: DMRCHT                            COMMENT
Vertical Measurement Point: BCR                             COMMENT
Vertical Offset to Rinex Ref. Point: 0.0348                 COMMENT
Radial Measurement Point: ECF                               COMMENT
Radial Offset to Rinex Ref. Point: 0.1897                   COMMENT
Antenna Height from Field Measurement: 0.8900 m             COMMENT
Additional Antenna Identification Info.:                    COMMENT
Turborogue and Ashtech Choke Ring                           COMMENT
Original XYZ: -2460271.4212 -4776055.9693 3426076.9432      COMMENT
New XYZ position is based on association with SCEC monument COMMENT
E1C8O6J5+0011. Position of that monument is believed to be  COMMENT
valid to within 1 m horizontally; vertical accuracy         COMMENT
should be no worse than 3-times this value.                 COMMENT
                                                            COMMENT
Revised Rinex header created by UCSD GPS archive for        COMMENT
GSAC on 11-Jul-2003 (2003:192) 15:56:36 GMT                 COMMENT
For assistance contact dagnew@ucsd.edu                      COMMENT
or anderson@python.ucsd.edu                                 COMMENT
                                                            COMMENT
UCSD SIO IGPP WDW1 1999                                     MARKER NAME
SJB SCRIPPS INSTITUTION OF OCEANOGRAPHY                     OBSERVER / AGENCY
317 ASHTECH Z-XII3 CC00                                     REC # / TYPE / VERS
408 DORNE-MARGOL. TYPE T                                    ANT # / TYPE
 -2460268.9901 -4776044.6500  3426065.3736                  APPROX POSITION XYZ
        0.8347        0.0000        0.0000                  ANTENNA: DELTA H/E/N
     1     1     0                                          WAVELENGTH FACT L1/2
     7    C1    L1    L2    P1    P2    S1    S2            # / TYPES OF OBSERV
     0                                                      INTERVAL
  2003     4    16     0     0   30.000000                  TIME OF FIRST OBS
  2003     4    16    23    59   30.000000                  TIME OF LAST OBS
                                                            END OF HEADER
 03  4 16  0  0 30.0000000  0  9G18G14G17G21G31G23G15G 3G 9
  21502520.920   -17908672.62349 -13928871.78247  21502520.215    21502526.284
       239.000         199.000
  20655455.031   -21916278.28749 -16552218.41847  20655454.556    20655460.398
       242.000         210.000
  22380270.191   -17136744.21749 -12590336.78746  22380269.842    22380278.407
       219.000         172.000
  22130249.226   -17391044.07449 -13289477.39746  22130249.137    22130255.225
       232.000         183.000
  22971169.289    -7884269.67649  -6130941.77546  22971169.051    22971176.393
       220.000         167.000
  21920297.917   -14779603.56949 -11500661.30447  21920297.164    21920304.242
       236.000         193.000
  20358912.729   -25704086.57249 -20020152.04147  20358912.238    20358918.832
       244.000         211.000
  21954347.587   -18239701.17649 -14192081.00747  21954347.591    21954354.243
       235.000         191.000
  23324543.226    -3969551.28749  -3084318.13645  23324543.145    23324551.505
       215.000         156.000
 03  4 16  0  1  0.0000000  0  9G18G14G17G21G31G23G15G 3G 9
  21511141.138   -17863373.18049 -13893573.51747  21511140.567    21511146.373
       239.000         198.000
  20646183.529   -21965000.11649 -16590183.44547  20646183.055    20646189.099
       242.000         211.000
  22393912.574   -17065052.85949 -12534473.46346  22393912.197    22393921.215
       219.000         171.000
  22143832.158   -17319665.57249 -13233857.81646  22143831.804    22143838.091
       232.000         183.000
  22963466.467    -7924748.52249  -6162483.71846  22963466.393    22963472.463
       221.000         167.000
  21928071.519   -14738752.79649 -11468829.53947  21928070.782    21928078.170
       235.000         193.000
  20363267.783   -25681200.61649 -20002318.83547  20363267.203    20363273.811
       244.000         211.000
  21955668.333   -18232760.75349 -14186672.90847  21955668.267    21955675.334
       236.000         192.000
  23325557.236    -3964223.07049  -3080166.27745  23325556.353    23325563.837
       214.000         154.000
 03  4 16  0  1 30.0000000  0  9G18G14G17G21G31G23G15G 3G 9
  21519784.027   -17817954.37749 -13858182.25947  21519783.554    21519789.172
       238.000         198.000
  20637008.265   -22013216.30749 -16627754.47247  20637007.847    20637013.668
       243.000         211.000
  22407618.163   -16993030.13949 -12478351.93546  22407617.449    22407626.524
       217.000         168.000
  22157477.795   -17247957.53949 -13177981.46346  22157477.428    22157483.443
       231.000         182.000
  22955864.933    -7964694.89149  -6193610.76046  22955864.226    22955871.401
       220.000         167.000
  21935855.666   -14697847.19049 -11436955.06147  21935855.104    21935861.918
       235.000         193.000
  20367704.355   -25657886.48749 -19984151.99447  20367703.682    20367710.460
       243.000         211.000
  21957092.583   -18225276.33049 -14180840.91747  21957092.641    21957099.275
       236.000         192.000
  23326681.105    -3958316.72449  -3075563.93345  23326680.335    23326687.619
       213.000         152.000
 03  4 16  0  2  0.0000000  0  9G18G14G17G21G31G23G15G 3G 9
  21528449.310   -17772417.82849 -13822699.25447  21528448.695    21528454.493
       239.000         198.000
  20627929.135   -22060927.38449 -16664931.90547  20627928.842    20627934.286
       244.000         211.000
  22421386.445   -16920677.36549 -12421973.22446  22421386.887    22421394.317
       222.000         167.000
  22171185.810   -17175921.71549 -13121849.70246  22171185.348    22171191.706
       228.000         180.000
  22948364.608    -8004108.84249  -6224322.91746  22948364.318    22948370.794
       220.000         166.000
  21943649.890   -14656888.46849 -11405039.18547  21943649.408    21943656.385
       235.000         193.000
  20372222.216   -25634144.84349 -19965652.01447  20372221.674    20372228.436
       243.000         211.000
  21958619.981   -18217249.86549 -14174586.55847  21958619.994    21958626.607
       236.000         192.000
  23327914.795    -3951832.73649  -3070511.44045  23327914.071    23327923.138
       209.000         151.000
 03  4 16  0  2 30.0000000  0  9G18G14G17G21G31G23G15G 3G 9
  21537137.210   -17726762.72349 -13787123.86247  21537137.070    21537142.179
       239.000         198.000
  20618946.522   -22108131.20549 -16701714.07247  20618945.951    20618951.713
       243.000         211.000
  22435217.833   -16847993.67949 -12365336.65246  22435216.613    22435224.939
       217.000         165.000
  22184956.229   -17103557.61949 -13065462.14946  22184955.835    22184962.058
       229.000         179.000
  22940966.137    -8042987.94949  -6254618.33046  22940965.830    22940972.674
       221.000         166.000
  21951454.293   -14615875.74749 -11373081.23047  21951453.455    21951460.671
       235.000         193.000
  20376821.832   -25609973.77249 -19946817.42247  20376821.360    20376827.901
       244.000         212.000
  21960250.591   -18208681.00749 -14167909.54647  21960250.415    21960257.466
       235.000         192.000
  23329258.868    -3944769.32849  -3065007.45645  23329259.420    23329267.072
       210.000         152.000
 03  4 16  0  3  0.0000000  0  9G18G14G17G21G31G23G15G 3G 9
  21545847.211   -17680991.41749 -13751457.92547  21545847.090    21545852.579
       239.000         198.000
  20610060.325   -22154828.50849 -16738101.55747  20610059.952    20610065.569
       243.000         211.000
  22449111.773   -16774981.03449 -12308443.74346  22449111.244    22449120.192
       217.000         165.000
  22198788.695   -17030867.58149 -13008820.60646  22198787.959    22198794.870
       228.000         178.000
  22933669.438    -8081332.83349  -6284497.47846  22933668.732    22933676.079
       220.000         167.000
  21959268.634   -14574811.04949 -11341082.77647  21959268.565    21959274.921
       236.000         193.000
  20381502.952   -25585374.42049 -19927649.10847  20381502.350    20381509.124
       244.000         212.000
  21961983.903   -18199572.24349 -14160811.83347  21961983.665    21961990.909
       235.000         192.000
  23330713.054    -3937127.52449  -3059052.78145  23330712.874    23330721.262
       211.000         152.000
 03  4 16  0  3 30.0000000  0  9G18G14G17G21G31G23G15G 3G 9
  21554579.477   -17635103.21849 -13715700.90847  21554578.936    21554584.662
       238.000         197.000
  20601270.865   -22201017.41349 -16774092.88747  20601270.367    20601276.187
       243.000         211.000
  22463068.388   -16701639.16849 -12251294.30246  22463067.632    22463076.403
       220.000         166.000
  22212683.417   -16957850.78049 -12951924.44946  22212683.399    22212689.761
       229.000         178.000
  22926474.746    -8119141.15549  -6313958.49746  22926474.582    22926481.154
       220.000         167.000
  21967093.109   -14533693.50949 -11309043.14947  21967092.548    21967099.556
       236.000         193.000
  20386265.921   -25560344.84749 -19908145.55847  20386265.212    20386272.021
       243.000         212.000
  21963820.075   -18189923.10749 -14153293.04847  21963820.224    21963826.841
       236.000         192.000
  23332277.533    -3928905.52349  -3052646.02245  23332277.730    23332286.200
       212.000         155.000
 03  4 16  0  4  0.0000000  0  9G18G14G17G21G31G23G15G 3G 9
  21563333.734   -17589099.24549 -13679853.68047  21563333.145    21563338.710
       237.000         196.000
  20592578.157   -22246697.75449 -16809687.93247  20592577.735    20592583.351
       243.000         211.000
  22477087.426   -16627969.23949 -12193889.21946  22477087.276    22477096.024
       221.000         167.000
  22226640.037   -16884508.57349 -12894774.73146  22226640.237    22226646.041
       229.000         178.000
  22919382.090    -8156412.66949  -6343001.23946  22919381.342    22919388.524
       219.000         166.000
  21974927.410   -14492524.35749 -11276963.30847  21974926.695    21974934.152
       236.000         193.000
  20391110.701   -25534885.15449 -19888306.85147  20391110.158    20391116.832
       245.000         211.000
  21965758.917   -18179734.86549 -14145354.17947  21965758.802    21965766.174
       236.000         192.000
  23333952.418    -3920103.78149  -3045787.49245  23333952.461    23333961.073
       211.000         156.000
 03  4 16  0  4 30.0000000  0  9G18G14G17G21G31G23G15G 3G 9
  21572109.868   -17542980.12149 -13643916.71347  21572109.689    21572114.942
       237.000         196.000
  20583982.362   -22291868.88349 -16844886.18447  20583981.936    20583987.515
       242.000         211.000
  22491168.869   -16553971.09549 -12136228.38746  22491168.648    22491177.211
       220.000         168.000
  22240658.535   -16810841.36449 -12837371.76746  22240658.413    22240664.926
       230.000         179.000
  22912391.834    -8193146.11649  -6371624.70646  22912390.332    22912399.074
       218.000         166.000
  21982771.423   -14451303.77249 -11244843.39047  21982771.064    21982778.234
       235.000         193.000
  20396037.578   -25508994.47649 -19868132.31447  20396036.977    20396043.745
       245.000         211.000
  21967800.188   -18169008.19649 -14136995.75247  21967799.789    21967806.824
       235.000         192.000
  23335737.851    -3910721.61249  -3038476.71145  23335737.755    23335745.130
       213.000         155.000
 03  4 16  0  5  0.0000000  0  9G18G14G17G21G31G23G15G 3G 9
  21580908.278   -17496744.55549 -13607889.01147  21580907.878    21580913.372
       238.000         197.000
  20575483.997   -22336527.83749 -16879685.34147  20575483.599    20575489.098
       242.000         211.000
  22505312.983   -16479643.57849 -12078310.91546  22505312.706    22505320.957
       222.000         168.000
  22254739.103   -16736848.04649 -12779714.66346  22254738.525    22254744.985
       230.000         180.000
  22905504.442    -8229338.80649  -6399826.81346  22905504.789    22905510.742
       222.000         167.000
  21990625.469   -14410030.48849 -11212682.41447  21990624.907    21990632.355
       234.000         193.000
  20401046.917   -25482670.40349 -19847620.05447  20401046.419    20401052.803
       245.000         211.000
  21969943.981   -18157742.35749 -14128217.18947  21969943.814    21969950.530
       235.000         191.000
  23337634.215    -3900756.76249  -3030711.88445  23337634.272    23337642.176
       215.000         155.000
 03  4 16  0  5 30.0000000  0  9G18G14G17G21G31G23G15G 3G 9
  21589727.839   -17450397.59749 -13571774.51947  21589727.653    21589733.397
       239.000         198.000
  20567082.443   -22380678.30049 -16914088.27447  20567082.095    20567087.673
       243.000         211.000
  22519518.809   -16404992.14149 -12020140.99946  22519517.532    22519527.025
       221.000         168.000
  22268880.690   -16662533.77949 -12721807.50246  22268880.395    22268886.733
       230.000         181.000
  22898719.468    -8264994.16149  -6427610.19546  22898719.077    22898726.924
       220.000         167.000
  21998488.638   -14368709.20149 -11180484.02647  21998487.864    21998495.503
       234.000         193.000
  20406137.960   -25455916.73049 -19826773.03947  20406137.315    20406144.024
       245.000         210.000
  21972189.260   -18145942.91049 -14119022.82747  21972188.870    21972195.840
       235.000         191.000
  23339640.781    -3890213.23449  -3022496.16445  23339640.753    23339648.226
       212.000         157.000
 03  4 16  0  6  0.0000000  0  9G18G14G17G21G31G23G15G 3G 9
  21598569.165   -17403936.32649 -13535570.94747  21598568.952    21598574.583
       238.000         199.000
  20558778.366   -22424316.55949 -16948092.08847  20558778.264    20558783.352
       242.000         211.000
  22533786.631   -16330013.87349 -11961716.45746  22533786.664    22533794.914
       222.000         168.000
  22283083.899   -16587895.68549 -12663648.00046  22283084.292    22283090.077
       230.000         182.000
  22892037.535    -8300107.95149  -6454971.57146  22892037.722    22892044.524
       220.000         168.000
  22006361.462   -14327337.10549 -11148246.05847  22006361.013    22006367.929
       234.000         193.000
  20411311.403   -25428729.93049 -19805588.53347  20411310.714    20411317.656
       245.000         211.000
  21974536.616   -18133607.08749 -14109410.51847  21974536.485    21974543.330
       234.000         190.000
  23341757.772    -3879087.31349  -3013826.59545  23341757.797    23341765.244
       214.000         156.000
 03  4 16  0  6 30.0000000  0  9G18G14G17G21G31G23G15G 3G 9
  21607432.108   -17357361.38949 -13499278.81147  21607431.716    21607437.427
       238.000         199.000
  20550571.903   -22467442.06649 -16981696.34947  20550571.565    20550576.924
       243.000         212.000
  22548116.664   -16254709.34349 -11903037.65446  22548115.694    22548125.420
       222.000         168.000
  22297348.495   -16512934.84149 -12605237.02246  22297348.387    22297354.592
       229.000         182.000
  22885458.884    -8334679.44749  -6481910.37446  22885459.586    22885465.538
       221.000         168.000
  22014243.878   -14285914.67449 -11115968.85647  22014243.336    22014250.894
       234.000         193.000
  20416567.272   -25401109.99449 -19784066.51347  20416566.585    20416573.547
       244.000         211.000
  21976985.856   -18120736.13749 -14099381.22847  21976985.699    21976992.776
       235.000         190.000
  23343985.874    -3867378.79249  -3004703.05245  23343985.045    23343993.275
       213.000         155.000
 03  4 16  0  7  0.0000000  0  9G18G14G17G21G31G23G15G 3G 9
  21616316.450   -17310673.97549 -13462899.02947  21616315.976    21616321.747
       239.000         198.000
  20542462.989   -22510054.75649 -17014901.01547  20542462.599    20542468.157
       243.000         212.000
  22562508.513   -16179079.72149 -11844105.53246  22562507.891    22562517.158
       221.000         168.000
  22311674.357   -16437652.31149 -12546575.34946  22311673.520    22311680.444
       230.000         181.000
  22878983.420    -8368708.35049  -6508426.36846  22878983.499    22878989.969
       222.000         169.000
  22022135.637   -14244443.00549 -11083653.28047  22022135.043    22022142.503
       234.000         192.000
  20421905.644   -25373056.59049 -19762206.72647  20421905.169    20421912.017
       244.000         211.000
  21979536.654   -18107331.46549 -14088936.05047  21979536.573    21979544.165
       235.000         191.000
  23346324.692    -3855088.00149  -2995125.77545  23346324.626    23346332.561
       216.000         156.000
 03  4 16  0  7 30.0000000  0  9G18G14G17G21G31G23G15G 3G 9
  21625221.970   -17263875.19749 -13426432.46147  21625221.371    21625227.019
       238.000         197.000
  20534451.636   -22552154.58149 -17047706.04647  20534451.335    20534456.644
       242.000         212.000
  22576962.080   -16103126.09449 -11784920.94646  22576961.545    22576970.141
       220.000         168.000
  22326061.095   -16362049.52549 -12487664.14646  22326061.129    22326066.784
       230.000         180.000
  22872611.262    -8402194.32549  -6534519.32546  22872610.661    22872617.727
       221.000         170.000
  22030036.689   -14202922.86149 -11051299.94347  22030036.283    22030043.086
       234.000         191.000
  20427326.536   -25344569.74549 -19740009.19247  20427326.046    20427332.731
       245.000         211.000
  21982188.764   -18093394.79649 -14078076.32647  21982188.717    21982195.783
       236.000         191.000
  23348774.454    -3842215.24149  -2985095.03445  23348773.900    23348781.353
       213.000         156.000
 03  4 16  0  8  0.0000000  0  9G18G14G17G21G31G23G15G 3G 9
  21634148.796   -17216964.32649 -13389878.55647  21634148.651    21634154.001
       237.000         196.000
  20526538.224   -22593739.77849 -17080110.06347  20526537.684    20526543.334
       242.000         212.000
  22591477.308   -16026848.02749 -11725483.55546  22591477.106    22591485.869
       219.000         166.000
  22340508.911   -16286125.90049 -12428502.93146  22340508.218    22340514.531
       229.000         178.000
  22866342.762    -8435135.43149  -6560187.69746  22866342.391    22866349.913
       222.000         171.000
  22037947.121   -14161353.63849 -11018908.35247  22037946.967    22037953.647
       234.000         192.000
  20432830.249   -25315647.96249 -19717472.73747  20432829.636    20432836.309
       245.000         211.000
  21984942.225   -18078926.18049 -14066802.08847  21984942.371    21984949.569
       236.000         192.000
  23351334.968    -3828759.02249  -2974609.66445  23351333.738    23351342.594
       211.000         154.000
 03  4 16  0  8 30.0000000  0  9G18G14G17G21G31G23G15G 3G 9
  21643096.677   -17169942.84249 -13353238.44847  21643096.256    21643101.953
       238.000         196.000
  20518722.721   -22634810.34049 -17112113.06647  20518722.094    20518727.602
       242.000         212.000
  22606054.026   -15950247.27549 -11665794.69946  22606053.705    22606062.179
       217.000         165.000
  22355017.272   -16209883.31649 -12369093.18346  22355017.453    22355022.701
       228.000         176.000
  22860178.030    -8467531.68649  -6585431.51446  22860178.418    22860184.919
       222.000         171.000
  22045866.660   -14119736.43249 -10986479.37347  22045866.314    22045873.368
       235.000         192.000
  20438416.624   -25286291.65549 -19694597.70147  20438415.909    20438422.811
       244.000         211.000
  21987796.562   -18063927.13549 -14055114.53547  21987796.305    21987803.536
       236.000         192.000
  23354006.229    -3814719.82949  -2963670.00645  23354005.488    23354014.297
       213.000         153.000
 03  4 16  0  9  0.0000000  0  9G18G14G17G21G31G23G15G 3G 9
  21652065.643   -17122810.91849 -13316512.28447  21652065.537    21652070.637
       238.000         196.000
  20511005.242   -22675365.77949 -17143714.68347  20511004.837    20511010.202
       242.000         212.000
  22620692.106   -15873323.90849 -11605854.45446  22620691.701    22620700.667
       213.000         163.000
  22369586.471   -16133322.02749 -12309435.08146  22369586.288    22369592.275
       229.000         175.000
  22854117.225    -8499382.13949  -6610250.02746  22854116.914    22854124.025
       222.000         171.000
  22053795.309   -14078071.48149 -10954013.18647  22053795.045    22053801.933
       236.000         193.000
  20444085.758   -25256500.06549 -19671383.49147  20444085.104    20444091.804
       245.000         211.000
  21990751.545   -18048398.64749 -14043014.43247  21990751.330    21990758.295
       235.000         192.000
  23356788.739    -3800097.54449  -2952275.98645  23356789.211    23356796.937
       216.000         157.000
 03  4 16  0  9 30.0000000  0  9G18G14G17G21G31G23G15G 3G 9
  21661055.475   -17075569.08949 -13279700.48347  21661055.293    21661060.499
       238.000         196.000
  20503385.913   -22715405.37249 -17174914.34747  20503385.462    20503390.860
       242.000         212.000
  22635391.342   -15796078.82349 -11545663.55745  22635390.735    22635399.515
       212.000         162.000
  22384216.184   -16056442.93749 -12249529.34346  22384215.320    22384222.397
       229.000         174.000
  22848160.274    -8530685.96349  -6634642.61046  22848159.558    22848166.371
       222.000         170.000
  22061732.922   -14036359.19949 -10921510.12247  22061732.560    22061739.268
       235.000         193.000
  20449837.794   -25226272.86049 -19647829.83647  20449837.372    20449843.745
       245.000         211.000
  21993807.031   -18032341.79149 -14030502.61547  21993806.934    21993813.978
       235.000         192.000
  23359682.361    -3784891.97649  -2940427.47745  23359682.089    23359691.125
       213.000         158.000
 03  4 16  0 10  0.0000000  0  9G18G14G17G21G31G23G15G 3G 9
  21670066.241   -17028217.59549 -13242803.23547  21670066.095    21670071.768
       238.000         196.000
  20495864.853   -22754928.65949 -17205711.68847  20495864.418    20495869.778
       242.000         212.000
  22650151.707   -15718512.00549 -11485221.94845  22650150.267    22650160.073
       212.000         161.000
  22398906.214   -15979246.73749 -12189376.51946  22398905.870    22398911.890
       228.000         174.000
  22842307.436    -8561442.29249  -6658608.56946  22842306.860    22842313.948
       222.000         170.000
  22069679.440   -13994599.70349 -10888970.27047  22069678.799    22069685.868
       234.000         192.000
  20455672.930   -25195609.26449 -19623936.13947  20455672.233    20455679.284
       245.000         210.000
  21996963.000   -18015757.50649 -14017579.81147  21996962.999    21996970.093
       236.000         192.000
  23362686.871    -3769102.74449  -2928124.17145  23362686.279    23362694.558
       214.000         157.000
 03  4 16  0 10 30.0000000  0  9G18G14G17G21G31G23G15G 3G 9
  21679097.743   -16980756.82049 -13205820.83047  21679097.253    21679103.226
       238.000         196.000
  20488442.195   -22793934.91849 -17236106.14647  20488441.827    20488447.117
       242.000         212.000
  22664973.174   -15640624.75849 -11424530.65745  22664973.266    22664981.261
       214.000         162.000
  22413656.482   -15901733.73549 -12128976.80846  22413655.119    22413661.727
       225.000         173.000
  22836558.934    -8591650.16749  -6682147.15346  22836557.710    22836565.783
       222.000         170.000
  22077635.003   -13952793.09549 -10856393.70347  22077634.482    22077641.363
       235.000         192.000
  20461591.116   -25164508.98649 -19599702.17047  20461590.526    20461597.244
       244.000         210.000
  22000219.046   -17998647.05349 -14004247.01047  22000218.955    22000225.795
       235.000         192.000
  23365802.550    -3752729.63449  -2915365.86845  23365802.472    23365811.749
       216.000         158.000
 03  4 16  0 11  0.0000000  0  9G18G14G17G21G31G23G15G 3G 9
  21688149.870   -16933187.67449 -13168753.97747  21688149.786    21688155.142
       238.000         196.000
  20481117.940   -22832424.08749 -17266097.68247  20481117.328    20481122.892
       242.000         212.000
  22679855.505   -15562417.90549 -11363590.33046  22679855.083    22679863.680
       218.000         163.000
  22428466.705   -15823905.49749 -12068331.49346  22428466.696    22428472.593
       225.000         172.000
  22830914.976    -8621309.45949  -6705258.27146  22830915.406    22830921.652
       223.000         171.000
  22085599.388   -13910940.13249 -10823781.02647  22085598.408    22085605.921
       234.000         191.000
  20467592.325   -25132972.02649 -19575127.93447  20467591.711    20467598.707
       244.000         210.000
  22003574.888   -17981011.75449 -13990505.23847  22003574.652    22003581.666
       234.000         190.000
  23369029.436    -3735772.97449  -2902152.87345  23369030.097    23369036.185
       217.000         160.000
 03  4 16  0 11 30.0000000  0  9G18G14G17G21G31G23G15G 3G 9
  21697222.527   -16885510.68049 -13131603.09647  21697222.735    21697227.508
       238.000         196.000
  20473892.145   -22870395.59549 -17295685.84947  20473891.910    20473897.251
       242.000         212.000
  22694798.602   -15483892.14349 -11302401.50346  22694798.328    22694807.195
       220.000         166.000
  22443336.849   -15745762.57749 -12007440.96746  22443336.731    22443342.564
       225.000         172.000
  22825375.552    -8650419.32149  -6727941.26646  22825375.451    22825382.092
       222.000         171.000
  22093572.547   -13869040.98549 -10791132.36447  22093572.108    22093578.798
       235.000         190.000
  20473676.808   -25100997.85149 -19550213.00847  20473676.209    20473683.156
       244.000         210.000
  22007030.369   -17962852.62849 -13976355.30447  22007029.760    22007037.041
       234.000         190.000
  23372367.347    -3718232.58449  -2888485.03645  23372367.357    23372375.267
       217.000         160.000
 03  4 16  0 12  0.0000000  0  9G18G14G17G21G31G23G15G 3G 9
  21706315.698   -16837725.92449 -13094368.23647  21706315.470    21706320.885
       238.000         195.000
  20466765.035   -22907848.90949 -17324870.22747  20466764.764    20466770.145
       242.000         212.000
  22709802.339   -15405047.79549 -11240964.41146  22709801.891    22709810.881
       221.000         167.000
  22458266.785   -15667305.65149 -11946305.77146  22458266.396    22458273.024
       225.000         174.000
  22819940.696    -8678979.14349  -6750195.65746  22819940.124    22819947.529
       223.000         170.000
  22101554.472   -13827095.94349 -10758447.92147  22101554.053    22101561.329
       235.000         190.000
  20479844.590   -25068586.04649 -19524957.07647  20479844.139    20479850.730
       245.000         210.000
  22010585.335   -17944171.03049 -13961798.24647  22010584.939    22010592.386
       234.000         190.000
  23375816.266    -3700108.27749  -2874362.17045  23375815.899    23375823.741
       214.000         159.000
 03  4 16  0 12 30.0000000  0  9G18G14G17G21G31G23G15G 3G 9
  21715429.270   -16789834.05149 -13057049.90547  21715428.532    21715434.151
       238.000         195.000
  20459736.572   -22944783.70849 -17353650.55547  20459736.129    20459741.440
       241.000         212.000
  22724866.425   -15325885.70749 -11179279.73346  22724867.032    22724874.621
       220.000         166.000
  22473256.275   -15588535.59049 -11884926.54546  22473255.659    22473261.597
       227.000         176.000
  22814610.701    -8706988.22849  -6772020.90346  22814610.864    22814617.328
       222.000         170.000
  22109545.070   -13785105.38249 -10725728.00947  22109544.661    22109551.333
       235.000         191.000
  20486095.734   -25035736.42349 -19499359.96547  20486095.501    20486101.731
       245.000         210.000
  22014239.577   -17924968.02549 -13946834.88947  22014239.499    22014246.671
       234.000         190.000
  23379376.082    -3681400.07249  -2859784.33145  23379375.695    23379383.795
       218.000         158.000
 03  4 16  0 13  0.0000000  0  9G18G14G17G21G31G23G15G 3G 9
  21724563.039   -16741835.49249 -13019648.44247  21724562.488    21724568.617
       237.000         194.000
  20452806.828   -22981199.51649 -17382026.47247  20452806.187    20452811.742
       241.000         212.000
  22739990.781   -15246406.74949 -11117348.12346  22739990.242    22739998.804
       223.000         165.000
  22488305.212   -15509453.23449 -11823303.98246  22488305.300    22488311.398
       228.000         178.000
  22809385.677    -8734445.86649  -6793416.47146  22809385.151    22809392.458
       222.000         171.000
  22117544.294   -13743069.50349 -10692972.79047  22117543.633    22117550.989
       235.000         190.000
  20492430.214   -25002448.69649 -19473421.48047  20492429.636    20492436.307
       244.000         210.000
  22017992.807   -17905245.06649 -13931466.37347  22017993.021    22017999.833
       236.000         191.000
  23383047.379    -3662107.86449  -2844751.42445  23383047.253    23383055.441
       218.000         160.000
 03  4 16  0 13 30.0000000  0  9G18G14G17G21G31G23G15G 3G 9
  21733716.980   -16693730.93049 -12982164.38247  21733716.531    21733722.009
       237.000         194.000
  20445975.879   -23017096.15149 -17409997.84647  20445975.416    20445980.846
       242.000         212.000
  22755175.182   -15166612.23449 -11055170.62546  22755174.670    22755183.862
       222.000         163.000
  22503413.290   -15430059.83849 -11761439.03946  22503412.622    22503420.462
       228.000         179.000
  22804265.592    -8761351.82849  -6814382.15546  22804265.775    22804273.012
       224.000         171.000
  22125551.890   -13700988.82349 -10660182.66547  22125551.659    22125558.481
       234.000         190.000
  20498847.950   -24968723.06349 -19447141.79447  20498847.323    20498854.009
       244.000         210.000
  22021844.724   -17885003.66849 -13915693.88347  22021844.694    22021851.865
       236.000         191.000
  23386829.672    -3642232.23749  -2829263.92845  23386829.645    23386836.935
       218.000         160.000
 03  4 16  0 14  0.0000000  0  9G18G14G17G21G31G23G15G 3G 9
  21742891.064   -16645520.87949 -12944598.12947  21742890.840    21742895.940
       236.000         193.000
  20439243.784   -23052473.58949 -17437564.65647  20439243.486    20439248.637
       242.000         212.000
  22770419.609   -15086502.56449 -10992747.54845  22770418.877    22770428.097
       222.000         161.000
  22518580.387   -15350356.19549 -11699332.35146  22518579.482    22518586.877
       229.000         180.000
  22799250.702    -8787705.71649  -6834917.66346  22799250.757    22799257.618
       222.000         172.000
  22133568.011   -13658863.79849 -10627357.99447  22133567.870    22133574.592
       234.000         190.000
  20505349.161   -24934558.86849 -19420520.36847  20505348.533    20505355.495
       244.000         210.000
  22025794.936   -17864245.08649 -13899518.38847  22025794.760    22025802.003
       235.000         191.000
  23390722.785    -3621773.29949  -2813321.90045  23390721.460    23390729.921
       215.000         159.000
 03  4 16  0 14 30.0000000  0  9G18G14G17G21G31G23G15G 3G 9
  21752085.216   -16597204.87249 -12906949.30847  21752084.395    21752090.573
       235.000         193.000
  20432610.706   -23087330.48449 -17464725.84948  20432610.248    20432615.791
       242.000         213.000
  22785723.970   -15006077.76749 -10930078.92345  22785723.852    22785731.989
       221.000         159.000
  22533806.579   -15270342.25449 -11636983.86346  22533805.971    22533812.413
       229.000         179.000
  22794341.252    -8813506.02849  -6855021.82046  22794341.206    22794347.920
       224.000         172.000
  22141592.734   -13616693.71649 -10594498.21147  22141592.115    22141598.988
       234.000         190.000
  20511934.040   -24899955.11449 -19393556.41847  20511933.504    20511940.257
       244.000         210.000
  22029843.534   -17842969.78149 -13882940.26047  22029843.547    22029851.023
       235.000         191.000
  23394727.035    -3600730.18249  -2796924.67545  23394727.827    23394734.668
       215.000         157.000
 03  4 16  0 15  0.0000000  0  9G18G14G17G21G31G23G15G 3G 9
  21761299.253   -16548784.54549 -12869219.20247  21761298.996    21761304.320
       237.000         193.000
  20426076.523   -23121667.65349 -17491482.05548  20426076.182    20426081.550
       241.000         213.000
  22801087.999   -14925339.67549 -10867166.18245  22801088.185    22801095.910
       220.000         159.000
  22549091.393   -15190020.17649 -11574395.27146  22549091.609    22549097.479
       229.000         179.000
  22789536.935    -8838753.48449  -6874695.16046  22789536.462    22789543.727
       223.000         172.000
  22149625.692   -13574480.07349 -10561604.47647  22149625.054    22149632.334
       234.000         190.000
  20518602.435   -24864912.68549 -19366250.64147  20518602.057    20518608.801
       244.000         210.000
  22033989.927   -17821180.25149 -13865961.43447  22033989.886    22033996.589
       235.000         191.000
  23398842.197    -3579104.31049  -2780073.32145  23398842.179    23398850.934
       214.000         157.000
 03  4 16  0 15 30.0000000  0  9G18G14G17G21G31G23G15G 3G 9
  21770533.285   -16500259.80849 -12831407.73947  21770533.203    21770538.844
       237.000         194.000
  20419641.362   -23155484.53849 -17517832.84748  20419640.687    20419646.398
       241.000         213.000
  22816511.457   -14844289.00849 -10804009.87345  22816510.618    22816519.711
       219.000         158.000
  22564434.784   -15109390.31549 -11511566.86046  22564433.848    22564441.175
       228.000         177.000
  22784837.884    -8863447.24949  -6893937.06946  22784837.185    22784843.949
       223.000         172.000
  22157667.024   -13532222.67449 -10528676.64047  22157666.866    22157673.738
       235.000         190.000
  20525354.385   -24829431.06149 -19338602.62747  20525354.043    20525360.547
       245.000         210.000
  22038234.002   -17798877.43749 -13848582.63847  22038233.598    22038241.149
       235.000         191.000
  23403068.628    -3556895.36349  -2762767.63345  23403069.492    23403076.815
       217.000         159.000
 03  4 16  0 16  0.0000000  0  9G18G14G17G21G31G23G15G 3G 9
  21779787.172   -16451630.63149 -12793514.88147  21779787.047    21779792.934
       237.000         194.000
  20413305.343   -23188780.28749 -17543777.57048  20413305.053    20413310.318
       242.000         213.000
  22831994.401   -14762925.67049 -10740609.94345  22831994.599    22832002.581
       216.000         159.000
  22579836.644   -15028453.23249 -11448499.05046  22579835.475    22579843.009
       226.000         176.000
  22780244.266    -8887586.33549  -6912746.75846  22780243.106    22780250.844
       223.000         171.000
  22165716.759   -13489921.24649 -10495714.49947  22165716.054    22165723.338
       233.000         190.000
  20532190.082   -24793509.44649 -19310611.77247  20532189.461    20532196.239
       244.000         209.000
  22042575.599   -17776062.08149 -13830804.46047  22042575.343    22042582.836
       234.000         191.000
  23407405.896    -3534103.22549  -2745007.55545  23407405.151    23407412.918
       215.000         158.000
 03  4 16  0 16 30.0000000  0  9G18G14G17G21G31G23G15G 3G 9
  21789060.756   -16402897.48649 -12755541.02347  21789060.407    21789066.070
       236.000         194.000
  20407068.616   -23221554.64649 -17569316.02048  20407068.321    20407073.555
       242.000         213.000
  22847536.672   -14681250.62749 -10676967.14445  22847536.380    22847544.708
       214.000         158.000
  22595296.717   -14947209.59849 -11385192.37146  22595295.892    22595302.609
       225.000         173.000
  22775756.340    -8911170.23649  -6931123.84246  22775755.543    22775762.807
       222.000         171.000
  22173774.821   -13447575.80549 -10462718.06947  22173774.266    22173781.390
       234.000         190.000
  20539109.466   -24757147.40149 -19282277.73747  20539108.761    20539115.987
       243.000         209.000
  22047014.393   -17752735.73049 -13812628.12047  22047014.160    22047021.662
       235.000         191.000
  23411854.063    -3510727.83649  -2726792.93745  23411853.111    23411861.890
       214.000         157.000
 03  4 16  0 17  0.0000000  0  9G18G14G17G21G31G23G15G 3G 9
  21798354.015   -16354061.02349 -12717486.66947  21798353.734    21798359.255
       237.000         193.000
  20400931.055   -23253807.96249 -17594448.45848  20400930.790    20400935.760
       242.000         213.000
  22863138.024   -14599265.19149 -10613082.47145  22863137.939    22863146.664
       209.000         156.000
  22610814.807   -14865660.99849 -11321648.06346  22610814.349    22610822.354
       225.000         173.000
  22771374.021    -8934198.95049  -6949068.29546  22771373.716    22771379.961
       222.000         171.000
  22181841.173   -13405187.07549 -10429687.91447  22181840.631    22181847.705
       232.000         190.000
  20546112.622   -24720345.33649 -19253600.82447  20546112.212    20546119.060
       244.000         209.000
  22051550.238   -17728900.23349 -13794055.03747  22051550.169    22051557.470
       235.000         191.000
  23416412.998    -3486769.93149  -2708124.43645  23416413.404    23416421.159
       217.000         158.000
 03  4 16  0 17 30.0000000  0  9G18G14G17G21G31G23G15G 3G 9
  21807666.977   -16305121.49949 -12679351.99147  21807666.786    21807672.013
       236.000         193.000
  20394892.685   -23285539.82649 -17619174.56348  20394892.070    20394897.524
       241.000         213.000
  22878798.207   -14516970.21449 -10548956.61845  22878797.478    22878806.902
       207.000         154.000
  22626390.948   -14783808.08449 -11257866.62446  22626390.816    22626397.179
       226.000         172.000
  22767097.551    -8956672.01449  -6966579.77146  22767097.237    22767103.956
       223.000         172.000
  22189915.631   -13362755.28949 -10396624.19247  22189914.792    22189922.447
       232.000         189.000
  20553199.616   -24683103.04849 -19224580.86847  20553199.306    20553205.918
       245.000         209.000
  22056182.659   -17704556.70049 -13775086.07347  22056182.293    22056189.564
       234.000         190.000
  23421083.117    -3462229.44349  -2689001.97145  23421082.852    23421091.100
       218.000         160.000
 03  4 16  0 18  0.0000000  0  9G18G14G17G21G31G23G15G 3G 9
  21816999.290   -16256080.15349 -12641137.97147  21816998.906    21817004.193
       236.000         192.000
  20388953.301   -23316750.87349 -17643494.83847  20388952.732    20388958.242
       240.000         212.000
  22894517.062   -14434367.35549 -10484590.84645  22894516.796    22894525.740
       209.000         153.000
  22642024.704   -14701652.83549 -11193849.60046  22642024.453    22642031.493
       227.000         172.000
  22762926.737    -8978589.92249  -6983658.68446  22762927.213    22762932.849
       225.000         173.000
  22197998.119   -13320281.54149 -10363527.79247  22197997.526    22198004.405
       233.000         189.000
  20560370.306   -24645421.18649 -19195218.39147  20560369.922    20560376.385
       244.000         209.000
  22060911.314   -17679707.63949 -13755723.20047  22060911.309    22060918.586
       234.000         190.000
  23425863.682    -3437107.64549  -2669426.53045  23425863.792    23425871.211
       218.000         161.000
 03  4 16  0 18 30.0000000  0  9G18G14G17G21G31G23G15G 3G 9
  21826350.927   -16206936.70149 -12602844.38847  21826350.332    21826355.770
       235.000         191.000
  20383113.223   -23347440.08649 -17667408.47747  20383112.595    20383118.148
       241.000         212.000
  22910294.502   -14351456.63149 -10419985.18145  22910294.453    22910303.701
       209.000         153.000
  22657715.921   -14619195.26049 -11129596.99646  22657715.440    22657723.107
       227.000         173.000
  22758861.814    -8999951.50149  -7000304.06446  22758861.218    22758868.277
       223.000         173.000
  22206088.774   -13277765.10449 -10330398.11847  22206088.385    22206095.244
       232.000         189.000
  20567624.847   -24607298.75849 -19165512.61947  20567624.210    20567631.010
       244.000         209.000
  22065736.028   -17654353.78649 -13735966.97447  22065735.959    22065742.883
       235.000         190.000
  23430754.791    -3411404.05149  -2649397.74545  23430754.306    23430763.080
       217.000         161.000
 03  4 16  0 19  0.0000000  0  9G18G14G17G21G31G23G15G 3G 9
  21835721.865   -16157691.66549 -12564471.66947  21835721.335    21835727.061
       235.000         191.000
  20377372.462   -23377607.70449 -17690915.68448  20377372.019    20377377.473
       241.000         213.000
  22926130.336   -14268239.21649 -10355140.53245  22926130.450    22926138.953
       212.000         155.000
  22673464.393   -14536436.60349 -11065109.78146  22673464.287    22673470.170
       227.000         173.000
  22754902.701    -9020756.83349  -7016516.00946  22754902.009    22754909.892
       222.000         173.000
  22214187.441   -13235206.58349 -10297235.65947  22214186.978    22214193.689
       233.000         190.000
  20574963.096   -24568736.00449 -19135463.74847  20574962.380    20574969.161
       243.000         209.000
  22070656.565   -17628496.81149 -13715818.70647  22070656.153    22070663.291
       235.000         190.000
  23435756.635    -3385119.25149  -2628916.09645  23435756.493    23435763.832
       218.000         159.000
 03  4 16  0 19 30.0000000  0  9G18G14G17G21G31G23G15G 3G 9
  21845112.202   -16108344.91749 -12526019.67747  21845111.884    21845117.534
       236.000         191.000
  20371731.133   -23407253.19949 -17714016.04248  20371730.884    20371736.364
       241.000         213.000
  22942024.406   -14184715.86949 -10290057.49145  22942024.367    22942033.349
       213.000         157.000
  22689270.081   -14453377.40349 -11000388.38546  22689269.825    22689277.054
       226.000         172.000
  22751049.478    -9041005.07549  -7032293.87146  22751049.316    22751056.490
       223.000         173.000
  22222294.092   -13192605.82049 -10264040.27447  22222293.426    22222300.782
       233.000         189.000
  20582385.180   -24529732.09949 -19105071.12347  20582384.342    20582391.484
       243.000         208.000
  22075672.533   -17602137.90449 -13695279.32447  22075672.160    22075679.540
       234.000         189.000
  23440868.995    -3358253.39249  -2607981.68345  23440867.955    23440876.336
       215.000         158.000
 03  4 16  0 20  0.0000000  0  9G18G14G17G21G31G23G15G 3G 9
  21854521.819   -16058897.18249 -12487488.98647  21854521.530    21854527.151
       235.000         191.000
  20366189.131   -23436376.77449 -17736709.70948  20366188.771    20366194.318
       241.000         213.000
  22957976.546   -14100887.37349 -10224736.66045  22957976.564    22957985.422
       216.000         160.000
  22705132.739   -14370019.03749 -10935433.87746  22705132.354    22705138.809
       223.000         171.000
  22747302.309    -9060696.32849  -7047637.69846  22747301.491    22747309.667
       224.000         173.000
  22230408.654   -13149963.15149 -10230812.23547  22230407.909    22230415.159
       232.000         188.000
  20589891.183   -24490287.57449 -19074335.15147  20589890.755    20589897.250
       243.000         207.000
  22080783.572   -17575278.80849 -13674350.17547  22080783.472    22080791.108
       233.000         189.000
  23446091.681    -3330807.22449  -2586595.04245  23446091.569    23446099.604
       214.000         158.000
 03  4 16  0 20 30.0000000  0  9G18G14G17G21G31G23G15G 3G 9
  21863950.529   -16009348.33749 -12448879.50547  21863950.032    21863956.088
       235.000         190.000
  20360746.500   -23464977.79149 -17758996.18948  20360746.099    20360751.488
       241.000         213.000
  22973986.656   -14016754.10449 -10159178.35345  22973986.680    22973996.088
       216.000         162.000
  22721052.104   -14286361.96849 -10870246.63046  22721051.843    22721059.182
       223.000         170.000
  22743661.304    -9079829.87949  -7062546.95346  22743661.291    22743667.964
       224.000         174.000
  22238531.344   -13107278.15949 -10197551.22046  22238531.175    22238537.737
       231.000         187.000
  20597481.324   -24450401.51949 -19043255.12747  20597480.991    20597487.301
       244.000         207.000
  22085989.599   -17547920.89449 -13653032.34547  22085989.548    22085996.761
       234.000         189.000
  23451424.885    -3302780.76049  -2564756.21945  23451424.846    23451432.929
       216.000         157.000
 03  4 16  0 21  0.0000000  0  9G18G14G17G21G31G23G15G 3G 9
  21873398.386   -15959699.55749 -12410192.17347  21873398.291    21873403.782
       235.000         190.000
  20355403.177   -23493056.96549 -17780876.03548  20355402.748    20355408.047
       239.000         213.000
  22990054.425   -13932317.91149 -10093383.99146  22990053.907    22990063.212
       217.000         163.000
  22737028.013   -14202407.85349 -10804827.90846  22737027.813    22737034.332
       222.000         168.000
  22740126.493    -9098406.06849  -7077021.89746  22740125.599    22740133.091
       224.000         174.000
  22246661.946   -13064551.64749 -10164257.85646  22246661.697    22246668.739
       231.000         187.000
  20605155.338   -24410074.61049 -19011831.57047  20605154.928    20605161.451
       244.000         208.000
  22091290.201   -17520066.15949 -13631327.37647  22091289.638    22091297.429
       234.000         189.000
  23456868.423    -3274174.76449  -2542465.81845  23456867.608    23456876.041
       214.000         156.000
 03  4 16  0 21 30.0000000  0  9G18G14G17G21G31G23G15G 3G 9
  21882865.365   -15909950.47349 -12371426.66247  21882865.228    21882871.003
       236.000         189.000
  20350159.277   -23520613.80749 -17802348.87248  20350158.958    20350164.005
       240.000         213.000
  23006179.776   -13847579.01249 -10027353.76346  23006179.443    23006188.318
       217.000         163.000
  22753060.406   -14118157.43749 -10739178.31546  22753060.414    22753067.053
       221.000         166.000
  22736697.759    -9116424.43049  -7091062.16946  22736697.532    22736704.967
       224.000         174.000
  22254800.495   -13021783.32449 -10130931.90446  22254799.923    22254807.702
       231.000         187.000
  20612913.290   -24369306.48149 -18980064.21747  20612912.807    20612919.887
       243.000         208.000
  22096685.071   -17491715.97649 -13609236.34347  22096685.213    22096692.210
       235.000         189.000
  23462422.148    -3244989.47449  -2519724.04345  23462422.643    23462429.809
       219.000         156.000
 03  4 16  0 22  0.0000000  0  9G18G14G17G21G31G23G15G 3G 9
  21892351.299   -15860101.91949 -12332583.64647  21892351.111    21892356.828
       236.000         190.000
  20345014.724   -23547648.82249 -17823415.09648  20345014.400    20345019.540
       240.000         213.000
  23022362.422   -13762538.86549  -9961088.78946  23022362.030    23022371.273
       218.000         164.000
  22769148.937   -14033612.16049 -10673298.95946  22769149.316    22769155.248
       222.000         164.000
  22733375.174    -9133885.31549  -7104668.04346  22733375.472    22733381.217
       225.000         174.000
  22262946.814   -12978973.98349 -10097573.99546  22262946.723    22262953.289
       231.000         187.000
  20620755.071   -24328097.75649 -18947953.54747  20620754.419    20620761.522
       244.000         209.000
  22102173.918   -17462872.42849 -13586760.86147  22102174.113    22102181.012
       235.000         189.000
  23468086.170    -3215225.77249  -2496531.54845  23468086.172    23468093.446
       217.000         155.000
 03  4 16  0 22 30.0000000  0  9G18G14G17G21G31G23G15G 3G 9
  21901856.134   -15810154.03049 -12293663.21747  21901856.300    21901861.028
       236.000         190.000
  20339969.513   -23574161.69949 -17844074.46148  20339969.312    20339974.306
       240.000         214.000
  23038602.181   -13677198.70049  -9894590.03546  23038602.268    23038610.112
       218.000         164.000
  22785293.414   -13948772.87649 -10607190.50345  22785294.039    22785299.787
       221.000         162.000
  22730158.822    -9150788.35649  -7117839.21846  22730158.908    22730165.438
       226.000         174.000
  22271100.965   -12936123.53949 -10064184.04946  22271100.898    22271107.833
       232.000         187.000
  20628680.764   -24286448.02449 -18915499.23947  20628680.332    20628687.302
       244.000         209.000
  22107756.213   -17433537.00749 -13563902.10347  22107755.949    22107763.074
       233.000         189.000
  23473859.929    -3184884.16749  -2472888.75245  23473859.515    23473867.629
       214.000         154.000
 03  4 16  0 23  0.0000000  0  9G18G14G17G21G31G23G15G 3G 9
  21911379.865   -15760106.89249 -12254665.45747  21911379.777    21911385.224
       237.000         190.000
  20335023.714   -23600152.30549 -17864326.86748  20335023.336    20335028.654
       240.000         214.000
  23054898.876   -13591558.99849  -9827857.87246  23054898.026    23054907.383
       218.000         163.000
  22801493.658   -13863640.37749 -10540853.54845  22801493.594    22801499.994
       220.000         160.000
  22727048.577    -9167132.96249  -7130575.27346  22727048.052    22727055.221
       225.000         174.000
  22279263.101   -12893231.67249 -10030761.82447  22279262.807    22279270.159
       232.000         188.000
  20636690.539   -24244356.65449 -18882700.78247  20636690.067    20636696.534
       244.000         208.000
  22113431.888   -17403710.52549 -13540660.70447  22113431.290    22113439.359
       232.000         188.000
  23479743.501    -3153964.77149  -2448795.68045  23479742.882    23479752.860
       217.000         154.000
 03  4 16  0 23 30.0000000  0  9G18G14G17G21G31G23G15G 3G 9
  21920922.429   -15709960.80649 -12215590.59347  21920922.411    21920927.558
       237.000         191.000
  20330177.215   -23625620.87749 -17884172.49148  20330176.801    20330182.051
       240.000         214.000
  23071252.360   -13505620.90749  -9760893.21446  23071251.855    23071261.392
       217.000         163.000
  22817749.565   -13778215.54349 -10474288.81045  22817749.541    22817754.877
       221.000         159.000
  22724044.449    -9182919.34649  -7142876.34846  22724043.772    22724050.013
       225.000         175.000
  22287433.036   -12850298.73049  -9997307.58647  22287432.032    22287439.635
       232.000         188.000
  20644784.255   -24201823.96449 -18849558.43647  20644783.804    20644790.225
       243.000         208.000
  22119200.618   -17373395.22449 -13517038.40547  22119200.136    22119207.863
       233.000         188.000
  23485737.332    -3122468.24349  -2424252.93145  23485737.592    23485744.717
       220.000         157.000
 03  4 16  0 24  0.0000000  0  9G18G14G17G21G31G23G15G 3G 9
  21930483.689   -15659716.22349 -12176438.97447  21930483.422    21930489.267
       236.000         192.000
  20325430.018   -23650567.41849 -17903611.33648  20325429.468    20325434.838
       240.000         214.000
  23087662.498   -13419385.44449  -9693696.83445  23087661.804    23087671.605
       217.000         162.000
  22834060.832   -13692499.69549 -10407497.30345  22834061.638    22834067.282
       220.000         158.000
  22721146.513    -9198147.46049  -7154742.40746  22721146.428    22721153.031
       225.000         175.000
  22295610.636   -12807325.09449  -9963821.64447  22295610.310    22295617.498
       233.000         189.000
  20652961.919   -24158850.04549 -18816072.28547  20652961.302    20652968.043
       242.000         207.000
  22125062.077   -17342592.93149 -13493036.63147  22125062.218    22125069.125
       233.000         188.000
  23491840.793    -3090395.39749  -2399261.09945  23491841.127    23491847.957
       219.000         157.000
 03  4 16  0 24 30.0000000  0  9G18G14G17G21G31G23G15G 3G 9
  21940063.675   -15609372.91949 -12137210.44147  21940063.140    21940069.300
       235.000         191.000
  20320782.198   -23674991.75149 -17922643.27348  20320781.696    20320787.023
       240.000         214.000
  23104129.114   -13332853.28049  -9626269.25445  23104129.104    23104138.293
       216.000         162.000
  22850427.293   -13606493.61949 -10340479.64945  22850427.218    22850433.328
       220.000         158.000
  22718354.887    -9212816.82649  -7166173.09546  22718353.951    22718361.610
       224.000         175.000
  22303796.143   -12764310.22149  -9930303.56447  22303795.813    22303803.005
       233.000         189.000
  20661223.638   -24115434.60649 -18782242.10847  20661222.923    20661230.163
       241.000         207.000
  22131015.970   -17311304.71549 -13468656.22446  22131015.707    22131023.457
       233.000         187.000
  23498053.699    -3057746.45849  -2373820.37545  23498052.677    23498061.131
       217.000         156.000
 03  4 16  0 25  0.0000000  0  9G18G14G17G21G31G23G15G 3G 9
  21949662.172   -15558932.16849 -12097905.96947  21949661.625    21949667.757
       235.000         190.000
  20316233.559   -23698894.69249 -17941268.92048  20316233.065    20316238.340
       239.000         214.000
  23120651.795   -13246026.18849  -9558611.86345  23120652.076    23120660.805
       216.000         162.000
  22866848.601   -13520199.22349 -10273237.32845  22866848.620    22866854.842
       219.000         158.000
  22715669.478    -9226928.29149  -7177169.04746  22715669.309    22715676.532
       224.000         175.000
  22311989.371   -12721255.00949  -9896754.05647  22311988.991    22311996.341
       231.000         188.000
  20669569.182   -24071578.50149 -18748068.54047  20669568.366    20669575.744
       241.000         207.000
  22137061.890   -17279533.17549 -13443899.19646  22137061.441    22137069.253
       233.000         187.000
  23504375.754    -3024522.77749  -2347931.77945  23504375.479    23504382.431
       215.000         153.000
 03  4 16  0 25 30.0000000  0  9G18G14G17G21G31G23G15G 3G 9
  21959279.437   -15508393.60449 -12058525.29047  21959279.327    21959285.180
       234.000         190.000
  20311784.266   -23722275.71149 -17959487.87048  20311783.755    20311788.902
       240.000         214.000
  23137230.637   -13158904.30949  -9490724.75945  23137229.849    23137239.848
       216.000         161.000
  22883324.706   -13433616.81349 -10205770.58645  22883323.924    22883330.762
       219.000         158.000
  22713090.370    -9240481.17849  -7187729.74746  22713089.655    22713096.962
       225.000         175.000
  22320190.245   -12678158.86249  -9863172.65647  22320189.574    22320197.342
       231.000         188.000
  20677998.622   -24027281.30049 -18713551.26947  20677997.960    20678005.125
       241.000         208.000
  22143199.606   -17247279.67449 -13418766.62447  22143199.572    22143206.943
       234.000         188.000
  23510807.281    -2990724.36949  -2321595.32945  23510805.908    23510815.075
       215.000         153.000
 03  4 16  0 26  0.0000000  0  9G18G14G17G21G31G23G15G 3G 9
  21968914.905   -15457758.11449 -12019069.08847  21968914.417    21968920.463
       233.000         189.000
  20307434.080   -23745135.91949 -17977300.99448  20307433.586    20307438.821
       240.000         214.000
  23153865.086   -13071489.97549  -9422609.76145  23153864.583    23153874.005
       217.000         161.000
  22899855.199   -13346748.61649 -10138081.15445  22899855.410    22899862.015
       217.000         158.000
  22710617.471    -9253476.49949  -7197855.99046  22710616.727    22710623.776
       226.000         176.000
  22328398.752   -12635022.83349  -9829560.17346  22328398.312    22328405.259
       230.000         187.000
  20686511.864   -23982543.84849 -18678690.94047  20686511.286    20686518.407
       241.000         208.000
  22149428.529   -17214546.95949 -13393260.64447  22149428.780    22149436.148
       233.000         188.000
  23517347.886    -2956353.10849  -2294812.50945  23517347.859    23517355.936
       215.000         151.000
 03  4 16  0 26 30.0000000  0  9G18G14G17G21G31G23G15G 3G 9
  21978568.942   -15407025.36849 -11979537.10147  21978568.094    21978574.454
       233.000         188.000
  20303183.100   -23767474.81249 -17994707.89948  20303182.679    20303187.824
       240.000         214.000
  23170555.074   -12983783.86749  -9354267.42345  23170554.419    23170564.162
       216.000         160.000
  22916440.089   -13259594.80149 -10070169.17945  22916440.019    22916446.270
       215.000         157.000
  22708250.902    -9265913.58649  -7207547.23546  22708250.285    22708257.705
       225.000         176.000
  22336614.989   -12591846.21149  -9795916.06646  22336614.813    22336621.312
       231.000         186.000
  20695108.947   -23937365.75149 -18643487.24447  20695108.315    20695115.397
       241.000         207.000
  22155748.478   -17181336.18049 -13367382.13647  22155748.375    22155756.027
       233.000         188.000
  23523997.408    -2921408.96049  -2267583.29045  23523997.286    23524005.044
       215.000         152.000
 03  4 16  0 27  0.0000000  0  9G18G14G17G21G31G23G15G 3G 9
  21988241.421   -15356196.10049 -11939929.90447  21988241.047    21988247.233
       235.000         189.000
  20299031.292   -23789292.71149 -18011708.83848  20299030.763    20299035.861
       239.000         214.000
  23187300.505   -12895786.42649  -9285698.06345  23187300.436    23187309.266
       215.000         159.000
  22933078.996   -13172156.80749 -10002035.75045  22933078.680    22933086.180
       214.000         156.000
  22705990.433    -9277792.61149  -7216803.62346  22705990.450    22705996.340
       226.000         176.000
  22344838.894   -12548629.27549  -9762240.54346  22344838.510    22344845.849
       231.000         185.000
  20703789.933   -23891746.93549 -18607940.13247  20703789.495    20703796.432
       242.000         207.000
  22162159.002   -17147649.07849 -13341132.46347  22162159.017    22162166.581
       233.000         188.000
  23530756.064    -2885892.70949  -2239908.28545  23530756.346    23530762.543
       216.000         150.000
 03  4 16  0 27 30.0000000  0  9G18G14G17G21G31G23G15G 3G 9
  21997932.365   -15305270.46849 -11900247.61847  21997931.989    21997937.897
       236.000         189.000
  20294978.505   -23810590.00349 -18028304.10948  20294978.139    20294983.132
       240.000         214.000
  23204100.993   -12807498.97149  -9216902.72345  23204100.565    23204110.435
       214.000         157.000
  22949771.751   -13084435.96249  -9933681.92445  22949771.034    22949778.459
       214.000         155.000
  22703836.086    -9289113.86349  -7225625.38946  22703835.602    22703842.115
       225.000         176.000
  22353070.405   -12505372.31849  -9728533.84546  22353069.882    22353076.647
       231.000         185.000
  20712554.725   -23845687.86849 -18572049.97547  20712554.167    20712561.357
       242.000         207.000
  22168659.760   -17113487.66049 -13314513.21147  22168659.716    22168666.690
       233.000         188.000
  23537623.265    -2849805.52549  -2211788.39645  23537622.103    23537631.194
       217.000         150.000
 03  4 16  0 28  0.0000000  0  9G18G14G17G21G31G23G15G 3G 9
  22007641.776   -15254247.74649 -11860489.66747  22007641.457    22007647.399
       237.000         190.000
  20291024.952   -23831366.28249 -18044493.39448  20291024.626    20291029.655
       240.000         214.000
  23220956.566   -12718922.49549  -9147882.18145  23220956.846    23220966.494
       213.000         156.000
  22966518.297   -12996432.69849  -9865108.02045  22966517.741    22966524.542
       213.000         153.000
  22701787.900    -9299876.76949  -7234012.07046  22701787.839    22701794.434
       225.000         176.000
  22361309.681   -12462074.54549  -9694795.33346  22361309.138    22361316.035
       231.000         185.000
  20721403.398   -23799187.94149 -18535816.28747  20721402.931    20721409.651
       241.000         206.000
  22175250.533   -17078853.02849 -13287525.21747  22175250.234    22175257.568
       232.000         188.000
  23544599.066    -2813147.59349  -2183223.77145  23544599.953    23544607.179
       213.000         149.000
 03  4 16  0 28 30.0000000  0  9G18G14G17G21G31G23G15G 3G 9
  22017369.373   -15203129.36049 -11820657.17147  22017369.602    22017374.128
       237.000         190.000
  20287170.272   -23851622.67249 -18060277.56748  20287169.775    20287174.892
       239.000         214.000
  23237866.791   -12630058.88349  -9078637.88345  23237865.620    23237876.091
       212.000         155.000
  22983318.106   -12908148.95849  -9796315.57945  22983317.900    22983324.072
       212.000         152.000
  22699845.976    -9310082.26549  -7241964.40646  22699845.694    22699852.782
       226.000         176.000
  22369556.523   -12418736.85649  -9661025.72446  22369556.248    22369562.749
       231.000         185.000
  20730335.756   -23752248.11549 -18499239.81147  20730335.248    20730342.158
       242.000         206.000
  22181930.804   -17043747.85949 -13260170.55546  22181930.719    22181937.826
       233.000         187.000
  23551683.271    -2775920.31749  -2154215.48245  23551682.729    23551691.029
       212.000         148.000
 03  4 16  0 29  0.0000000  0  9G18G14G17G21G31G23G15G 3G 9
  22027115.372   -15151914.42549 -11780749.43047  22027115.675    22027120.078
       237.000         190.000
  20283414.623   -23871358.55649 -18075656.15348  20283414.185    20283419.330
       240.000         214.000
  23254831.695   -12540907.74549  -9009169.54645  23254832.015    23254841.279
       212.000         153.000
  23000171.289   -12819585.06349  -9727304.82245  23000171.722    23000177.634
       214.000         152.000
  22698010.201    -9319729.77549  -7249481.94746  22698010.484    22698016.361
       226.000         176.000
  22377811.228   -12375358.52949  -9627224.44946  22377810.794    22377817.332
       232.000         185.000
  20739352.028   -23704867.76549 -18462320.06747  20739351.835    20739358.183
       242.000         207.000
  22188700.439   -17008173.28549 -13232450.13146  22188700.392    22188707.234
       232.000         187.000
  23558875.610    -2738123.57749  -2124763.50045  23558876.069    23558883.289
       215.000         146.000
 03  4 16  0 29 30.0000000  0  9G18G14G17G21G31G23G15G 3G 9
  22036879.473   -15100604.03449 -11740767.33047  22036879.016    22036884.394
       236.000         190.000
  20279757.807   -23890575.09949 -18090630.05848  20279757.376    20279762.596
       239.000         214.000
  23271850.833   -12451471.31349  -8939478.91245  23271851.652    23271859.662
       210.000         151.000
  23017077.561   -12730742.87349  -9658077.20545  23017077.739    23017083.089
       215.000         153.000
  22696280.297    -9328820.27449  -7256565.44246  22696279.842    22696286.393
       225.000         176.000
  22386073.560   -12331940.21549  -9593392.01446  22386073.164    22386080.375
       231.000         186.000
  20748451.914   -23657047.89949 -18425057.85647  20748451.496    20748458.328
       241.000         207.000
  22195558.878   -16972132.04949 -13204366.07346  22195559.014    22195566.553
       233.000         187.000
  23566176.068    -2699759.35949  -2094869.32045  23566175.896    23566185.246
       213.000         147.000
 03  4 16  0 30  0.0000000  0  9G18G14G17G21G31G23G15G 3G 9
  22046661.661   -15049198.50249 -11700711.08747  22046661.424    22046666.693
       236.000         190.000
  20276199.794   -23909272.36449 -18105199.33848  20276199.409    20276204.772
       239.000         215.000
  23288924.138   -12361750.67549  -8869566.80545  23288924.173    23288933.347
       211.000         150.000
  23034036.454   -12641623.72849  -9588633.80045  23034036.039    23034042.800
       215.000         153.000
  22694656.409    -9337353.91749  -7263215.02246  22694655.537    22694662.237
       225.000         175.000
  22394343.339   -12288481.96149  -9559528.45446  22394342.639    22394349.972
       231.000         186.000
  20757635.330   -23608788.50649 -18387453.15647  20757634.439    20757641.660
       241.000         206.000
  22202505.822   -16935625.92649 -13175919.77246  22202505.685    22202513.544
       232.000         187.000
  23573584.344    -2660828.36149  -2064533.47845  23573583.887    23573591.732
       213.000         146.000
 03  4 16  0 30 30.0000000  0  9G18G14G17G21G31G23G15G 3G 9
  22056461.924   -14997697.59549 -11660580.52747  22056461.729    22056467.492
       236.000         190.000
  20272740.652   -23927450.34249 -18119363.98048  20272740.344    20272745.488
       240.000         215.000
  23306051.374   -12271746.77949  -8799433.99545  23306051.616    23306062.031
       211.000         148.000
  23051047.863   -12552228.37349  -9518975.16045  23051048.211    23051053.961
       216.000         153.000
  22693138.365    -9345330.56349  -7269430.56546  22693136.728    22693145.205
       224.000         175.000
  22402620.921   -12244983.33049  -9525633.44446  22402620.898    22402626.990
       231.000         185.000
  20766902.370   -23560089.57549 -18349505.97547  20766901.623    20766908.530
       240.000         206.000
  22209540.901   -16898656.52849 -13147112.47246  22209540.735    22209548.246
       232.000         187.000
  23581100.392    -2621331.29149  -2033756.54345  23581099.055    23581107.080
       212.000         145.000
 03  4 16  0 31  0.0000000  0  9G18G14G17G21G31G23G15G 3G 9
  22066280.279   -14946101.75849 -11620376.00447  22066279.902    22066285.633
       235.000         190.000
  20269380.191   -23945109.71249 -18133124.50648  20269379.820    20269384.890
       240.000         215.000
  23323232.205   -12181461.13549  -8729081.64045  23323232.242    23323242.022
       209.000         146.000
  23068111.483   -12462558.32549  -9449102.45145  23068110.839    23068117.867
       215.000         152.000
  22691726.143    -9352750.73949  -7275212.51046  22691725.995    22691732.484
       224.000         175.000
  22410906.124   -12201444.50249  -9491707.09646  22410905.513    22410912.417
       231.000         185.000
  20776253.002   -23510951.50949 -18311216.58647  20776252.360    20776259.681
       241.000         206.000
  22216663.661   -16861226.13249 -13117945.95546  22216663.384    22216670.669
       232.000         187.000
  23588723.966    -2581269.35949  -2002539.44145  23588724.036    23588732.910
       212.000         145.000
 03  4 16  0 31 30.0000000  0  9G18G14G17G21G31G23G15G 3G 9
  22076116.817   -14894410.51549 -11580097.13147  22076116.363    22076122.051
       235.000         189.000
  20266118.478   -23962250.19549 -18146480.71048  20266117.929    20266123.264
       239.000         215.000
  23340466.802   -12090893.53349  -8658509.57345  23340465.902    23340477.141
       209.000         143.000
  23085227.311   -12372613.87349  -9379015.94145  23085227.819    23085234.152
       216.000         152.000
  22690420.169    -9359614.00749  -7280560.50446  22690419.889    22690426.343
       226.000         176.000
  22419199.039   -12157864.94149  -9457749.01446  22419198.762    22419205.792
       233.000         185.000
  20785687.377   -23461373.89249 -18272584.69247  20785686.918    20785693.704
       242.000         206.000
  22223873.843   -16823335.89249 -13088421.13146  22223873.303    22223881.780
       231.000         186.000
  23596454.914    -2540642.62649  -1970882.24645  23596454.335    23596463.580
       212.000         147.000
 03  4 16  0 32  0.0000000  0  9G18G14G17G21G31G23G15G 3G 9
  22085971.104   -14842625.46049 -11539745.15147  22085970.871    22085976.036
       235.000         189.000
  20262955.041   -23978873.80949 -18159434.15548  20262954.698    20262959.967
       239.000         215.000
  23357754.518   -12000047.18249  -8587720.30045  23357753.494    23357762.778
       208.000         141.000
  23102394.874   -12282398.11649  -9308717.99845  23102395.404    23102400.558
       216.000         151.000
  22689219.793    -9365922.47749  -7285476.19346  22689218.771    22689226.665
       226.000         176.000
  22427499.474   -12114246.09949  -9423760.31446  22427498.786    22427505.440
       232.000         186.000
  20795205.017   -23411358.64149 -18233611.78347  20795204.489    20795211.288
       242.000         206.000
  22231170.804   -16784989.47049 -13058540.82646  22231170.791    22231178.516
       231.000         186.000
  23604293.096    -2499454.08349  -1938787.30045  23604294.087    23604300.550
       212.000         146.000
 03  4 16  0 32 30.0000000  0  9G18G14G17G21G31G23G15G 3G 9
  22095843.388   -14790745.86249 -11499319.51647  22095842.766    22095848.821
       235.000         189.000
  20259890.193   -23994979.89549 -18171984.32948  20259889.920    20259895.015
       240.000         215.000
  23375095.188   -11908921.98049  -8516713.73045  23375095.288    23375103.787
       207.000         139.000
  23119614.112   -12191911.33049  -9238208.88445  23119613.565    23119621.278
       216.000         151.000
  22688125.070    -9371675.31849  -7289958.92046  22688124.648    22688132.688
       225.000         176.000
  22435807.544   -12070586.99349  -9389740.23946  22435807.024    22435813.811
       232.000         185.000
  20804806.005   -23360905.11049 -18194297.37047  20804805.493    20804812.388
       241.000         205.000
  22238554.528   -16746187.90849 -13028305.87846  22238554.739    22238561.878
       232.000         186.000
  23612237.890    -2457703.50149  -1906254.36845  23612236.459    23612244.610
       208.000         142.000
 03  4 16  0 33  0.0000000  0  9G18G14G17G21G31G23G15G 3G 9
  22105733.803   -14738771.74349 -11458820.22047  22105733.489    22105739.296
       235.000         189.000
  20256923.678   -24010568.97749 -18184131.65148  20256923.384    20256928.525
       240.000         215.000
  23392488.484   -11817519.77649  -8445491.32645  23392487.028    23392498.022
       205.000         137.000
  23136884.663   -12101154.67449  -9167489.47845  23136883.379    23136892.402
       217.000         151.000
  22687135.949    -9376873.04949  -7294009.09546  22687135.873    22687142.471
       226.000         176.000
  22444123.262   -12026887.60349  -9355688.77446  22444122.158    22444130.028
       230.000         185.000
  20814490.331   -23310013.65049 -18154641.71747  20814489.689    20814496.852
       241.000         206.000
  22246024.502   -16706933.30349 -12997717.90146  22246024.488    22246032.218
       232.000         186.000
  23620289.201    -2415392.12649  -1873284.47945  23620288.704    23620297.142
       208.000         142.000
 03  4 16  0 33 30.0000000  0  9G18G14G17G21G31G23G15G 3G 9
  22115642.122   -14686703.37249 -11418247.49447  22115642.080    22115647.554
       236.000         190.000
  20254055.498   -24025641.37049 -18195876.35848  20254055.269    20254060.358
       240.000         215.000
  23409934.305   -11725841.43349  -8374053.75745  23409933.151    23409942.512
       205.000         134.000
  23154206.243   -12010129.38549  -9096560.73545  23154206.107    23154213.434
       217.000         151.000
  22686252.424    -9381515.95449  -7297626.93746  22686252.294    22686259.346
       226.000         176.000
  22452446.626   -11983147.72849  -9321605.76646  22452446.165    22452453.462
       230.000         185.000
  20824257.980   -23258684.36049 -18114644.89947  20824257.467    20824264.638
       241.000         206.000
  22253580.257   -16667227.63149 -12966778.44346  22253579.677    22253587.801
       232.000         186.000
  23628447.264    -2372520.87649  -1839878.33245  23628448.216    23628455.727
       208.000         142.000
 03  4 16  0 34  0.0000000  0  9G18G14G17G21G31G23G15G 3G 9
  22125568.303   -14634541.16249 -11377601.65147  22125568.298    22125573.948
       235.000         189.000
  20251285.498   -24040197.74949 -18207218.97148  20251284.977    20251290.337
       239.000         215.000
  23427432.466   -11633888.26249  -8302402.00545  23427434.225    23427442.081
       200.000         133.000
  23171578.758   -11918836.54349  -9025423.54145  23171579.259    23171584.976
       213.000         151.000
  22685474.421    -9385604.40149  -7300812.74846  22685473.553    22685480.402
       226.000         175.000
  22460777.655   -11939367.47849  -9287491.31346  22460776.918    22460784.830
       229.000         185.000
  20834108.878   -23206917.55849 -18074307.15847  20834108.227    20834115.414
       241.000         206.000
  22261221.457   -16627072.94649 -12935489.10546  22261221.717    22261228.869
       232.000         186.000
  23636711.762    -2329091.13649  -1806036.97245  23636711.155    23636720.371
       208.000         142.000
 03  4 16  0 34 30.0000000  0  9G18G14G17G21G31G23G15G 3G 9
  22135512.306   -14582285.29749 -11336882.83547  22135512.384    22135517.939
       234.000         189.000
  20248613.546   -24054238.68249 -18218159.94148  20248613.017    20248618.328
       239.000         215.000
  23444982.615   -11541661.73749  -8230537.27244  23444981.647    23444991.522
       200.000         131.000
  23189001.835   -11827277.74149  -8954079.10945  23189002.028    23189009.346
       215.000         151.000
  22684801.802    -9389139.12949  -7303567.08346  22684801.269    22684808.820
       226.000         175.000
  22469116.361   -11895546.96249  -9253345.48246  22469115.705    22469123.845
       228.000         185.000
  20844042.991   -23154713.68849 -18033628.83647  20844042.540    20844049.575
       242.000         206.000
  22268947.803   -16586471.56949 -12903851.68946  22268947.668    22268954.930
       233.000         186.000
  23645082.487    -2285103.72949  -1771761.09545  23645080.971    23645089.659
       204.000         141.000
 03  4 16  0 35  0.0000000  0  9G18G14G17G21G31G23G15G 3G 9
  22145474.100   -14529936.03049 -11296091.22047  22145474.307    22145479.672
       233.000         188.000
  20246039.567   -24067764.96549 -18228699.87848  20246039.089    20246044.230
       239.000         215.000
  23462584.316   -11449162.81549  -8158460.27844  23462584.920    23462595.790
       197.000         129.000
  23206475.251   -11735454.44749  -8882528.57745  23206475.251    23206482.368
       213.000         151.000
  22684234.484    -9392120.69749  -7305890.38746  22684233.702    22684240.246
       226.000         175.000
  22477462.727   -11851686.24749  -9219168.34046  22477461.987    22477469.689
       229.000         184.000
  20854060.173   -23102073.39949 -17992610.44947  20854059.685    20854066.608
       242.000         206.000
  22276758.665   -16545425.70049 -12871867.92346  22276758.821    22276766.255
       232.000         186.000
  23653558.663    -2240560.09349  -1737051.76145  23653558.382    23653566.340
       202.000         139.000
 03  4 16  0 35 30.0000000  0  9G18G14G17G21G31G23G15G 3G 9
  22155453.739   -14477493.03749 -11255226.58447  22155453.109    22155459.503
       234.000         188.000
  20243563.505   -24080776.68049 -18238838.86348  20243563.013    20243568.374
       240.000         215.000
  23480238.049   -11356392.29749  -8086171.65944  23480235.741    23480245.105
       196.000         129.000
  23223998.732   -11643367.43549  -8810772.53745  23223998.510    23224006.057
       212.000         151.000
  22683772.301    -9394549.24649  -7307782.76246  22683772.441    22683778.174
       225.000         176.000
  22485816.890   -11807784.88049  -9184959.51146  22485816.513    22485823.730
       229.000         184.000
  20864160.425   -23048996.58049 -17951251.91747  20864160.113    20864166.794
       241.000         206.000
  22284653.774   -16503936.86549 -12839538.99746  22284653.705    22284661.345
       232.000         185.000
  23662140.764    -2195461.12049  -1701909.71945  23662140.271    23662147.944
       205.000         138.000
 03  4 16  0 36  0.0000000  0  9G18G14G17G21G31G23G15G 3G 9
  22165451.084   -14424956.78949 -11214289.27746  22165451.068    22165456.100
       233.000         186.000
  20241185.212   -24093274.61749 -18248577.49648  20241184.699    20241190.079
       239.000         215.000
  23497943.135   -11263352.09149  -8013672.90844  23497945.291    23497952.725
       195.000         128.000
  23241572.201   -11551018.29849  -8738812.25145  23241572.284    23241579.356
       211.000         151.000
  22683415.215    -9396425.55249  -7309244.80446  22683413.979    22683421.585
       225.000         176.000
  22494178.702   -11763843.14549  -9150719.22446  22494178.534    22494185.998
       230.000         185.000
  20874343.556   -22995483.89449 -17909553.74547  20874343.133    20874350.103
       241.000         205.000
  22292632.618   -16462007.59849 -12806866.86646  22292632.652    22292639.745
       231.000         185.000
  23670828.313    -2149808.31449  -1666336.09645  23670827.507    23670836.685
       203.000         138.000
 03  4 16  0 36 30.0000000  0  9G18G14G17G21G31G23G15G 3G 9
  22175465.988   -14372327.46949 -11173279.44746  22175465.215    22175471.322
       232.000         185.000
  20238904.617   -24105259.05249 -18257916.00048  20238904.178    20238909.244
       240.000         215.000
  23515699.274   -11170043.11449  -7940964.72544  23515699.570    23515708.232
       197.000         128.000
  23259195.415   -11458408.34349  -8666648.72945  23259196.214    23259201.950
       210.000         150.000
  22683163.174    -9397750.04049  -7310276.88546  22683162.663    22683170.443
       225.000         176.000
  22502548.348   -11719860.74649  -9116447.25246  22502548.140    22502555.227
       231.000         185.000
  20884609.580   -22941535.66149 -17867516.19447  20884609.136    20884616.141
       241.000         205.000
  22300694.815   -16419640.04549 -12773853.21446  22300694.311    22300701.891
       231.000         184.000
  23679620.613    -2103602.96049  -1630331.92445  23679620.750    23679628.462
       206.000         140.000
 03  4 16  0 37  0.0000000  0  9G18G14G17G21G31G23G15G 3G 9
  22185498.680   -14319605.11849 -11132197.12346  22185498.189    22185504.472
       232.000         184.000
  20236721.570   -24116730.97249 -18266855.15248  20236721.030    20236726.271
       239.000         215.000
  23533506.293   -11076467.22649  -7868048.53644  23533505.743    23533517.457
       197.000         128.000
  23276868.020   -11365539.02749  -8594283.10345  23276867.960    23276875.364
       213.000         150.000
  22683016.019    -9398523.41349  -7310879.51846  22683016.305    22683022.993
       226.000         176.000
  22510925.791   -11675837.61949  -9082143.55246  22510925.750    22510933.024
       231.000         186.000
  20894958.401   -22887152.54849 -17825139.77247  20894958.032    20894964.950
       241.000         206.000
  22308840.067   -16376836.32149 -12740499.69446  22308839.941    22308847.344
       232.000         184.000
  23688518.162    -2056846.18749  -1593898.09745  23688517.720    23688527.031
       205.000         140.000
 03  4 16  0 37 30.0000000  0  9G18G14G17G21G31G23G15G 3G 9
  22195549.152   -14266790.02249 -11091042.51346  22195548.611    22195554.225
       232.000         184.000
  20234635.893   -24127691.31349 -18275395.66248  20234635.463    20234640.520
       239.000         215.000
  23551363.734   -10982625.79249  -7794925.41644  23551360.422    23551374.334
       199.000         128.000
  23294589.633   -11272411.99149  -8521716.67545  23294589.711    23294596.667
       210.000         148.000
  22682973.593    -9398746.62149  -7311053.43546  22682973.134    22682980.760
       226.000         177.000
  22519310.791   -11631774.20149  -9047808.45046  22519310.466    22519318.061
       231.000         185.000
  20905389.805   -22832335.19249 -17782424.97847  20905389.370    20905396.270
       242.000         205.000
  22317067.819   -16333599.00549 -12706808.30946  22317067.835    22317075.055
       232.000         184.000
  23697520.441    -2009539.67249  -1557035.89945  23697520.518    23697528.442
       206.000         141.000
 03  4 16  0 38  0.0000000  0  9G18G14G17G21G31G23G15G 3G 9
  22205617.188   -14213881.84549 -11049815.38446  22205616.931    22205622.315
       231.000         183.000
  20232647.636   -24138139.78749 -18283537.30948  20232647.420    20232652.429
       240.000         215.000
  23569271.619   -10888519.65249  -7721596.06644  23569271.373    23569281.375
       197.000         126.000
  23312360.161   -11179027.86149  -8448949.90645  23312359.369    23312368.139
       208.000         148.000
  22683035.852    -9398419.52849  -7310798.56646  22683035.761    22683043.075
       226.000         177.000
  22527703.713   -11587669.55349  -9013441.21746  22527702.856    22527710.756
       229.000         185.000
  20915903.948   -22777083.27149 -17739371.55847  20915903.541    20915910.224
       241.000         205.000
  22325377.866   -16289929.73049 -12672780.33746  22325377.932    22325384.951
       230.000         184.000
  23706627.246    -1961683.99749  -1519745.80045  23706628.033    23706634.928
       208.000         143.000
 03  4 16  0 38 30.0000000  0  9G18G14G17G21G31G23G15G 3G 9
  22215702.877   -14160881.44849 -11008516.39046  22215702.789    22215707.735
       232.000         183.000
  20230756.442   -24148078.11349 -18291281.44348  20230756.149    20230761.338
       240.000         216.000
  23587229.647   -10794150.21049  -7648061.54744  23587231.010    23587238.804
       197.000         125.000
  23330179.137   -11085388.81149  -8375984.50045  23330179.213    23330186.852
       209.000         147.000
  22683202.540    -9397543.58749  -7310116.03346  22683201.576    22683209.539
       225.000         177.000
  22536104.281   -11543524.19349  -8979042.24546  22536104.090    22536110.306
       231.000         184.000
  20926500.483   -22721398.09149 -17695980.53647  20926499.796    20926506.639
       240.000         205.000
  22333769.520   -16245831.22349 -12638417.88846  22333769.153    22333776.729
       232.000         184.000
  23715838.062    -1913281.34749  -1482029.45545  23715837.657    23715844.840
       207.000         143.000
 03  4 16  0 39  0.0000000  0  9G18G14G17G21G31G23G15G 3G 9
  22225806.188   -14107788.38949 -10967145.19346  22225806.304    22225811.430
       232.000         183.000
  20228962.345   -24157506.29049 -18298628.06248  20228961.981    20228966.984
       240.000         216.000
  23605237.737   -10699518.37949  -7574322.55844  23605237.564    23605246.968
       199.000         125.000
  23348046.511   -10991495.47749  -8302820.95345  23348046.814    23348054.340
       211.000         148.000
  22683473.631    -9396118.82949  -7309005.85746  22683473.458    22683480.329
       225.000         177.000
  22544512.803   -11499337.34049  -8944610.94846  22544512.339    22544519.461
       230.000         183.000
  20937179.471   -22665279.53949 -17652251.82347  20937178.853    20937185.707
       241.000         204.000
  22342242.627   -16201304.93349 -12603722.10346  22342242.637    22342249.839
       232.000         184.000
  23725152.610    -1864332.47249  -1443887.49745  23725152.689    23725162.069
       209.000         147.000
 03  4 16  0 39 30.0000000  0  9G18G14G17G21G31G23G15G 3G 9
  22235927.092   -14054602.69949 -10925701.80046  22235926.518    22235932.899
       231.000         183.000
  20227265.131   -24166425.33849 -18305577.95248  20227264.916    20227269.718
       240.000         216.000
  23623295.299   -10604626.03949  -7500380.58544  23623296.462    23623303.099
       198.000         124.000
  23365962.006   -10897349.61849  -8229460.65145  23365961.841    23365968.887
       212.000         148.000
  22683849.080    -9394146.26449  -7307468.81346  22683848.498    22683855.601
       226.000         177.000
  22552929.126   -11455109.38649  -8910147.61646  22552928.862    22552936.092
       229.000         183.000
  20947940.772   -22608728.51249 -17608186.11247  20947940.263    20947947.514
       240.000         204.000
  22350796.605   -16156353.86449 -12568695.32446  22350796.076    22350803.536
       232.000         184.000
  23734571.059    -1814839.03349  -1405321.22245  23734571.658    23734578.043
       209.000         147.000
 03  4 16  0 40  0.0000000  0 10G18G14G17G21G31G25G23G15G 3G 9
  22246065.454   -14001325.18849 -10884186.87846  22246064.780    22246071.155
       230.000         184.000
  20225664.697   -24174835.91149 -18312131.63648  20225664.384    20225669.101
       240.000         216.000
  23641402.200   -10509474.76249  -7426236.83644  23641401.288    23641412.318
       197.000         124.000
  23383925.170   -10802952.95849  -8155904.89445  23383924.986    23383932.387
       213.000         148.000
  22684328.471    -9391627.06849  -7305505.82646  22684327.987    22684334.965
       225.000         176.000
                   -483409.57149   -357401.80943
       206.000          74.000
  22561353.187   -11410840.49949  -8875652.40046  22561352.431    22561360.446
       229.000         182.000
  20958784.214   -22551745.85849 -17563784.07347  20958783.426    20958790.786
       241.000         204.000
  22359430.976   -16110980.58149 -12533339.54846  22359430.878    22359438.678
       231.000         184.000
  23744092.638    -1764802.64349  -1366331.83245  23744092.047    23744099.672
       209.000         146.000
 03  4 16  0 40 30.0000000  0 10G18G14G17G21G31G25G23G15G 3G 9
  22256221.500   -13947954.76749 -10842599.56546  22256221.389    22256227.076
       231.000         184.000
  20224160.936   -24182738.13649 -18318289.20448  20224160.355    20224165.544
       239.000         216.000
  23659558.187   -10414064.99048  -7351891.61244  23659558.009    23659568.946
       194.000         120.000
  23401936.030   -10708305.68449  -8082153.84945  23401935.947    23401943.296
       215.000         150.000
  22684911.998    -9388560.84049  -7303116.58146  22684911.503    22684918.978
       226.000         176.000
                   -581871.02449   -434127.31943
       206.000          74.000
  22569785.229   -11366529.65149  -8841124.48146  22569785.053    22569791.945
       228.000         182.000
  20969709.871   -22494330.98349 -17519045.23647  20969709.272    20969716.719
       240.000         204.000
  22368145.401   -16065186.15149 -12497655.59946  22368145.275    22368152.750
       231.000         183.000
  23753717.448    -1714223.79349  -1326919.74045  23753717.574    23753725.097
       209.000         144.000
 03  4 16  0 41  0.0000000  0 10G18G14G17G21G31G25G23G15G 3G 9
  22266395.070   -13894492.57749 -10800940.72946  22266394.906    22266400.681
       232.000         184.000
  20222753.559   -24190133.57149 -18324051.85048  20222752.860    20222758.183
       239.000         215.000
  23677762.891   -10318399.03548  -7277346.80444  23677762.006    23677773.414
       191.000         121.000
  23419994.071   -10613410.23849  -8008209.44345  23419993.436    23420001.740
       216.000         151.000
  22685599.246    -9384949.32949  -7300302.44446  22685598.687    22685605.660
       225.000         176.000
                   -680366.12849   -284183.07443
       205.000          74.000
  22578225.181   -11322177.35549  -8806564.25446  22578225.050    22578232.259
       229.000         181.000
  20980717.500   -22436485.66749 -17473970.99347  20980717.052    20980724.110
       240.000         204.000
  22376939.280   -16018973.89749 -12461646.08246  22376939.147    22376946.644
       230.000         183.000
  23763445.056    -1663104.92649  -1287086.87545  23763444.580    23763452.685
       208.000         144.000
 03  4 16  0 41 30.0000000  0 10G18G14G17G21G31G25G23G15G 3G 9
  22276586.040   -13840938.77149 -10759210.50146  22276585.211    22276591.544
       231.000         183.000
  20221442.339   -24197023.47449 -18329420.58848  20221441.807    20221447.062
       239.000         215.000
  23696016.112   -10222478.48148  -7202603.62544  23696019.037    23696028.524
       193.000         117.000
  23438099.108   -10518268.35049  -7934072.99745  23438098.772    23438106.182
       216.000         151.000
  22686390.001    -9380793.62249  -7297064.25146  22686389.090    22686397.319
       225.000         175.000
                   -778892.46849   -360956.83643
       206.000          74.000
  22586673.019   -11277783.81649  -8771971.90646  22586672.662    22586679.943
       229.000         181.000
  20991806.886   -22378210.54349 -17428561.83347  20991806.195    20991813.634
       240.000         203.000
  22385812.215   -15972346.23849 -12425312.86846  22385812.255    22385819.529
       230.000         182.000
  23773274.886    -1611447.74849  -1246834.52545  23773274.205    23773282.287
       207.000         147.000
 03  4 16  0 42  0.0000000  0 10G18G14G17G21G31G25G23G15G 3G 9
  22286794.480   -13787293.17049 -10717408.75346  22286794.313    22286800.010
       231.000         183.000
  20220227.369   -24203407.96649 -18334395.51748  20220226.928    20220232.015
       240.000         215.000
  23714317.573   -10126304.11348  -7127662.64244  23714318.699    23714325.642
       193.000         118.000
  23456250.730   -10422880.98449  -7859745.27145  23456249.376    23456257.268
       216.000         150.000
  22687284.321    -9376094.07349  -7293402.28946  22687284.000    22687290.429
       226.000         176.000
  24189308.574     -877447.25749   -437752.64844  24189308.100    24189318.865
       206.000         130.000
  22595128.762   -11233348.61749  -8737347.09546  22595128.668    22595135.974
       228.000         182.000
  21002978.041   -22319505.83049 -17382817.92947  21002977.661    21002984.867
       240.000         204.000
  22394763.905   -15925305.02049 -12388657.40546  22394763.668    22394771.531
       230.000         182.000
  23783207.161    -1559253.14849  -1206163.45445  23783206.898    23783215.259
       206.000         147.000
 03  4 16  0 42 30.0000000  0 10G18G14G17G21G31G25G23G15G 3G 9
  22297020.475   -13733555.60249 -10675535.35046  22297019.964    22297025.913
       231.000         184.000
  20219108.446   -24209287.97449 -18338977.32648  20219108.133    20219113.064
       240.000         216.000
  23732666.892   -10029877.74348  -7052525.29144  23732666.147    23732675.446
       192.000         118.000
  23474448.772   -10327249.59949  -7785227.39745  23474448.368    23474455.723
       216.000         150.000
  22688282.075    -9370851.36549  -7289317.08446  22688281.170    22688288.428
       226.000         176.000
  24170549.617     -976027.38849   -514568.14145  24170550.236    24170558.668
       209.000         138.000
  22603592.519   -11188871.38749  -8702689.52446  22603592.409    22603599.351
       229.000         182.000
  21014230.866   -22260372.08049 -17336739.70847  21014230.521    21014237.447
       241.000         204.000
  22403793.814   -15877852.59649 -12351681.51746  22403793.656    22403800.914
       230.000         182.000
  23793241.362    -1506522.63149  -1165074.73345  23793241.312    23793248.825
       207.000         145.000
 03  4 16  0 43  0.0000000  0 10G18G14G17G21G31G25G23G15G 3G 9
  22307263.891   -13679725.92649 -10633590.17446  22307263.543    22307269.582
       231.000         184.000
  20218085.423   -24214663.89649 -18343166.33248  20218085.001    20218090.072
       240.000         216.000
  23751064.372    -9933200.07748  -6977192.17444  23751062.881    23751076.294
       191.000         115.000
  23492693.332   -10231375.15149  -7710520.12245  23492693.617    23492700.142
       215.000         150.000
  22689383.041    -9365066.10749  -7284809.10746  22689381.978    22689388.997
       226.000         176.000
  24151786.461    -1074630.22249   -591401.31245  24151786.646    24151796.242
       211.000         140.000
  22612064.344   -11144351.77649  -8667998.92946  22612063.524    22612071.221
       228.000         181.000
  21025565.286   -22200809.70449 -17290327.48247  21025565.104    21025571.900
       241.000         204.000
  22412901.590   -15829991.14849 -12314386.90746  22412901.681    22412909.299
       231.000         182.000
  23803377.468    -1453257.72949  -1123569.61445  23803377.025    23803385.439
       210.000         144.000
 03  4 16  0 43 30.0000000  0 10G18G14G17G21G31G25G23G15G 3G 9
  22317524.790   -13625804.43049 -10591573.45446  22317524.809    22317530.870
       231.000         183.000
  20217158.179   -24219536.59849 -18346963.21848  20217157.773    20217162.891
       240.000         216.000
  23769509.095    -9836272.91548  -6901664.59444  23769505.903    23769522.488
       188.000         112.000
  23510983.620   -10135259.23249  -7635624.67445  23510981.886    23510990.520
       215.000         150.000
  22690586.940    -9358739.51849  -7279879.32146  22690586.304    22690593.057
       226.000         176.000
  24133019.305    -1173253.53049   -668250.43145  24133019.188    24133028.080
       211.000         142.000
  22620544.269   -11099789.75549  -8633275.29746  22620544.413    22620550.844
       229.000         181.000
  21036981.123   -22140819.29449 -17243581.72747  21036980.601    21036988.070
       240.000         204.000
  22422086.744   -15781723.15249 -12276775.50246  22422087.082    22422094.135
       230.000         182.000
  23813615.068    -1399459.91649  -1081649.29745  23813615.867    23813622.503
       211.000         147.000
 03  4 16  0 44  0.0000000  0 10G18G14G17G21G31G25G23G15G 3G 9
  22327803.223   -13571790.79649 -10549484.93246  22327802.594    22327809.315
       231.000         183.000
  20216326.492   -24223907.02849 -18350368.74548  20216326.239    20216331.088
       240.000         216.000
  23788000.860    -9739097.16648  -6825943.33544  23788000.550    23788010.184
       192.000         111.000
  23529319.523   -10038903.09549  -7560542.04145  23529318.991    23529326.596
       215.000         150.000
  22691893.786    -9351872.09449  -7274528.08746  22691893.249    22691900.264
       226.000         176.000
  24114248.694    -1271894.15549   -745113.05345  24114248.673    24114256.017
       211.000         144.000
  22629032.467   -11055184.65249  -8598518.09246  22629032.377    22629039.003
       229.000         181.000
  21048478.359   -22080401.09149 -17196502.63347  21048477.642    21048484.906
       239.000         203.000
  22431348.792   -15733050.77849 -12238849.01246  22431348.600    22431356.483
       229.000         181.000
  23823953.631    -1345130.34649  -1039314.59045  23823953.400    23823961.757
       210.000         147.000
 03  4 16  0 44 30.0000000  0 10G18G14G17G21G31G25G23G15G 3G 9
  22338099.275   -13517684.60949 -10507324.30746  22338099.056    22338104.956
       229.000         183.000
  20215590.380   -24227775.47349 -18353383.10448  20215590.008    20215595.008
       240.000         216.000
  23806539.993    -9641673.68548  -6750029.02944                  23806535.908
       184.000         107.000
  23547701.108    -9942307.86749  -7485273.11745  23547700.046    23547708.161
       214.000         150.000
  22693303.428    -9344464.31649  -7268755.80846  22693303.323    22693309.881
       225.000         177.000
  24095475.226    -1370549.15449   -821986.85345  24095474.200    24095482.933
       212.000         144.000
  22637528.867   -11010535.86049  -8563726.85046  22637528.375    22637535.910
       227.000         180.000
  21060056.867   -22019555.55549 -17149090.55347  21060056.047    21060063.549
       238.000         202.000
  22440687.332   -15683975.69349 -12200608.72446  22440686.986    22440694.546
       229.000         180.000
  23834393.285    -1290270.19449   -996566.44445  23834393.912    23834401.569
       210.000         146.000
 03  4 16  0 45  0.0000000  0 10G18G14G17G21G31G25G23G15G 3G 9
  22348412.715   -13463486.91949 -10465092.37446  22348412.816    22348418.220
       231.000         182.000
  20214949.418   -24231143.61649 -18356007.61248  20214949.172    20214954.134
       240.000         216.000
  23825125.524    -9544005.15448  -6673923.73744                  23825122.501
       180.000         105.000
  23566127.656    -9845475.71449  -7409819.56445  23566127.689    23566134.447
       215.000         150.000
  22694815.483    -9336518.03349  -7262563.92046  22694815.176    22694821.914
       225.000         176.000
  24076699.121    -1469216.51249   -898870.32045  24076698.918    24076707.681
       211.000         144.000
  22646033.315   -10965844.11249  -8528902.14246  22646032.558    22646040.702
       228.000         180.000
  21071716.399   -21958284.20949 -17101346.67747  21071715.605    21071722.933
       239.000         202.000
  22450102.028   -15634501.21449 -12162057.21946  22450101.998    22450109.764
       229.000         181.000
  23844933.289    -1234881.97549   -953406.81645  23844932.996    23844941.320
       208.000         144.000
 03  4 16  0 45 30.0000000  0 10G18G14G17G21G31G25G23G15G 3G 9
  22358743.786   -13409197.09349 -10422788.64246  22358743.124    22358749.888
       230.000         182.000
  20214403.592   -24234011.98549 -18358242.69248  20214403.280    20214408.227
       240.000         216.000
  23843757.663    -9446092.19248  -6597627.98944                  23843759.369
       184.000         105.000
  23584599.007    -9748407.69849  -7334182.20945  23584598.053    23584606.252
       213.000         148.000
  22696429.934    -9328033.70849  -7255952.76646  22696429.889    22696436.872
       225.000         176.000
  24057921.332    -1567893.28849   -975761.11745  24057920.818    24057930.314
       212.000         145.000
  22654546.232   -10921108.68649  -8494043.39346  22654546.034    22654552.941
       228.000         180.000
  21083456.979   -21896587.06649 -17053271.01147  21083456.737    21083463.652
       240.000         202.000
  22459592.401   -15584629.45149 -12123196.15646  22459592.258    22459599.760
       230.000         181.000
  23855573.416    -1178966.90649   -909836.64645  23855573.590    23855581.941
       208.000         143.000
 03  4 16  0 46  0.0000000  0 10G18G14G17G21G31G25G23G15G 3G 9
  22369092.259   -13354815.48249 -10380413.39646  22369091.810    22369098.052
       229.000         182.000
  20213952.625   -24236382.00349 -18360089.43548  20213952.212    20213957.089
       240.000         216.000
                  -9347937.239 8    234792.558 1
       183.000
  23603114.967    -9651105.84349  -7258362.67045  23603114.524    23603122.915
       213.000         147.000
  22698146.582    -9319013.06749  -7248923.71346  22698146.050    22698152.859
       225.000         176.000
  24039142.233    -1666577.52349  -1052657.71445  24039140.979    24039150.652
       214.000         147.000
  22663067.331   -10876330.05449  -8459150.96646  22663066.885    22663073.829
       228.000         180.000
  21095278.349   -21834465.58649 -17004864.69147  21095277.823    21095284.798
       239.000         202.000
  22469157.770   -15534363.50449 -12084027.92946  22469157.976    22469164.758
       230.000         181.000
  23866313.625    -1122527.33349   -865857.78545  23866313.475    23866322.061
       206.000         144.000
 03  4 16  0 46 30.0000000  0 10G18G14G17G21G31G25G23G15G 3G 9
  22379458.066   -13300342.33449 -10337966.80846  22379458.363    22379463.877
       230.000         181.000
  20213596.300   -24238254.54849 -18361548.53548  20213595.759    20213600.730
       240.000         216.000
                  -9249541.25748  -2665844.07643
       180.000          74.000
  23621675.162    -9553571.47749  -7182361.94345  23621675.035    23621681.618
       214.000         147.000
  22699965.044    -9309456.88849  -7241477.36646  22699963.902    22699971.971
       224.000         176.000
  24020362.417    -1765266.67249  -1129558.12045  24020361.410    24020370.504
       216.000         148.000
  22671596.735   -10831507.81149  -8424224.57546  22671596.161    22671602.945
       227.000         180.000
  21107180.327   -21771920.34849 -16956128.16947  21107179.793    21107186.830
       238.000         201.000
  22478797.760   -15483705.43449 -12044554.15246  22478797.232    22478805.383
       230.000         181.000
  23877153.093    -1065564.80249   -821471.42145  23877152.831    23877159.705
       207.000         143.000
 03  4 16  0 47  0.0000000  0 10G18G14G17G21G31G25G23G15G 3G 9
  22389841.409   -13245777.48649 -10295448.77746  22389840.476    22389847.868
       229.000         181.000
  20213334.452   -24239630.39249 -18362620.60548  20213333.830    20213338.893
       239.000         216.000
                  -9150905.51258  -2588968.01643
       180.000          74.000
  23640279.438    -9455805.84049  -7106181.00645  23640278.296    23640287.786
       212.000         145.000
  22701885.204    -9299365.90449  -7233614.27846  22701884.642    22701892.760
       225.000         176.000
  24001582.137    -1863957.45849  -1206459.80445  24001580.701    24001590.228
       214.000         150.000
  22680134.600   -10786641.41549  -8389263.78146  22680134.370    22680141.012
       228.000         180.000
  21119162.803   -21708951.88649 -16907061.86547  21119162.258    21119169.495
       238.000         200.000
  22488511.905   -15432657.26549 -12004776.40046  22488511.947    22488519.290
       229.000         181.000
  23888092.004    -1008080.64649   -776678.59645  23888092.138    23888101.010
       207.000         144.000
 03  4 16  0 47 30.0000000  0 10G18G14G17G21G31G25G23G15G 3G 9
  22400242.103   -13191121.65049 -10252859.84846  22400242.405    22400247.613
       230.000         181.000
  20213166.756   -24240511.32549 -18363307.03048  20213166.276    20213171.272
       240.000         216.000
                  -9052032.43648  -2511907.00143
       187.000          74.000
  23658927.241    -9357811.39749  -7029821.77145  23658926.976    23658935.234
       213.000         144.000
  22703906.861    -9288742.06949  -7225335.97246  22703906.083    22703914.151
       225.000         176.000
  23982801.723    -1962648.00549  -1283361.32145  23982800.623    23982809.785
       213.000         150.000
  22688680.814   -10741731.43449  -8354269.01346  22688680.523    22688687.803
       229.000         181.000
  21131225.557   -21645561.67949 -16857666.92947  21131225.187    21131232.396
       239.000         200.000
  22498299.650   -15381222.35549 -11964697.28546  22498299.481    22498307.202
       229.000         180.000
  23899129.810     -950077.32649   -731481.24745  23899129.207    23899138.025
       207.000         145.000
 03  4 16  0 48  0.0000000  0 10G18G14G17G21G31G25G23G15G 3G 9
  22410660.321   -13136374.10349 -10210199.45246  22410660.373    22410665.751
       230.000         181.000
  20213093.268   -24240897.62449 -18363608.02748  20213092.977    20213097.911
       240.000         216.000
                  -8952923.12248  -2679814.04543
       178.000          74.000
  23677618.419    -9259588.86549  -6953284.82645  23677616.607    23677627.801
       212.000         145.000
  22706029.900    -9277585.82249  -7216642.80146  22706030.052    22706036.650
       225.000         176.000
  23964021.761    -2061335.09449  -1360260.14145  23964019.884    23964030.511
       212.000         151.000
  22697235.369   -10696777.13449  -8319239.70746  22697234.412    22697242.422
       230.000         181.000
  21143368.620   -21581749.68649 -16807943.33447  21143368.101    21143375.571
       238.000         201.000
  22508160.675   -15329402.58449 -11924318.27946  22508160.615    22508168.142
       230.000         180.000
  23910266.089     -891555.92149   -685880.18545  23910265.448    23910275.581
       207.000         142.000
 03  4 16  0 48 30.0000000  0 10G18G14G17G21G31G25G23G15G 3G 9
  22421095.958   -13081534.88649 -10167467.61246  22421096.418    22421100.986
       231.000         180.000
  20213113.691   -24240790.29549 -18363524.38448  20213113.363    20213118.140
       241.000         216.000
                  -8853578.98648  -2602444.98843
       183.000          74.000
  23696352.766    -9161139.52049  -6876571.14445  23696352.107    23696361.199
       212.000         144.000
  22708253.892    -9265898.35549  -7207535.68146  22708253.523    22708260.482
       224.000         175.000
  23945242.988    -2160015.87049  -1437154.06345  23945242.024    23945250.873
       213.000         151.000
  22705798.387   -10651778.10449  -8284175.55446  22705797.923    22705804.958
       228.000         181.000
  21155591.722   -21517516.73349 -16757891.71647  21155590.999    21155598.840
       238.000         201.000
  22518094.437   -15277200.53549 -11883641.39046  22518093.968    22518101.805
       230.000         180.000
  23921500.723     -832518.23249   -639876.80445  23921499.990    23921508.432
       207.000         140.000
 03  4 16  0 49  0.0000000  0 10G18G14G17G21G31G25G23G15G 3G 9
  22431549.053   -13026604.12349 -10124664.43846  22431548.982    22431554.194
       231.000         179.000
  20213227.815   -24240190.60249 -18363057.08848  20213227.434    20213232.362
       240.000         216.000
                  -8754001.59148  -2524894.15843
       175.000          74.000
  23715130.003    -9062465.26649  -6799682.20645  23715129.697    23715137.679
       210.000         143.000
  22710578.783    -9253680.83749  -7198015.55046  22710577.934    22710585.945
       226.000         175.000
  23926466.041    -2258688.22249  -1514041.42145  23926465.033    23926474.399
       212.000         151.000
  22714369.919   -10606734.17249  -8249076.42046  22714369.139    22714376.074
       229.000         181.000
  21167894.755   -21452863.94649 -16707512.95847  21167894.482    21167901.468
       238.000         201.000
  22528100.518   -15224618.74449 -11842668.59046  22528100.800    22528107.940
       229.000         180.000
  23932833.064     -772966.15649   -593472.57545  23932833.314    23932841.551
       208.000         140.000
 03  4 16  0 49 30.0000000  0 10G18G14G17G21G31G25G23G15G 3G 9
  22442019.549   -12971581.83149 -10081789.95446  22442019.233    22442024.005
       229.000         178.000
  20213435.430   -24239099.49149 -18362206.86448  20213435.070    20213440.090
       240.000         216.000
                  -8654192.33748  -2695056.37043
       177.000          74.000
  23733949.671    -8963567.81549  -6722619.33845  23733949.289    23733955.757
       209.000         142.000
  22713004.402    -9240934.58549  -7188083.41346  22713004.094    22713011.396
       227.000         176.000
  23907691.291    -2357349.25449  -1590919.96445  23907690.620    23907699.313
       213.000         151.000
  22722950.104   -10561645.26249  -8213942.22146  22722950.069    22722957.042
       229.000         181.000
  21180277.587   -21387792.07649 -16656807.63147  21180277.049    21180284.687
       238.000         201.000
  22538178.267   -15171659.94349 -11801402.02346  22538177.994    22538185.623
       228.000         179.000
  23944263.023     -712901.45749   -546668.94445  23944263.441    23944270.659
       208.000         141.000
 03  4 16  0 50  0.0000000  0 10G18G14G17G21G31G25G23G15G 3G 9
  22452507.362   -12916467.69649 -10038843.90146  22452506.573    22452511.963
       229.000         178.000
  20213736.411   -24237517.75749 -18360974.33748  20213736.032    20213741.091
       240.000         216.000
                  -8554152.23348  -2617152.53943
       173.000          74.000
  23752811.568    -8864448.18149  -6645383.36445  23752810.551    23752817.686
       208.000         141.000
  22715530.657    -9227660.29249  -7177739.81446  22715530.505    22715537.249
       227.000         176.000
  23888919.305    -2455996.04949  -1667787.42545  23888917.826    23888928.308
       213.000         152.000
  22731538.960   -10516510.64649  -8178772.40646  22731537.834    22731545.360
       228.000         182.000
  21192740.108   -21322301.58549 -16605776.10647  21192739.632    21192746.767
       238.000         201.000
  22548327.306   -15118325.94249 -11759843.08946  22548327.498    22548334.391
       228.000         179.000
  23955790.301     -652325.83249   -499467.18745  23955790.371    23955797.421
       204.000         141.000
 03  4 16  0 50 30.0000000  0 10G18G14G17G21G31G25G23G15G 3G 9
  22463012.581   -12861262.23649  -9995826.68946  22463011.870    22463017.787
       229.000         178.000
  20214130.384   -24235447.30149 -18359360.99648  20214129.959    20214135.161
       240.000         216.000
                  -8453883.45658  -2539070.62443
       170.000          74.000
  23771715.380    -8765108.51949  -6567975.91545  23771715.943    23771723.031
       206.000         138.000
  22718156.899    -9213859.83749  -7166986.21046  22718156.328    22718163.510
       226.000         177.000
  23870150.302    -2554626.51949  -1744642.15445  23870149.619    23870159.117
       213.000         152.000
  22740136.438   -10471330.77149  -8143567.33646  22740136.001    22740144.120
       228.000         181.000
  21205281.892   -21256394.14749 -16554419.69547  21205281.569    21205288.750
       238.000         200.000
  22558547.164   -15064620.05649 -11717994.37546  22558546.943    22558554.998
       227.000         178.000
  23967414.048     -591241.53149   -451869.06945  23967414.584    23967422.360
       206.000         141.000
 03  4 16  0 51  0.0000000  0 10G18G14G17G21G31G25G23G15G 3G 9
  22473535.175   -12805965.25749  -9952738.14446  22473534.706    22473540.264
       230.000         177.000
  20214617.211   -24232888.88849 -18357367.43148  20214616.762    20214621.838
       240.000         216.000
                  -8353387.75448  -2710345.18343
       176.000          74.000
  23790660.941    -8665550.06349  -6490397.98745  23790660.159    23790669.271
       204.000         135.000
  22720882.987    -9199534.29749  -7155823.46846  22720882.760    22720889.623
       225.000         176.000
  23851385.057    -2653237.74149  -1821481.92845  23851384.470    23851393.608
       214.000         152.000
  22748742.666   -10426105.01549  -8108326.50146  22748742.263    22748750.133
       228.000         181.000
  21217902.917   -21190070.29449 -16502738.80447  21217902.292    21217909.747
       238.000         200.000
  22568837.300   -15010544.41049 -11675857.53946  22568836.510    22568845.154
       226.000         178.000
  23979134.559     -529650.18149   -403875.87545  23979134.101    23979142.916
       206.000         142.000
 03  4 16  0 51 30.0000000  0 10G18G14G17G21G31G25G23G15G 3G 9
  22484075.330   -12750576.45749  -9909578.07146  22484075.588    22484080.470
       228.000         177.000
  20215196.717   -24229843.27649 -18354994.20248  20215196.381    20215201.242
       240.000         216.000
                  -8252666.04148  -2631737.50843
       179.000          74.000
  23809647.563    -8565774.40949  -6412650.80545  23809647.724    23809656.939
       201.000         133.000
  22723708.623    -9184684.59949  -7144252.27346  22723707.944    22723715.362
       225.000         175.000
  23832624.154    -2751826.52449  -1898304.20145  23832623.818    23832632.608
       214.000         152.000
  22757357.643   -10380832.85749  -8073049.51746  22757357.489    22757364.556
       228.000         179.000
  21230603.064   -21123330.53149 -16450733.82947  21230602.460    21230610.142
       237.000         199.000
  22579197.453   -14956101.49649 -11633434.53146  22579197.697    22579205.430
       228.000         178.000
  23990951.131     -467553.70349   -355489.06545  23990950.660    23990958.991
       208.000         142.000
 03  4 16  0 52  0.0000000  0 10G18G14G17G21G31G25G23G15G 3G 9
  22494632.854   -12695096.01449  -9866346.56646  22494632.390    22494639.194
       228.000         176.000
  20215868.736   -24226311.94349 -18352242.49648  20215868.426    20215873.373
       240.000         217.000
                  -8151720.56548  -2552944.00343
       176.000          74.000
  23828675.228    -8465783.23849  -6334735.70044  23828674.982    23828682.392
       200.000         131.000
  22726633.766    -9169312.33649  -7132273.90146  22726633.679    22726640.615
       224.000         175.000
  23813868.113    -2850390.74449  -1975107.33545  23813867.752    23813876.127
       215.000         152.000
  22765981.412   -10335514.30649  -8037736.37846  22765980.030    22765987.474
       226.000         178.000
  21243382.118   -21056175.99349 -16398405.64947  21243381.563    21243389.012
       237.000         199.000
  22589627.054   -14901294.07149 -11590727.48246  22589627.177    22589635.058
       229.000         179.000
  24002863.550     -404954.11849   -306710.15945  24002863.124    24002871.932
       208.000         140.000
 03  4 16  0 52 30.0000000  0 10G18G14G17G21G31G25G23G15G 3G 9
  22505207.922   -12639523.59749  -9823043.40346  22505206.879    22505214.185
       228.000         176.000
  20216632.999   -24222295.75249 -18349112.99448  20216632.716    20216637.814
       241.000         217.000
                  -8050552.19058  -2725630.64143
       171.000          74.000
  23847743.575    -8365578.00549  -6256653.81444  23847743.161    23847750.321
       200.000         128.000
  22729658.144    -9153418.56949  -7119889.14646  22729657.506    22729665.132
       224.000         175.000
  23795117.083    -2948927.49849  -2051889.09045  23795116.514    23795125.005
       215.000         153.000
  22774614.160   -10290148.77449  -8002386.63546  22774613.753    22774620.999
       227.000         177.000
  21256240.031   -20988607.36749 -16345754.80647  21256239.781    21256246.997
       238.000         199.000
  22600125.663   -14846124.56349 -11547738.28746  22600125.399    22600133.364
       229.000         180.000
  24014871.394     -341852.92149   -257540.41045  24014870.711    24014879.688
       208.000         140.000
 03  4 16  0 53  0.0000000  0 10G18G14G17G21G31G25G23G15G 3G 9
  22515800.575   -12583859.14749  -9779668.52846  22515799.866    22515806.693
       229.000         176.000
  20217489.335   -24217795.79349 -18345606.53148  20217488.954    20217494.068
       241.000         217.000
                  -7949162.27257  -2646503.11143
       164.000          74.000
  23866852.555    -8265160.06449  -6178406.13144  23866853.491    23866859.965
       199.000         126.000
  22732781.621    -9137004.52749  -7107098.98746  22732781.163    22732788.722
       225.000         176.000
  23776371.774    -3047433.78949  -2128647.11445  23776371.600    23776380.435
       215.000         155.000
  22783255.963   -10244735.96649  -7967000.04846  22783255.121    22783262.091
       227.000         177.000
  21269176.600   -20920625.46049 -16292781.92347  21269176.066    21269183.405
       237.000         199.000
  22610692.547   -14790595.43849 -11504468.87546  22610692.663    22610700.832
       228.000         180.000
  24026974.201     -278251.86749   -207981.16145  24026974.022    24026981.254
       206.000         137.000
 03  4 16  0 53 30.0000000  0 10G18G14G17G21G31G25G23G15G 3G 9
  22526410.671   -12528103.31549  -9736222.44046  22526410.331    22526416.126
       231.000         176.000
  20218437.406   -24212813.72649 -18341724.39148  20218437.107    20218441.999
       240.000         217.000
                  -7847553.13457  -2567179.87843
       159.000          74.000
  23886001.628    -8164531.43249  -6099994.28944  23886001.835    23886007.232
       198.000         124.000
  22736003.776    -9120072.00349  -7093904.80646  22736003.422    22736011.090
       225.000         176.000
  23757632.783    -3145907.38749  -2205379.67945  23757632.323    23757641.252
       217.000         157.000
  22791906.667   -10199276.05749  -7931576.76246  22791906.711    22791913.172
       226.000         177.000
  21282191.514   -20852231.64449 -16239488.07147  21282190.836    21282198.220
       237.000         199.000
  22621327.248   -14734709.72849 -11460921.60246  22621327.381    22621334.884
       228.000         180.000
  24039171.655     -214153.51549   -158034.40445  24039170.898    24039180.707
       202.000         134.000
 03  4 16  0 54  0.0000000  0  9G18G14G21G31G25G23G15G 3G 9
  22537038.493   -12472254.23649  -9692703.71246  22537038.453    22537043.867
       230.000         176.000
  20219477.239   -24207349.42149 -18337466.46848  20219476.518    20219481.536
       240.000         217.000
  23905190.747    -8063692.33249  -6021418.48644  23905189.452    23905198.379
       197.000         123.000
  22739324.723    -9102620.95549  -7080306.59546  22739324.044    22739331.579
       226.000         176.000
  23738900.860    -3244344.39449  -2282083.71145  23738900.421    23738909.650
       218.000         159.000
  22800566.713   -10153767.19549  -7896115.33546  22800566.097    22800574.034
       226.000         177.000
  21295284.917   -20783425.53849 -16185872.95647  21295284.421    21295291.978
       237.000         198.000
  22632029.613   -14678468.55749 -11417097.35246  22632029.612    22632037.401
       228.000         179.000
  24051463.717     -149558.27049   -107700.43544  24051462.089    24051471.213
       202.000         129.000
 03  4 16  0 54 30.0000000  0  9G18G14G21G31G25G23G15G 3G 9
  22547683.775   -12416313.30949  -9649113.38646  22547683.394    22547688.630
       229.000         176.000
  20220608.312   -24201405.23349 -18332834.61048  20220607.755    20220612.767
       240.000         216.000
  23924419.423    -7962645.63849  -5942680.90344  23924418.949    23924428.826
       199.000         122.000
  22742743.738    -9084654.01149  -7066306.38346  22742742.967    22742750.126
       225.000         175.000
  23720176.194    -3342743.21949  -2358757.99945  23720175.624    23720184.303
       219.000         160.000
  22809235.917   -10108210.47549  -7860616.61646  22809235.615    22809242.897
       226.000         177.000
  21308456.315   -20714209.39749 -16131938.34847  21308455.713    21308463.048
       236.000         197.000
  22642798.852   -14621876.01349 -11372999.29646  22642799.116    22642806.647
       227.000         178.000
  24063849.725      -84469.46049    -56981.90944  24063850.593    24063858.911
       202.000         129.000
 03  4 16  0 55  0.0000000  0  9G18G14G21G31G25G23G15G 3G 9
  22558346.223   -12360281.69449  -9605452.40446  22558346.052    22558350.963
       229.000         176.000
  20221830.263   -24194983.71249 -18327830.81248  20221829.918    20221835.037
       240.000         217.000
  23943686.928    -7861394.25249  -5863783.81544  23943685.441    23943693.141
       198.000         119.000
  22746260.284    -9066173.78549  -7051906.21146  22746259.592    22746266.869
       224.000         174.000
  23701458.891    -3441102.19249  -2435401.24145  23701457.992    23701467.203
       217.000         159.000
  22817914.068   -10062606.70549  -7825081.23246  22817914.007    22817920.874
       227.000         177.000
  21321705.363   -20644585.36949 -16077685.89847  21321704.651    21321711.983
       237.000         197.000
  22653634.262   -14564935.77149 -11328630.31646  22653633.856    22653642.250
       226.000         178.000
  24076329.157      -18890.28249     -5881.29744  24076330.024    24076336.849
       202.000         130.000
 03  4 16  0 55 30.0000000  0  9G18G14G21G31G25G23G15G 3G 9
  22569026.365   -12304157.43549  -9561719.24746  22569026.098    22569031.961
       230.000         177.000
  20223143.223   -24188084.18049 -18322454.53848  20223143.009    20223147.785
       241.000         217.000
  23962993.587    -7759937.76849  -5784726.91644  23962990.907    23962999.084
       197.000         117.000
  22749874.549    -9047179.96249  -7037105.83446  22749874.789    22749881.111
       225.000         173.000
  23682749.816    -3539416.91849  -2512010.00445  23682748.904    23682758.137
       215.000         158.000
  22826601.552   -10016953.79849  -7789507.55546  22826601.842    22826608.249
       227.000         176.000
  21335032.199   -20574552.78249 -16023115.08447  21335031.895    21335038.750
       238.000         197.000
  22664535.728   -14507648.49449 -11283990.90746  22664535.569    22664542.860
       226.000         177.000
  24088901.672       47178.92349     45601.21044  24088903.379    24088911.625
       202.000         128.000
 03  4 16  0 56  0.0000000  0  9G18G14G21G31G25G23G15G 3G 9
  22579723.984   -12247941.24149  -9517914.44246  22579724.192    22579729.639
       230.000         177.000
  20224546.703   -24180708.84849 -18316707.51348  20224546.158    20224551.223
       240.000         217.000
  23982338.633    -7658278.72848  -5705512.16444  23982338.223    23982348.892
       192.000         116.000
  22753586.270    -9027674.69649  -7021906.93446  22753586.130    22753592.469
       224.000         173.000
  23664049.726    -3637685.24149  -2588582.62645  23664049.799    23664058.682
       217.000         159.000
  22835298.277    -9971252.12449  -7753895.87946  22835297.323    22835305.226
       226.000         175.000
  21348436.530   -20504113.14849 -15968227.09347  21348436.245    21348443.135
       239.000         198.000
  22675502.502   -14450017.90049 -11239083.98546  22675502.067    22675510.234
       226.000         177.000
  24101567.043      113735.53149     97463.51044  24101565.144    24101575.038
       200.000         129.000
 03  4 16  0 56 30.0000000  0  9G18G14G21G31G25G23G15G 3G 9
  22590439.122   -12191633.19649  -9474038.07446  22590438.625    22590444.363
       228.000         177.000
  20226040.419   -24172858.95449 -18310590.69848  20226039.964    20226044.819
       240.000         217.000
  24001721.729    -7556418.85848  -5626140.91744  24001721.154    24001729.249
       188.000         114.000
  22757395.132    -9007659.58649  -7006310.75446  22757395.233    22757401.671
       226.000         174.000
  23645359.151    -3735905.13649  -2665117.48145  23645359.029    23645367.341
       220.000         161.000
  22844004.446    -9925501.41449  -7718245.98846  22844003.595    22844011.871
       226.000         175.000
  21361918.095   -20433267.58549 -15913022.78147  21361917.462    21361924.664
       238.000         198.000
  22686533.968   -14392046.74449 -11193911.67546  22686533.710    22686541.475
       226.000         176.000
  24114324.515      180777.25049    149703.75544  24114324.970    24114331.342
       199.000         130.000
 03  4 16  0 57  0.0000000  0  9G18G14G21G31G25G23G15G 3G 9
  22601171.748   -12135232.76049  -9430089.72446  22601171.614    22601176.671
       228.000         178.000
  20227624.313   -24164535.48249 -18304104.86748  20227623.947    20227628.905
       241.000         217.000
  24021143.034    -7454359.40748  -5546614.18044  24021140.780    24021147.473
       192.000         112.000
  22761300.748    -8987135.84649  -6990318.23146  22761300.360    22761307.363
       226.000         175.000
  23626678.522    -3834073.02349  -2741611.82046  23626678.661    23626687.149
       219.000         163.000
  22852720.017    -9879701.12249  -7682557.47246  22852720.271    22852725.972
       227.000         174.000
  21375476.632   -20362016.89349 -15857502.79247  21375476.146    21375483.371
       237.000         198.000
  22697629.857   -14333737.11949 -11148475.65146  22697629.688    22697637.063
       227.000         176.000
  24127174.120      248302.30349    202320.66944  24127174.315    24127182.255
       199.000         127.000
 03  4 16  0 57 30.0000000  0  9G18G14G21G31G25G23G15G 3G 9
  22611921.791   -12078740.47049  -9386069.79646  22611920.883    22611927.528
       227.000         179.000
  20229298.071   -24155740.15549 -18297251.34948  20229297.569    20229302.725
       241.000         217.000
  24040601.896    -7352102.46348  -5466933.54444  24040602.767    24040612.319
       186.000         110.000
  22765302.892    -8966105.27849  -6973930.79746  22765302.229    22765309.429
       225.000         175.000
  23608008.054    -3932186.43349  -2818063.71046  23608007.377    23608017.094
       218.000         163.000
  22861445.039    -9833851.21749  -7646830.28946  22861444.172    22861451.481
       225.000         174.000
  21389112.047   -20290362.49149 -15801668.22947  21389111.336    21389118.686
       237.000         198.000
  22708789.677   -14275092.33049 -11102778.44846  22708789.792    22708797.466
       227.000         177.000
  24140115.292      316308.46649    255312.42144  24140115.036    24140121.872
       199.000         127.000
 03  4 16  0 58  0.0000000  0  9G18G14G21G31G25G23G15G 3G 9
  22622689.531   -12022155.42049  -9341977.58146  22622688.828    22622696.736
       227.000         178.000
  20231061.355   -24146474.03549 -18290030.98148  20231060.978    20231065.971
       241.000         218.000
  24060098.197    -7249649.37748  -5387100.09544                  24060094.763
       187.000         108.000
  22769401.129    -8944569.09249  -6957149.36946  22769400.782    22769408.478
       226.000         175.000
  23589348.448    -4030242.40649  -2894470.84845  23589347.155    23589356.605
       221.000         162.000
  22870179.472    -9787950.84249  -7611063.79846  22870179.674    22870185.903
       227.000         174.000
  21402824.102   -20218305.11649 -15745519.66347  21402823.454    21402830.868
       237.000         197.000
  22720012.887   -14216114.54449 -11056821.77246  22720013.272    22720020.581
       228.000         177.000
  24153147.613      384793.89449    308677.62344  24153147.794    24153155.061
       196.000         130.000
 03  4 16  0 58 30.0000000  0  9G18G14G21G31G25G23G15G 3G 9
  22633474.838   -11965477.98149  -9297813.37246  22633473.742    22633480.571
       227.000         177.000
  20232914.002   -24136738.19149 -18282444.58448  20232913.695    20232918.625
       241.000         218.000
  24079631.490    -7147001.75648  -5307115.03244  24079632.447    24079640.675
       192.000         109.000
  22773595.175    -8922528.90449  -6939975.20646  22773594.399    22773601.299
       225.000         175.000
  23570700.356    -4128238.29349  -2970831.16645  23570699.824    23570708.322
       218.000         162.000
  22878923.661    -9741999.79749  -7575257.81046  22878923.181    22878929.949
       227.000         175.000
  21416612.594   -20145845.87849 -15689057.94747  21416611.988    21416619.497
       237.000         197.000
  22731299.022   -14156806.25549 -11010607.55646  22731298.689    22731306.197
       228.000         177.000
  24166270.347      453756.37649    362414.58644  24166268.870    24166280.541
       196.000         131.000
 03  4 16  0 59  0.0000000  0  9G18G14G21G31G25G23G15G 3G 9
  22644277.893   -11908708.04849  -9253577.11046  22644278.562    22644284.169
       228.000         178.000
  20234855.722   -24126534.23849 -18274493.42648  20234855.211    20234860.124
       241.000         217.000
  24099201.768    -7044161.23148  -5226979.66444  24099202.060    24099212.504
       193.000         111.000
  22777884.783    -8899986.37349  -6922409.60846  22777884.069    22777892.153
       226.000         175.000
  23552064.150    -4226171.45649  -3047142.60745  23552063.286    23552072.305
       217.000         161.000
  22887677.563    -9695997.74549  -7539412.09146  22887677.181    22887684.892
       226.000         175.000
  21430477.427   -20072985.85949 -15632283.93947  21430476.880    21430484.540
       238.000         196.000
  22742647.429   -14097170.31649 -10964138.03546  22742647.363    22742654.914
       227.000         177.000
  24179483.855      523193.71649    416521.62244  24179483.032    24179491.676
       202.000         129.000
 03  4 16  0 59 30.0000000  0  9G18G14G21G31G25G23G15G 3G 9
  22655098.510   -11851845.77849  -9209268.86946  22655098.522    22655104.373
       228.000         177.000
  20236886.164   -24115863.97049 -18266178.90748  20236885.586    20236890.616
       240.000         217.000
  24118808.338    -6941130.00648  -5146695.70744                  24118810.885
       190.000         109.000
  22782269.733    -8876943.49449  -6904454.14346  22782269.193    22782276.317
       225.000         175.000
  23533440.392    -4324039.39949  -3123403.22045  23533441.018    23533448.492
       217.000         161.000
  22896441.126    -9649944.87849  -7503526.76546  22896440.984    22896448.445
       226.000         175.000
  21444418.218   -19999726.84949 -15575199.03147  21444417.649    21444424.806
       237.000         196.000
  22754057.560   -14037209.84449 -10917415.63446  22754056.774    22754064.382
       226.000         177.000
  24192787.573      593103.50749    470996.75845  24192788.991    24192795.877
       205.000         133.000
 03  4 16  1  0  0.0000000  0  9G18G14G21G31G25G23G15G 3G 9
  22665936.706   -11794891.10849  -9164888.63146  22665936.559    22665942.677
       227.000         177.000
  20239005.157   -24104728.39349 -18257501.81348  20239004.699    20239009.560
       241.000         217.000
  24138450.761    -6837909.65648  -5066264.37844                  24138451.098
       187.000         109.000
  22786749.663    -8853401.71249  -6886109.91546  22786749.711    22786756.265
       225.000         175.000
  23514829.761    -4421839.29249  -3199610.78545  23514828.823    23514837.267
       218.000         161.000
  22905214.454    -9603840.36749  -7467601.18046  22905213.930    22905221.959
       227.000         175.000
  21458434.745   -19926069.69849 -15517803.87247  21458434.145    21458441.395
       237.000         196.000
  22765528.892   -13976927.52749 -10870442.44746  22765528.063    22765536.506
       225.000         176.000
  24206180.894      663483.60249    525838.35345  24206181.829    24206188.801
       204.000         134.000
 03  4 16  1  0 30.0000000  0  9G18G14G21G31G25G23G15G 3G 9
  22676792.396   -11737843.66649  -9120436.09446  22676791.534    22676798.095
       226.000         176.000
  20241212.397   -24093129.10549 -18248463.38948  20241212.040    20241216.801
       241.000         217.000
  24158128.761    -6734501.67348  -4985686.85144                  24158125.578
       185.000         108.000
  22791324.209    -8829362.59949  -6867378.16146  22791323.435    22791330.985
       225.000         175.000
  23496232.488    -4519568.52649  -3275763.29645  23496231.977    23496240.441
       216.000         160.000
  22913997.838    -9557683.82849  -7431635.07146  22913997.310    22914004.308
       227.000         175.000
  21472526.929   -19852015.24849 -15460099.14147  21472526.219    21472533.487
       237.000         195.000
  22777060.818   -13916326.34349 -10823220.79046  22777060.329    22777068.928
       226.000         176.000
  24219662.752      734331.75249    581044.70245  24219661.817    24219671.146
       197.000         132.000
 03  4 16  1  1  0.0000000  0  9G18G14G21G31G25G23G15G 3G 9
  22687665.930   -11680702.32849  -9075910.43046  22687664.856    22687671.783
       226.000         176.000
  20243507.846   -24081066.47849 -18239063.92848  20243507.341    20243512.186
       241.000         217.000
  24177842.126    -6630906.73648  -4904963.63444                  24177835.013
       186.000         102.000
  22795993.227    -8804826.82849  -6848259.39946  22795992.673    22795999.877
       225.000         175.000
  23477649.156    -4617223.09249  -3351857.62745  23477648.682    23477657.011
       214.000         160.000
  22922791.385    -9511473.94649  -7395627.39646  22922791.032    22922798.544
       226.000         175.000
  21486694.695   -19777563.46549 -15402084.80947  21486694.381    21486701.602
       236.000         195.000
  22788653.281   -13855407.47449 -10775751.58746  22788652.824    22788660.577
       226.000         176.000
  24233233.157      805647.11949    636615.16244  24233229.225    24233242.892
       195.000         127.000
 03  4 16  1  1 30.0000000  0  9G18G14G21G31G25G23G15G 3G 9
  22698557.448   -11623467.36149  -9031311.78046  22698557.336    22698563.411
       227.000         177.000
  20245891.131   -24068542.13749 -18229304.68748  20245890.662    20245895.430
       242.000         217.000
                  -6527126.772 8    635187.969 1
       183.000
  22800756.248    -8779796.36349  -6828755.16746  22800755.625    22800763.506
       224.000         173.000
  23459080.520    -4714800.61349  -3427891.92545  23459080.047    23459088.666
       215.000         159.000
  22931595.009    -9465210.64049  -7359578.08046  22931594.587    22931601.586
       225.000         175.000
  21500937.734   -19702716.16949 -15343762.27747  21500936.981    21500944.580
       235.000         195.000
  22800305.666   -13794174.21249 -10728037.40346  22800304.887    22800313.032
       227.000         176.000
  24246892.601      877427.05048    692547.58644  24246891.906    24246900.866
       194.000         122.000
 03  4 16  1  2  0.0000000  0 10G18G14G21G31G25G23G11G15G 3G 9
  22709466.168   -11566141.36349  -8986642.18446  22709466.274    22709472.851
       226.000         175.000
  20248361.466   -24055560.39149 -18219189.02948  20248361.041    20248365.917
       241.000         217.000
                  -6423166.58148  -2751298.63543
       189.000          74.000
  22805612.615    -8754275.67849  -6808868.95046  22805611.963    22805619.646
       224.000         173.000
  23440526.871    -4812301.04849  -3503866.14645  23440526.701    23440534.398
       216.000         160.000
  22940408.417    -9418896.31849  -7323489.02246  22940407.586    22940414.714
       225.000         175.000
  24677931.513    -4551765.18149  -3522941.30845  24677930.804    24677938.174
       201.000         138.000
  21515255.119   -19627477.40749 -15285134.70147  21515254.469    21515261.946
       236.000         195.000
  22812016.801   -13732632.10749 -10680082.54246  22812016.879    22812024.055
       227.000         176.000
  24260639.711      949666.49049    748838.02444  24260640.688    24260648.917
       195.000         121.000
 03  4 16  1  2 30.0000000  0 10G18G14G21G31G25G23G11G15G 3G 9
  22720392.410   -11508724.00849  -8941901.41546  22720392.330    22720397.773
       226.000         174.000
  20250918.590   -24042122.36049 -18208717.82848  20250917.941    20250923.138
       241.000         217.000
                  -6319027.33548  -2670119.72243
       178.000          74.000
  22810561.959    -8728266.26049  -6788601.90146  22810561.627    22810569.233
       224.000         173.000
  23421988.464    -4909721.11949  -3579777.78045  23421988.675    23421996.212
       216.000         160.000
  22949231.680    -9372530.12349  -7287359.53146  22949230.958    22949238.763
       225.000         175.000
  24658884.323    -4651858.89249  -3600936.35745  24658883.700    24658890.805
       205.000         138.000
  21529646.929   -19551848.07049 -15226202.77247  21529646.336    21529653.508
       236.000         195.000
  22823786.172   -13670783.61049 -10631888.95146  22823785.562    22823793.680
       225.000         176.000
  24274473.463     1022363.46849    805484.95744  24274476.769    24274477.132
       197.000         116.000
 03  4 16  1  3  0.0000000  0 10G18G14G21G31G25G23G11G15G 3G 9
  22731336.746   -11451211.85149  -8897086.75646  22731336.853    22731342.244
       227.000         174.000
  20253562.926   -24028226.07449 -18197889.54248  20253562.500    20253567.456
       241.000         217.000
                  -6214707.52048  -2588800.14443
       180.000          74.000
  22815604.596    -8701766.58649  -6767952.82546  22815604.676    22815612.079
       224.000         173.000
  23403466.207    -5007055.14849  -3655622.37945  23403465.668    23403474.477
       215.000         160.000
  22958065.372    -9326108.51749  -7251186.85646  22958064.673    22958071.953
       226.000         175.000
  24639851.524    -4751877.09249  -3678872.57345  24639851.646    24639859.074
       203.000         139.000
  21544113.469   -19475826.02849 -15166964.84047  21544113.031    21544120.495
       237.000         195.000
  22835614.001   -13608627.95249 -10583456.02246  22835613.574    22835621.647
       225.000         175.000
  24288394.539     1095519.05448    862489.25744  24288393.075    24288403.104
       189.000         111.000
 03  4 16  1  3 30.0000000  0 10G18G14G21G31G25G23G11G15G 3G 9
  22742299.093   -11393604.75449  -8852198.12346  22742298.674    22742304.407
       226.000         173.000
  20256294.174   -24013873.25049 -18186705.50748  20256293.880    20256298.457
       241.000         217.000
                  -6110208.98848  -2764591.18843
       175.000          74.000
  22820740.407    -8674778.28249  -6746923.01046  22820740.300    22820747.613
       225.000         173.000
  23384961.032    -5104300.28249  -3731397.71145  23384961.038    23384968.666
       219.000         161.000
  22966909.742    -9279630.86749  -7214970.52746  22966909.360    22966916.258
       226.000         175.000
  24620833.645    -4851817.55949  -3756748.22045  24620834.101    24620841.583
       206.000         140.000
  21558654.541   -19399412.28349 -15107421.68547  21558654.254    21558661.206
       237.000         195.000
  22847499.752   -13546168.01849 -10534785.99146  22847500.285    22847508.224
       226.000         175.000
  24302402.351     1169130.97948    919849.19444  24302402.287    24302413.709
       186.000         107.000
 03  4 16  1  4  0.0000000  0 10G18G14G21G31G25G23G11G15G 3G 9
  22753279.139   -11335903.57549  -8807236.19546  22753279.143    22753284.927
       225.000         173.000
  20259111.869   -23999066.26349 -18175167.58948  20259111.569    20259116.228
       241.000         218.000
                  -6005534.30248  -2682988.05743
       181.000          74.000
  22825968.673    -8647304.13649  -6725514.61346  22825969.160    22825975.392
       225.000         173.000
  23366473.302    -5201454.83249  -3807102.45445  23366472.568    23366481.099
       219.000         161.000
  22975764.640    -9233097.82149  -7178711.05046  22975764.359    22975771.850
       224.000         176.000
  24601830.756    -4951679.22149  -3834562.46445  24601830.707    24601837.797
       207.000         140.000
  21573269.676   -19322609.19549 -15047575.15847  21573269.256    21573276.360
       236.000         194.000
  22859442.758   -13483407.62749 -10485881.83346  22859442.457    22859449.984
       227.000         175.000
  24316496.799     1243195.98148    977562.23544  24316497.089
       188.000         106.000
 03  4 16  1  4 30.0000000  0 10G18G14G21G31G25G23G11G15G 3G 9
  22764276.974   -11278109.35649  -8762201.75746  22764277.269    22764282.685
       226.000         173.000
  20262015.532   -23983807.55749 -18163277.68248  20262015.119    20262019.926
       241.000         218.000
                  -5900686.17148  -2601249.64043
       173.000          74.000
  22831288.832    -8619347.16649  -6703729.98246  22831288.468    22831295.332
       226.000         174.000
  23348002.908    -5298517.03549  -3882735.24145  23348002.984    23348011.175
       219.000         161.000
  22984629.973    -9186510.07349  -7142408.91546  22984629.852    22984638.171
       224.000         176.000
  24582842.930    -5051461.13349  -3912314.55445  24582843.292    24582849.880
       209.000         141.000
  21587958.495   -19245419.17349 -14987427.12247  21587957.678    21587965.425
       235.000         194.000
  22871442.190   -13420350.51549 -10436746.46046  22871441.680    22871449.669
       227.000         176.000
                   1317710.77048   1035625.72444
       182.000         103.000
 03  4 16  1  5  0.0000000  0 10G18G14G21G31G25G23G11G15G 3G 9
  22775292.771   -11220220.82649  -8717093.83646  22775291.614    22775298.709
       226.000         172.000
  20265004.956   -23968098.05749 -18151036.50548  20265004.619    20265009.598
       241.000         217.000
                  -5795663.04558  -2779166.16843
       166.000          74.000
  22836700.700    -8590908.25849  -6681569.81946  22836700.531    22836707.444
       226.000         175.000
  23329550.621    -5395483.09149  -3958293.11345  23329550.398    23329559.134
       218.000         161.000
  22993505.966    -9139866.41749  -7106063.22046  22993506.197    22993513.093
       224.000         175.000
  24563870.833    -5151160.53049  -3990002.35745  24563870.446    24563878.337
       211.000         141.000
  21602720.862   -19167842.59849 -14926977.88347  21602720.088    21602727.709
       234.000         193.000
  22883497.760   -13356998.73549 -10387381.47946  22883497.894    22883505.336
       228.000         176.000
                   1392673.67948   1094038.26744
       172.000          99.000
 03  4 16  1  5 30.0000000  0  9G18G14G21G31G25G23G11G15G 3
  22786326.750   -11162237.40749  -8671911.96246  22786326.944    22786331.371
       226.000         172.000
  20268079.977   -23951938.58949 -18138444.70548  20268079.351    20268084.501
       241.000         217.000
                  -5690468.13448  -2697161.13943
       176.000          74.000
  22842203.957    -8561988.65849  -6659035.09446  22842203.761    22842210.606
       226.000         174.000
  23311117.364    -5492349.85749  -4033773.63345  23311116.220    23311125.726
       219.000         160.000
  23002392.803    -9093165.83549  -7069673.18146  23002392.435    23002399.892
       224.000         175.000
  24544915.135    -5250774.27349  -4067623.42145  24544915.139    24544921.117
       210.000         141.000
  21617556.687   -19089879.90049 -14866227.76347  21617556.487    21617563.566
       234.000         192.000
  22895608.962   -13293354.64849 -10337788.73946  22895608.340    22895617.030
       227.000         175.000
 03  4 16  1  6  0.0000000  0  9G18G14G21G31G25G23G11G15G 3
  22797378.934   -11104158.62149  -8626655.79346  22797378.793    22797384.989
       225.000         173.000
  20271240.376   -23935330.27549 -18125503.15248  20271240.033    20271244.879
       242.000         217.000
                  -5585107.19648  -2615026.86143
       172.000          74.000
  22847798.417    -8532589.73649  -6636126.86946  22847797.829    22847805.307
       224.000         174.000
  23292703.647    -5589114.01949  -4109174.21045  23292703.177    23292712.143
       220.000         161.000
  23011290.603    -9046407.41749  -7033238.08146  23011290.755    23011297.816
       224.000         174.000
  24525975.996    -5350300.17549  -4145176.04845  24525976.230    24525981.814
       211.000         141.000
  21632465.795   -19011532.03149 -14805177.51547  21632465.076    21632472.421
       234.000         192.000
  22907775.234   -13229420.40449 -10287969.88946  22907775.147    22907782.741
       226.000         175.000
 03  4 16  1  6 30.0000000  0  9G18G14G21G31G25G23G11G15G 3
  22808448.918   -11045985.50749  -8581326.09246  22808448.030    22808454.935
       226.000         171.000
  20274485.674   -23918276.02149 -18112214.10948  20274485.346    20274490.151
       242.000         217.000
                  -5479577.98248  -2800799.97143
       173.000          74.000
  22853483.507    -8502714.90349  -6612847.81646  22853482.283    22853490.174
       225.000         173.000
  23274309.669    -5685774.26949  -4184493.80545  23274309.951    23274317.682
       219.000         162.000
  23020199.301    -8999592.23249  -6996758.72246  23020199.238    23020207.225
       224.000         175.000
  24507053.754    -5449737.43449  -4222659.59545  24507054.020    24507060.425
       213.000         140.000
  21647447.657   -18932801.76549 -14743829.29047  21647446.784    21647454.580
       234.000         192.000
  22919995.889   -13165200.36649 -10237928.34946  22919995.377    22920003.567
       225.000         174.000
 03  4 16  1  7  0.0000000  0  9G18G14G21G31G25G23G11G15G 3
  22819536.700   -10987718.51349  -8535923.30746  22819536.783    22819541.834
       226.000         171.000
  20277815.494   -23900777.87249 -18098579.17948  20277815.171    20277819.944
       242.000         218.000
                  -5373884.64048  -2718472.98243
       172.000          74.000
  22859258.682    -8472366.53749  -6589199.76646  22859258.714    22859265.117
       226.000         173.000
  23255936.098    -5782328.37549  -4259730.69146  23255936.031    23255944.035
       222.000         163.000
  23029118.806    -8952720.28249  -6960235.14046  23029118.753    23029124.819
       222.000         174.000
  24488148.696    -5549084.54549  -4300072.89645  24488148.807    24488154.133
       213.000         140.000
  21662501.898   -18853690.91349 -14682184.50647  21662501.073    21662508.593
       234.000         191.000
  22932270.312   -13100697.66849 -10187666.54446  22932270.440    22932277.716
       225.000         173.000
 03  4 16  1  7 30.0000000  0  9G18G14G21G31G25G23G11G15G 3
  22830642.573   -10929356.68149  -8490446.57446  22830642.355    22830648.306
       226.000         171.000
  20281229.660   -23882836.33349 -18084598.74448  20281229.297    20281234.009
       242.000         218.000
                  -5268027.71958  -2636024.94343
       172.000          74.000
  22865123.772    -8441545.59949  -6565183.47846  22865123.255    22865130.368
       225.000         173.000
  23237583.461    -5878772.49249  -4334881.85646  23237582.556    23237589.954
       221.000         164.000
  23038049.241    -8905790.18549  -6923666.27046  23038048.911    23038056.971
       224.000         174.000
  24469261.331    -5648338.17049  -4377413.32245  24469261.133    24469266.718
       211.000         140.000
  21677628.476   -18774200.00949 -14620243.58047  21677627.641    21677635.533
       233.000         191.000
  22944598.231   -13035914.12049 -10137185.89546  22944597.875    22944605.561
       224.000         172.000
 03  4 16  1  8  0.0000000  0  9G18G14G21G31G25G23G11G15G 3
  22841766.581   -10870900.29149  -8444896.15346  22841766.094    22841772.146
       224.000         169.000
  20284727.766   -23864453.64449 -18070274.55348  20284727.335    20284732.173
       242.000         218.000
                  -5162008.98658  -2815295.37943
       173.000          74.000
  22871078.142    -8410254.25149  -6540800.64646  22871077.493    22871085.009
       224.000         173.000
  23219252.035    -5975103.90649  -4409945.19846  23219252.106    23219259.147
       220.000         164.000
  23046990.794    -8858801.81149  -6887051.97146  23046990.461    23046998.795
       225.000         173.000
  24450392.029    -5747496.40049  -4454679.42745  24450390.577    24450397.039
       211.000         140.000
  21692827.124   -18694330.61549 -14558007.72547  21692826.609    21692834.506
       233.000         190.000
  22956978.948   -12970852.89649 -10086488.88646  22956979.034    22956986.369
       223.000         171.000
 03  4 16  1  8 30.0000000  0  8G18G14G31G25G23G11G15G 3
  22852908.560   -10812349.11749  -8399271.88646  22852906.832    22852915.058
       223.000         170.000
  20288309.437   -23845631.64549 -18055608.04348  20288308.986    20288313.866
       244.000         218.000
  22877121.669    -8378494.85449  -6516053.09946  22877121.428    22877128.461
       225.000         172.000
  23200942.562    -6071320.56449  -4484919.11646  23200942.342    23200949.422
       221.000         164.000
  23055943.529    -8811754.92749  -6850392.09946  23055943.672    23055950.177
       224.000         172.000
  24431541.023    -5846557.91149  -4531870.17045  24431541.336    24431546.188
       209.000         139.000
  21708097.499   -18614084.40449 -14495478.25147  21708096.837    21708104.860
       233.000         190.000
  22969411.904   -12905517.28549 -10035578.06846  22969411.607    22969420.074
       224.000         171.000
 03  4 16  1  9  0.0000000  0  8G18G14G31G25G23G11G15G 3
  22864068.676   -10753701.81449  -8353572.71446  22864069.334    22864074.623
       226.000         170.000
  20291974.712   -23826370.41149 -18040599.28348  20291974.309    20291979.243
       243.000         218.000
  22883254.273    -8346268.04749  -6490941.33646  22883253.923    22883260.085
       225.000         172.000
  23182655.806    -6167418.25649  -4559800.34046  23182655.991    23182662.868
       220.000         164.000
  23064907.713    -8764647.93649  -6813685.39646  23064908.156    23064915.057
       224.000         173.000
  24412709.189    -5945518.60649  -4608982.34545  24412709.333    24412715.295
       210.000         140.000
  21723439.546   -18533461.31449 -14432655.10047  21723438.896    21723446.861
       233.000         191.000
  22981896.896   -12839908.44349  -9984454.34446  22981896.284    22981904.396
       225.000         171.000
 03  4 16  1  9 30.0000000  0  8G18G14G31G25G23G11G15G 3
  22875247.000   -10694959.40649  -8307799.47646  22875246.017    22875252.332
       226.000         169.000
  20295722.991   -23806673.06349 -18025250.68848  20295722.614    20295727.428
       243.000         218.000
  22889475.231    -8313577.16249  -6465467.95246  22889475.216    22889482.506
       225.000         172.000
  23164391.728    -6263395.25749  -4634587.53846  23164391.735    23164399.044
       221.000         164.000
  23073883.283    -8717481.47049  -6776932.31646  23073883.223    23073890.011
       224.000         172.000
  24393896.540    -6044378.31449  -4686015.82645  24393896.577    24393901.784
       209.000         142.000
  21738852.864   -18452464.10749 -14369540.43647  21738852.366    21738859.778
       233.000         191.000
  22994432.997   -12774030.70549  -9933121.08146  22994432.945    22994440.325
       225.000         171.000
 03  4 16  1 10  0.0000000  0  8G18G14G31G25G23G11G15G 3
  22886443.646   -10636120.99649  -8261951.37946  22886442.186    22886450.231
       223.000         170.000
  20299554.102   -23786540.39349 -18009562.88348  20299553.542    20299558.528
       243.000         218.000
  22895784.346    -8280423.27649  -6439633.78346  22895784.168    22895790.757
       225.000         173.000
  23146151.444    -6359248.27649  -4709278.11246  23146151.193    23146159.056
       222.000         165.000
  23082870.441    -8670254.22549  -6740131.90646  23082870.221    23082877.183
       224.000         171.000
  24375103.896    -6143133.74249  -4762968.06645  24375103.457    24375110.730
       211.000         143.000
  21754337.254   -18371093.44449 -14306134.76447  21754336.706    21754344.579
       234.000         191.000
  23007019.839   -12707886.30049  -9881580.02446  23007018.982    23007027.477
       225.000         171.000
 03  4 16  1 10 30.0000000  0  8G18G14G31G25G23G11G15G 3
  22897658.226   -10577187.94049  -8216029.53946  22897657.542    22897663.788
       223.000         169.000
  20303467.392   -23765975.72649 -17993538.45348  20303466.942    20303471.732
       244.000         218.000
  22902180.753    -8246810.15949  -6413441.77346  22902180.870    22902187.366
       224.000         172.000
  23127935.159    -6454975.95349  -4783871.00446  23127934.934    23127942.099
       221.000         166.000
  23091868.828    -8622967.54949  -6703285.16246  23091868.672    23091875.352
       224.000         171.000
  24356331.417    -6241784.31049  -4839838.58745  24356331.413    24356337.625
       210.000         144.000
  21769892.090   -18289352.42749 -14242440.49047  21769891.378    21769899.167
       233.000         190.000
  23019656.649   -12641479.72949  -9829834.69346  23019655.534    23019663.859
       225.000         171.000
 03  4 16  1 11  0.0000000  0  8G18G14G31G25G23G11G15G 3
  22908890.989   -10518158.74549  -8170032.83546  22908890.975    22908896.883
       224.000         168.000
  20307462.916   -23744979.09449 -17977177.42848  20307462.516    20307467.340
       244.000         218.000
  22908664.378    -8212738.21049  -6386892.23846  22908664.572    22908670.826
       225.000         172.000
  23109743.365    -6550574.11049  -4858362.97146  23109743.557    23109750.758
       222.000         167.000
  23100878.832    -8575619.38649  -6666390.53246  23100877.735    23100886.420
       223.000         171.000
  24337579.631    -6340326.28949  -4916624.48545  24337579.364    24337585.843
       210.000         144.000
  21785517.444   -18207240.92049 -14178457.52847  21785517.310    21785524.721
       234.000         189.000
  23032343.162   -12574812.11149  -9777885.94246  23032342.841    23032350.734
       224.000         171.000
 03  4 16  1 11 30.0000000  0  8G18G14G31G25G23G11G15G 3
  22920142.296   -10459033.30849  -8123961.08046  22920142.246    22920147.743
       222.000         167.000
  20311540.355   -23723552.21249 -17960481.15248  20311539.874    20311544.742
       244.000         218.000
  22915234.868    -8178209.82749  -6359987.03146  22915233.594    22915241.868
       224.000         172.000
  23091576.858    -6646040.20349  -4932752.02946  23091576.824    23091584.337
       224.000         168.000
  23109900.552    -8528209.58049  -6629447.85946  23109899.929    23109907.384
       221.000         170.000
  24318848.876    -6438757.75449  -4993324.29645  24318849.351    24318854.095
       213.000         144.000
  21801212.949   -18124760.47249 -14114187.07847  21801212.405    21801220.114
       234.000         188.000
  23045078.691   -12507886.61049  -9725736.23446  23045079.254    23045087.235
       224.000         171.000
 03  4 16  1 12  0.0000000  0  8G18G14G31G25G23G11G15G 3
  22931411.796   -10399811.85849  -8077814.53946  22931411.264    22931418.006
       222.000         166.000
  20315699.227   -23701697.26749 -17943451.31948  20315698.654    20315703.636
       244.000         218.000
  22921891.894    -8143227.17949  -6332727.85546  22921891.685    22921898.708
       225.000         172.000
  23073435.942    -6741371.40249  -5007035.97846  23073434.554    23073443.751
       222.000         168.000
  23118934.092    -8480737.78649  -6592456.88346  23118933.725    23118940.396
       222.000         170.000
  24300139.663    -6537076.77649  -5069936.48845  24300139.274    24300145.265
       213.000         143.000
  21816978.372   -18041912.70849 -14049630.42047  21816977.980    21816985.553
       234.000         188.000
  23057862.786   -12440706.38049  -9673388.03646  23057862.554    23057871.286
       224.000         171.000
 03  4 16  1 12 30.0000000  0  8G18G14G31G25G23G11G15G 3
  22942699.546   -10340494.33549  -8031593.13446  22942699.080    22942705.701
       220.000         166.000
  20319939.192   -23679415.92649 -17926089.23048  20319938.649    20319943.712
       244.000         218.000
  22928634.757    -8107792.69049  -6305116.59446  22928633.477    22928642.497
       224.000         172.000
  23055320.774    -6836565.35749  -5081212.99646  23055320.404    23055328.591
       222.000         168.000
  23127979.586    -8433203.63649  -6555417.31746  23127979.903    23127986.616
       224.000         170.000
  24281452.266    -6635281.33049  -5146459.47945  24281451.591    24281455.888
       214.000         143.000
  21832813.403   -17958699.31549 -13984788.85947  21832812.928    21832820.415
       234.000         189.000
  23070694.753   -12373274.42549  -9620843.69246  23070694.271    23070703.033
       222.000         170.000
 03  4 16  1 13  0.0000000  0  8G18G14G31G25G23G11G15G 3
  22954005.622   -10281080.03849  -7985296.30046  22954005.243    22954011.036
       221.000         164.000
  20324260.002   -23656709.69349 -17908396.05748  20324259.588    20324264.378
       244.000         218.000
  22935463.326    -8071908.03449  -6277154.57446  22935463.379    22935471.006
       224.000         173.000
  23037232.619    -6931618.75749  -5155280.49846  23037231.736    23037240.529
       223.000         168.000
  23137037.247    -8385606.25149  -6518328.48946  23137036.663    23137044.621
       223.000         170.000
  24262786.849    -6733369.07849  -5222891.45745  24262785.553    24262791.983
       212.000         144.000
  21848717.882   -17875121.17249 -13919663.07147  21848717.368    21848724.586
       234.000         189.000
  23083573.842   -12305593.19949  -9568105.10746  23083573.145    23083581.777
       222.000         169.000
 03  4 16  1 13 30.0000000  0  8G18G14G31G25G23G11G15G 3
  22965330.241   -10221568.76049  -7938923.93146  22965330.922    22965335.880
       222.000         165.000
  20328661.396   -23633580.27849 -17890373.12948  20328660.991    20328665.757
       245.000         218.000
  22942377.311    -8035575.33349  -6248843.39646  22942377.193    22942384.322
       224.000         172.000
  23019171.798    -7026528.92549  -5229236.39646  23019171.639    23019178.761
       223.000         169.000
  23146106.942    -8337945.10549  -6481189.93146  23146105.864    23146114.286
       222.000         170.000
  24244143.840    -6831337.57149  -5299230.52745  24244142.929    24244149.239
       211.000         143.000
  21864691.412   -17791179.96949 -13854254.37847  21864690.849    21864698.161
       234.000         189.000
  23096500.015   -12237665.76549  -9515174.67146  23096499.506    23096507.758
       222.000         168.000
 03  4 16  1 14  0.0000000  0  8G18G14G31G25G23G11G15G 3
  22976673.529   -10161960.14149  -7892475.67846  22976672.880    22976679.274
       220.000         165.000
  20333143.117   -23610028.92849 -17872021.41848  20333142.798    20333147.565
       244.000         218.000
  22949376.232    -7998796.44949  -6220184.54946  22949376.567    22949383.489
       224.000         172.000
  23001138.717    -7121292.73649  -5303078.24646  23001139.063    23001146.093
       225.000         169.000
  23155188.817    -8290219.40449  -6444001.10646  23155188.646    23155195.580
       224.000         169.000
  24225523.892    -6929184.07849  -5375474.52845  24225522.280    24225528.607
       209.000         144.000
  21880733.847   -17706876.84549 -13788563.67647  21880733.014    21880740.841
       233.000         189.000
  23109472.713   -12169494.44649  -9462054.20146  23109472.395    23109479.727
       223.000         168.000
 03  4 16  1 14 30.0000000  0  8G18G14G31G25G23G11G15G 3
  22988035.073   -10102254.45649  -7845951.80146  22988034.685    22988040.719
       221.000         166.000
  20337704.621   -23586058.01249 -17853342.77248  20337704.230    20337709.164
       244.000         218.000
  22956459.506    -7961574.00549  -6191180.08046  22956458.744    22956466.113
       224.000         171.000
  22983134.041    -7215907.84549  -5376804.23046  22983133.468    22983141.275
       225.000         169.000
  23164283.035    -8242429.20649  -6406762.04346  23164282.581    23164290.312
       224.000         169.000
  24206927.516    -7026906.91449  -5451622.15145  24206927.353    24206933.192
       208.000         144.000
  21896844.671   -17622214.06749 -13722592.70947  21896843.770    21896851.802
       233.000         189.000
  23122491.131   -12101082.83449  -9408746.49146  23122490.613    23122498.718
       222.000         168.000
 03  4 16  1 15  0.0000000  0  8G18G14G31G25G23G11G15G 3
  22999415.265   -10042451.52649  -7799352.15346  22999415.076    22999422.567
       220.000         166.000
  20342345.681   -23561669.14349 -17834338.44848  20342345.108    20342350.046
       244.000         218.000
  22963626.851    -7923910.12849  -6161831.64046  22963626.632    22963633.817
       226.000         172.000
  22965158.106    -7310371.78849  -5450412.41146  22965157.163    22965165.491
       223.000         168.000
  23173389.656    -8194574.09849  -6369472.33346  23173389.496    23173395.747
       222.000         168.000
  24188354.989    -7124504.28249  -5527672.02245  24188354.191    24188361.074
       207.000         144.000
  21913023.634   -17537192.89249 -13656342.48447  21913022.940    21913030.633
       232.000         188.000
  23135554.655   -12032433.60549  -9355253.60946  23135553.889    23135562.663
       220.000         167.000
 03  4 16  1 15 30.0000000  0  8G18G14G31G25G23G11G15G 3
  23010814.048    -9982550.80149  -7752676.30646  23010814.535    23010819.928
       222.000         168.000
  20347065.941   -23536863.93349 -17815009.70448  20347065.460    20347070.293
       244.000         218.000
  22970877.813    -7885806.86549  -6132140.80746  22970877.233    22970884.591
       225.000         172.000
  22947211.477    -7404681.32149  -5523900.28846  22947211.316    22947217.946
       225.000         167.000
  23182508.745    -8146653.33149  -6332131.51846  23182507.264    23182515.812
       220.000         168.000
  24169806.934    -7221973.58349  -5603622.07445  24169806.751    24169813.132
       208.000         144.000
  21929270.615   -17451814.71849 -13589814.07447  21929270.102    21929277.850
       234.000         188.000
  23148662.682   -11963549.64349  -9301577.83046  23148662.674    23148670.490
       220.000         167.000
 03  4 16  1 16  0.0000000  0  8G18G14G31G25G23G11G15G 3
  23022231.510    -9922552.39949  -7705924.32846  23022231.441    23022237.447
       224.000         169.000
  20351865.042   -23511644.31149 -17795358.04348  20351864.417    20351869.254
       244.000         217.000
  22978211.855    -7847266.59849  -6102109.44446  22978211.175    22978218.141
       224.000         171.000
  22929294.832    -7498833.62149  -5597265.62946  22929293.770    22929302.016
       223.000         167.000
  23191640.269    -8098666.26949  -6294739.00746  23191639.932    23191647.425
       224.000         168.000
  24151283.854    -7319312.64549  -5679470.65045  24151284.314    24151291.020
       208.000         146.000
  21945585.191   -17366081.16549 -13523008.74247  21945584.868    21945592.171
       233.000         188.000
  23161814.908   -11894433.79349  -9247721.36946  23161815.019    23161823.214
       220.000         167.000
 03  4 16  1 16 30.0000000  0  8G18G14G31G25G23G11G15G 3
  23033667.583    -9862456.16449  -7659096.12646  23033667.953    23033673.257
       226.000         169.000
  20356742.579   -23486012.26249 -17775385.01348  20356741.921    20356746.954
       244.000         217.000
  22985628.503    -7808291.76249  -6071739.45246  22985627.201    22985635.118
       224.000         171.000
  22911408.551    -7592826.01049  -5670506.38246  22911408.152    22911416.205
       226.000         169.000
  23200784.496    -8050612.87249  -6257294.84946  23200783.212    23200791.222
       222.000         167.000
  24132786.116    -7416519.45049  -5755216.16345  24132786.999    24132793.777
       210.000         147.000
  21961967.062   -17279994.06349 -13455927.91246  21961966.337    21961974.002
       233.000         187.000
  23175010.628   -11825089.50349  -9193686.90046  23175010.444    23175019.089
       220.000         167.000
 03  4 16  1 17  0.0000000  0  8G18G14G31G25G23G11G15G 3
  23045122.230    -9802262.32449  -7612191.84246  23045120.445    23045128.471
       219.000         168.000
  20361698.257   -23459969.84749 -17755092.21848  20361697.970    20361702.764
       244.000         217.000
  22993127.289    -7768884.91149  -6041032.83346  22993126.570    22993134.249
       223.000         170.000
  22893553.192    -7686656.50749  -5743620.98246  22893552.813    22893559.878
       226.000         170.000
  23209941.519    -8002493.08649  -6219798.91046  23209940.403    23209948.140
       221.000         168.000
  24114314.054    -7513591.91749  -5830856.97945  24114314.927    24114321.373
       211.000         149.000
  21978415.867   -17193555.23749 -13388573.01246  21978415.080    21978422.471
       233.000         187.000
  23188249.392   -11755519.69649  -9139476.70446  23188249.309    23188258.216
       220.000         168.000
 03  4 16  1 17 30.0000000  0  8G18G14G31G25G23G11G15G 3
  23056595.354    -9741970.01249  -7565210.87646  23056595.391    23056601.167
       222.000         167.000
  20366731.825   -23433518.53149 -17734480.80248  20366731.515    20366736.218
       245.000         218.000
  23000707.959    -7729047.77349  -6009990.92146  23000707.272    23000714.576
       224.000         170.000
  22875729.320    -7780321.48549  -5816606.58846  22875728.952    22875736.912
       227.000         172.000
  23219111.241    -7954305.75149  -6182250.36246  23219110.484    23219118.058
       222.000         167.000
  24095868.120    -7610527.60649  -5906391.23145  24095867.948    24095874.098
       213.000         150.000
  21994931.452   -17106765.60849 -13320944.76046  21994931.036    21994938.948
       233.000         186.000
  23201530.724   -11685726.68349  -9085092.56146  23201531.044    23201539.234
       223.000         168.000
 03  4 16  1 18  0.0000000  0  8G18G14G31G25G23G11G15G 3
  23068087.226    -9681579.23149  -7518153.14846  23068086.826    23068092.851
       220.000         165.000
  20371842.912   -23406659.80249 -17713551.92348  20371842.677    20371847.088
       244.000         218.000
  23008370.187    -7688782.55949  -5978615.45746  23008370.117    23008377.030
       225.000         170.000
  22857937.440    -7873818.02849  -5889460.96246  22857937.199    22857944.769
       227.000         173.000
  23228293.817    -7906050.32149  -6144648.77446  23228293.757    23228301.245
       222.000         166.000
  24077448.555    -7707324.21949  -5981817.11545  24077448.519    24077454.481
       213.000         151.000
  22011513.386   -17019627.09049 -13253044.64846  22011513.067    22011520.303
       233.000         187.000
  23214854.001   -11615713.64349  -9030536.97446  23214853.911    23214862.027
       222.000         169.000
 03  4 16  1 18 30.0000000  0  8G18G14G31G25G23G11G15G 3
  23079598.165    -9621089.47449  -7471018.30146  23079597.567    23079604.278
       224.000         168.000
  20377031.188   -23379395.26449 -17692306.82448  20377030.705    20377035.423
       244.000         217.000
  23016113.522    -7648091.38349  -5946908.05746  23016113.516    23016120.722
       225.000         170.000
  22840178.255    -7967143.41349  -5962181.95146  22840178.094    22840185.703
       226.000         174.000
  23237489.733    -7857725.95249  -6106993.42946  23237488.601    23237496.267
       221.000         166.000
  24059055.804    -7803979.12849  -6057132.58245  24059055.203    24059061.369
       213.000         151.000
  22028161.523   -16932140.86549 -13184873.59046  22028161.081    22028168.463
       233.000         187.000
  23228218.532   -11545483.11649  -8975811.91146  23228217.909    23228226.366
       221.000         169.000
 03  4 16  1 19  0.0000000  0  8G18G14G31G25G23G11G15G 3
  23091127.774    -9560500.91349  -7423806.45446  23091126.326    23091132.991
       218.000         164.000
  20382296.249   -23351727.02449 -17670747.15348  20382295.810    20382300.567
       244.000         217.000
  23023937.409    -7606976.94049  -5914870.83846  23023937.170    23023944.772
       225.000         171.000
  22822451.873    -8060295.03949  -6034767.56546  22822452.025    22822458.499
       226.000         175.000
  23246698.716    -7809332.50449  -6069284.28646  23246697.836    23246705.865
       220.000         165.000
  24040690.203    -7900490.48949  -6132336.18945  24040689.677    24040695.489
       211.000         151.000
  22044875.416   -16844309.07649 -13116433.26746  22044874.961    22044882.829
       234.000         187.000
  23241623.539   -11475038.45349  -8920920.00346  23241623.069    23241632.980
       219.000         167.000
 03  4 16  1 19 30.0000000  0  8G18G14G31G25G23G11G15G 3
  23102676.224    -9499812.60549  -7376516.90046  23102676.340    23102682.232
       222.000         165.000
  20387637.851   -23323656.54549 -17648874.04448  20387637.422    20387642.289
       244.000         217.000
  23031841.404    -7565440.92149  -5882505.13546  23031840.509    23031849.274
       224.000         171.000
  22804759.540    -8153269.49549  -6107215.08646  22804758.664    22804766.770
       227.000         175.000
  23255921.028    -7760868.85649  -6031520.41046  23255919.692    23255928.806
       218.000         164.000
  24022352.351    -7996855.41649  -6207425.69545  24022351.342    24022357.712
       211.000         150.000
  22061654.942   -16756132.60549 -13047724.37146  22061654.494    22061661.994
       233.000         187.000
  23255068.864   -11404381.82049  -8865862.92946  23255068.611    23255077.759
       219.000         166.000
 03  4 16  1 20  0.0000000  0  8G18G14G31G25G23G11G15G 3
  23114243.906    -9439024.53549  -7329149.62746  23114243.862    23114249.092
       220.000         166.000
  20393055.645   -23295185.72649 -17626688.98948  20393055.092    20393060.053
       244.000         217.000
  23039825.132    -7523485.90949  -5849812.94346  23039824.641    23039832.132
       223.000         171.000
  22787101.298    -8246064.12149  -6179522.49246  22787101.278    22787108.441
       227.000         176.000
  23265156.640    -7712334.72149  -5993701.63646  23265156.357    23265162.985
       220.000         163.000
  24004042.826    -8093071.82249  -6282399.46145  24004042.777    24004048.463
       212.000         150.000
  22078499.656   -16667613.26249 -12978748.29846  22078499.593    22078506.753
       232.000         186.000
  23268554.032   -11333516.63949  -8810643.34146  23268553.665    23268562.564
       220.000         166.000
 03  4 16  1 20 30.0000000  0  8G18G14G31G25G23G11G15G 3
  23125830.569    -9378137.02949  -7281704.82446  23125830.691    23125837.026
       224.000         167.000
  20398549.187   -23266316.75349 -17604193.69148  20398548.759    20398553.697
       244.000         217.000
  23047888.040    -7481114.54349  -5816796.32946  23047887.500    23047895.758
       223.000         170.000
  22769477.642    -8338676.81049  -6251688.11846  22769477.079    22769485.147
       229.000         177.000
  23274405.886    -7663729.89349  -5955827.77146  23274404.235    23274412.950
       219.000         163.000
  23985762.031    -8189137.64349  -6357255.90945  23985761.493    23985766.560
       215.000         151.000
  22095409.221   -16578753.01649 -12909506.59546  22095408.967    22095416.508
       231.000         186.000
  23282078.447   -11262446.03849  -8755263.69646  23282078.053    23282086.954
       222.000         166.000
 03  4 16  1 21  0.0000000  0  8G18G14G31G25G23G11G15G 3
  23137436.102    -9317149.98449  -7234182.49346  23137435.237    23137441.817
       219.000         167.000
  20404118.115   -23237051.69849 -17581389.75048  20404117.733    20404122.758
       245.000         217.000
  23056029.775    -7438329.37149  -5783457.26346  23056029.113    23056036.723
       223.000         170.000
  22751889.161    -8431104.90349  -6323709.90846  22751889.035    22751895.905
       227.000         178.000
  23283668.722    -7615054.07349  -5917898.56446  23283668.212    23283675.093
       220.000         163.000
  23967510.222    -8285050.98649  -6431993.53945  23967509.409    23967515.388
       215.000         153.000
  22112383.259   -16489553.95149 -12840000.86846  22112382.286    22112390.278
       231.000         185.000
  23295641.376   -11191173.13749  -8699726.40546  23295642.282    23295649.609
       222.000         167.000
 03  4 16  1 21 30.0000000  0  8G18G14G31G25G23G11G15G 3
  23149060.557    -9256062.69249  -7186582.06146  23149060.499    23149067.043
       222.000         166.000
  20409762.181   -23207391.96349 -17558278.26948  20409761.716    20409766.561
       244.000         217.000
  23064249.964    -7395132.41449  -5749797.32346  23064249.872    23064256.522
       223.000         169.000
  22734336.310    -8523345.06249  -6395585.24946  22734335.557    22734343.288
       227.000         179.000
  23292945.002    -7566306.27249  -5879913.30746  23292944.000    23292952.077
       219.000         164.000
  23949288.096    -8380809.12549  -6506610.23445  23949288.083    23949293.681
       216.000         155.000
  22129421.568   -16400017.20749 -12770232.01346  22129420.781    22129428.804
       230.000         184.000
  23309242.220   -11119700.39049  -8644033.38846  23309242.547    23309250.674
       221.000         166.000
 03  4 16  1 22  0.0000000  0  8G18G14G31G25G23G11G15G 3
  23160704.135    -9194875.36649  -7138903.63245  23160703.149    23160710.359
       218.000         162.000
  20415480.912   -23177339.93749 -17534861.10948  20415480.617    20415485.349
       245.000         217.000
  23072547.899    -7351526.47949  -5715818.70446  23072547.498    23072554.068
       224.000         169.000
  22716819.692    -8615395.29549  -6467312.59646  22716819.163    22716827.785
       226.000         179.000
  23302235.185    -7517486.56349  -5841871.98746  23302234.958    23302242.439
       220.000         165.000
  23931095.848    -8476410.54349  -6581104.81345  23931096.137    23931102.638
       217.000         156.000
  22146523.690   -16310144.94049 -12700201.71746  22146522.741    22146530.353
       229.000         183.000
  23322880.461   -11048031.22449  -8588187.31146  23322880.346    23322888.765
       223.000         166.000
 03  4 16  1 22 30.0000000  0  8G18G14G31G25G23G11G15G 3
  23172366.888    -9133587.08849  -7091146.58146  23172366.035    23172373.195
       223.000         165.000
  20421274.154   -23146896.49149 -17511138.94648  20421273.926    20421278.548
       245.000         217.000
  23080923.333    -7307513.13049  -5681522.61946  23080922.320    23080930.801
       223.000         169.000
  22699339.680    -8707251.90549  -6538889.08446  22699339.164    22699346.398
       227.000         179.000
  23311539.290    -7468593.40049  -5803773.47246  23311539.167    23311547.188
       222.000         166.000
  23912934.129    -8571851.52649  -6655474.37545  23912933.900    23912939.879
       216.000         157.000
  22163689.472   -16219937.92449 -12629910.57646  22163688.558    22163696.930
       229.000         182.000
  23336555.633   -10976167.71049  -8532189.80146  23336554.989    23336563.985
       223.000         166.000
 03  4 16  1 23  0.0000000  0  8G18G14G31G25G23G11G15G 3
  23184049.013    -9072198.22949  -7043311.11946  23184048.887    23184054.367
       221.000         166.000
  20427141.393   -23116064.24249 -17487113.81848  20427141.164    20427145.641
       245.000         217.000
  23089375.669    -7263095.44349  -5646911.46746  23089375.448    23089383.044
       223.000         169.000
  22681897.216    -8798912.64949  -6610312.93446  22681896.999    22681904.176
       227.000         178.000
  23320857.417    -7419626.89249  -5765617.77146  23320857.107    23320864.276
       223.000         166.000
  23894803.191    -8667130.50049  -6729717.69645  23894802.932    23894809.307
       216.000         157.000
  22180918.491   -16129398.58549 -12559360.47446  22180917.390    22180925.157
       228.000         182.000
  23350267.133   -10904113.41349  -8476043.62546  23350267.256    23350274.445
       224.000         166.000
 03  4 16  1 23 30.0000000  0  8G18G14G31G25G23G11G15G 3
  23195750.153    -9010708.26249  -6995396.89045  23195749.127    23195756.617
       219.000         161.000
  20433082.248   -23084844.94549 -17462787.09448  20433081.762    20433086.558
       245.000         217.000
  23097904.498    -7218275.75849  -5611987.07946  23097904.843    23097911.408
       223.000         168.000
  22664492.457    -8890374.42549  -6681581.75546  22664491.709    22664499.779
       227.000         178.000
  23330189.693    -7370586.37449  -5727404.39746  23330189.136    23330196.232
       221.000         167.000
  23876703.490    -8762245.27849  -6803833.05445  23876703.562    23876709.329
       216.000         157.000
  22198210.505   -16038528.54049 -12488552.69746  22198209.689    22198217.516
       228.000         182.000
  23364014.474   -10831871.12549  -8419750.95846  23364014.329    23364022.321
       223.000         167.000
 03  4 16  1 24  0.0000000  0  8G18G14G31G25G23G11G15G 3
  23207470.489    -8949117.43049  -6947404.07446  23207469.993    23207475.883
       221.000         163.000
  20439096.272   -23053240.77349 -17438160.46748  20439095.778    20439100.855
       244.000         217.000
  23106509.486    -7173056.76649  -5576751.52146  23106508.857    23106515.849
       223.000         168.000
  22647126.118    -8981634.93449  -6752693.73946  22647125.092    22647133.250
       228.000         177.000
  23339535.980    -7321471.50849  -5689133.09746  23339534.986    23339543.131
       222.000         166.000
  23858635.541    -8857193.86349  -6877818.90845  23858635.670    23858641.253
       217.000         157.000
  22215565.102   -15947329.67549 -12417488.68846  22215564.045    22215572.172
       228.000         181.000
  23377797.037   -10759444.07049  -8363314.32546  23377797.917    23377805.753
       224.000         167.000
 03  4 16  1 24 30.0000000  0  8G18G14G31G25G23G11G15G 3
  23219210.101    -8887425.34649  -6899332.35645  23219209.176    23219215.081
       219.000         162.000
  20445183.212   -23021253.69049 -17413235.46448  20445182.764    20445187.731
       245.000         217.000
  23115190.054    -7127440.94949  -5541206.74346  23115189.737    23115196.108
       223.000         168.000
  22629798.578    -9072691.41549  -6823646.74246  22629798.287    22629806.093
       228.000         178.000
  23348896.400    -7272281.82749  -5650803.52846  23348896.006    23348903.860
       218.000         164.000
  23840599.689    -8951973.91049  -6951673.43645  23840599.077    23840604.546
       218.000         157.000
  22232981.891   -15855803.70549 -12346169.80246  22232980.728    22232989.277
       229.000         181.000
  23391614.147   -10686835.10849  -8306735.96246  23391613.493    23391621.774
       223.000         168.000
 03  4 16  1 25  0.0000000  0  8G18G14G31G25G23G11G15G 3
  23230969.152    -8825631.57349  -6851181.37645  23230968.565    23230974.446
       222.000         160.000
  20451342.740   -22988885.11949 -17388013.19848  20451342.300    20451347.120
       245.000         217.000
  23123945.684    -7081430.32949  -5505354.33346  23123944.726    23123952.020
       223.000         168.000
  22612510.591    -9163540.53549  -6894438.16146  22612510.485    22612517.295
       228.000         178.000
  23358271.260    -7223016.34949  -5612414.86346  23358271.025    23358278.277
       223.000         166.000
  23822596.302    -9046582.60549  -7025394.45445  23822595.221    23822600.958
       219.000         157.000
  22250460.646   -15763952.10149 -12274597.16746  22250460.127    22250467.887
       228.000         181.000
  23405465.338   -10614046.60049  -8250017.70246  23405465.224    23405473.286
       223.000         167.000
 03  4 16  1 25 30.0000000  0  8G18G14G31G25G23G11G15G 3
  23242747.532    -8763735.80549  -6802950.90745  23242746.362    23242752.670
       218.000         161.000
  20457574.518   -22956136.89549 -17362495.09148  20457573.966    20457578.967
       245.000         217.000
  23132775.875    -7035027.31549  -5469196.15946  23132775.233    23132782.192
       222.000         167.000
  22595262.482    -9254179.53749  -6965065.85646  22595261.146    22595269.439
       229.000         178.000
  23367660.776    -7173674.49449  -5573966.66446  23367660.165    23367667.071
       218.000         164.000
  23804625.857    -9141017.30549  -7098979.89245  23804625.481    23804629.671
       217.000         156.000
  22268001.098   -15671776.43149 -12202772.00246  22268000.744    22268008.240
       230.000         181.000
  23419350.133   -10541081.67749  -8193161.95446  23419350.231    23419357.736
       223.000         167.000
 03  4 16  1 26  0.0000000  0  8G18G14G31G25G23G11G15G 3
  23254545.342    -8701737.58649  -6754640.67745  23254544.694    23254550.411
       218.000         159.000
  20463878.193   -22923010.64449 -17336682.42048  20463877.792    20463882.837
       244.000         217.000
  23141680.254    -6988234.36949  -5432734.15546  23141679.249    23141687.811
       221.000         167.000
  22578054.747    -9344605.83549  -7035527.81646  22578053.899    22578061.983
       229.000         179.000
  23377064.764    -7124255.53049  -5535458.41646  23377064.295    23377072.365
       220.000         165.000
  23786688.848    -9235276.08049  -7172428.25145  23786688.508    23786693.508
       217.000         156.000
  22285603.060   -15579278.30949 -12130695.58746  22285602.818    22285610.537
       230.000         182.000
  23433267.986   -10467943.30849  -8136171.06446  23433267.167    23433275.850
       223.000         167.000
 03  4 16  1 26 30.0000000  0  8G18G14G31G25G23G11G15G 3
  23266362.806    -8639636.35949  -6706250.11245  23266361.703    23266368.189
       220.000         158.000
  20470253.491   -22889508.14049 -17310576.56748  20470252.939    20470258.238
       244.000         217.000
  23150658.386    -6941053.71149  -5395970.01646  23150657.943    23150664.666
       221.000         166.000
  22560888.228    -9434816.06949  -7105821.41946  22560887.692    22560895.560
       230.000         181.000
  23386483.549    -7074758.60549  -5496889.40545  23386482.335    23386490.317
       216.000         162.000
  23768785.717    -9329356.21549  -7245737.41245  23768784.333    23768790.676
       215.000         155.000
  22303266.034   -15486459.14949 -12058369.00646  22303265.601    22303272.866
       229.000         182.000
  23447218.318   -10394634.08049  -8079047.02546  23447218.099    23447226.032
       221.000         166.000
 03  4 16  1 27  0.0000000  0  8G18G14G31G25G23G11G15G 3
  23278199.725    -8577432.62249  -6657779.68745  23278199.218    23278205.620
       220.000         158.000
  20476699.938   -22855631.74049 -17284179.36648  20476699.466    20476704.566
       245.000         217.000
  23159709.764    -6893488.23249  -5358906.04146  23159709.697    23159717.097
       222.000         166.000
  22543763.222    -9524807.96349  -7175944.89346  22543762.648    22543770.311
       232.000         182.000
  23395917.275    -7025183.82549  -5458259.73546  23395917.973    23395925.375
       224.000         166.000
  23750916.886    -9423255.71249  -7318905.81945  23750915.353    23750922.514
       217.000         155.000
  22320989.588   -15393321.48349 -11985794.24446  22320988.791    22320996.558
       229.000         181.000
  23461200.513   -10321157.18449  -8021792.34446  23461199.490    23461209.236
       220.000         165.000
 03  4 16  1 27 30.0000000  0  8G18G14G31G25G23G11G15G 3
  23290056.359    -8515125.81649  -6609228.95045  23290055.680    23290063.240
       222.000         161.000
  20483217.224   -22821383.26249 -17257492.24048  20483216.834    20483221.829
       245.000         217.000
  23168834.019    -6845540.30249  -5321544.04746  23168833.880    23168839.923
       222.000         167.000
  22526680.405    -9614578.79949  -7245896.10046  22526679.964    22526687.628
       231.000         183.000
  23405366.321    -6975530.27149  -5419568.69046  23405366.862    23405373.981
       220.000         168.000
  23733083.088    -9516971.96349  -7391931.44145  23733082.709    23733088.796
       215.000         155.000
  22338773.412   -15299866.73649 -11912972.40046  22338772.600    22338780.389
       229.000         181.000
  23475214.050   -10247515.69449  -7964409.39746  23475213.498    23475221.817
       222.000         165.000
 03  4 16  1 28  0.0000000  0  8G18G14G31G25G23G11G15G 3
  23301932.452    -8452716.68649  -6560598.48545  23301932.498    23301938.893
       219.000         161.000
  20489804.754   -22786765.53549 -17230517.38248  20489804.533    20489809.153
       245.000         217.000
  23178030.451    -6797213.47649  -5283886.80846  23178030.194    23178036.711
       223.000         166.000
  22509639.957    -9704126.85049  -7315673.71546  22509640.000    22509646.455
       232.000         184.000
  23414830.090    -6925798.38849  -5380816.61046  23414829.511    23414836.282
       221.000         165.000
  23715284.644    -9610503.71149  -7464813.26845  23715285.410    23715291.040
       216.000         155.000
  22356617.015   -15206097.77449 -11839905.72846  22356616.576    22356624.091
       228.000         180.000
  23489258.300   -10173713.20549  -7906901.02346  23489258.205    23489266.353
       221.000         165.000
 03  4 16  1 28 30.0000000  0  8G18G14G31G25G23G11G15G 3
  23313828.089    -8390204.39749  -6511887.66045  23313827.513    23313834.925
       220.000         160.000
  20496462.316   -22751779.81949 -17203255.78148  20496461.995    20496466.832
       245.000         217.000
  23187298.540    -6748509.76849  -5245935.88446  23187297.798    23187304.738
       223.000         166.000
  22492642.577    -9793448.57449  -7385274.96046  22492642.188    22492648.860
       231.000         184.000
  23424308.838    -6875987.07549  -5342002.60046  23424307.569    23424316.545
       217.000         164.000
  23697522.068    -9703848.08249  -7537549.10945  23697522.676    23697527.892
       219.000         156.000
  22374520.230   -15112015.78949 -11766595.12646  22374519.462    22374527.820
       227.000         179.000
  23503332.735   -10099752.07049  -7849269.01646  23503332.382    23503341.271
       221.000         165.000
 03  4 16  1 29  0.0000000  0  8G18G14G31G25G23G11G15G 3
  23325743.591    -8327588.96449  -6463096.40245  23325743.694    23325749.010
       223.000         159.000
  20503189.447   -22716428.61849 -17175709.38648  20503189.038    20503193.752
       245.000         217.000
  23196637.656    -6699431.97049  -5207693.46746  23196636.513    23196644.329
       222.000         167.000
  22475688.645    -9882541.45149  -7454697.88946  22475688.085    22475694.693
       230.000         183.000
  23433802.786    -6826095.95849  -5303126.45646  23433803.046    23433809.953
       222.000         165.000
  23679795.703    -9797002.77349  -7610137.14845  23679796.038    23679801.212
       220.000         157.000
  22392482.543   -15017622.87049 -11693042.25246  22392482.037    22392489.641
       227.000         178.000
  23517436.637   -10025635.59249  -7791515.95446  23517435.998    23517445.421
       220.000         164.000
 03  4 16  1 29 30.0000000  0  8G18G14G31G25G23G11G15G 3
  23337678.872    -8264869.34249  -6414223.99845  23337678.222    23337684.654
       221.000         160.000
  20509985.841   -22680713.13549 -17147879.14048  20509985.542    20509990.120
       245.000         216.000
  23206047.603    -6649982.21549  -5169161.22946  23206047.388    23206054.456
       222.000         168.000
  22458778.868    -9971402.06449  -7523939.83746  22458778.022    22458785.370
       231.000         183.000
  23443312.346    -6776124.00449  -5264187.25946  23443312.313    23443318.950
       221.000         166.000
  23662105.747    -9889965.23449  -7682575.37845  23662105.285    23662111.454
       219.000         158.000
  22410503.986   -14922920.25249 -11619248.05346  22410503.641    22410511.626
       227.000         179.000
  23531569.649    -9951366.15249  -7733643.70146  23531568.934    23531577.954
       220.000         163.000
 03  4 16  1 30  0.0000000  0  8G18G14G31G25G23G11G15G 3
  23349633.712    -8202045.77349  -6365270.60245  23349633.045    23349639.936
       221.000         160.000
  20516851.179   -22644635.67649 -17119766.83848  20516850.670    20516855.621
       245.000         216.000
  23215527.835    -6600163.28349  -5130341.30446  23215527.485    23215535.395
       223.000         168.000
  22441913.696   -10060028.35949  -7592999.20046  22441913.227    22441920.561
       230.000         183.000
  23452837.077    -6726070.68449  -5225184.69846  23452835.850    23452843.646
       215.000         163.000
  23644452.486    -9982733.30649  -7754862.16945  23644451.317    23644457.917
       218.000         157.000
  22428583.905   -14827910.08049 -11545214.20146  22428583.105    22428591.675
       229.000         179.000
  23545731.089    -9876947.06949  -7675654.83445  23545730.470    23545739.373
       219.000         162.000
 03  4 16  1 30 30.0000000  0  8G18G14G31G25G23G11G15G 3
  23361608.649    -8139117.25649  -6316235.43345  23361608.675    23361613.884
       220.000         160.000
  20523785.139   -22608197.28849 -17091373.28948  20523784.690    20523789.533
       245.000         216.000
  23225078.105    -6549976.91649  -5091235.06646  23225077.643    23225085.626
       223.000         169.000
  22425093.842   -10148416.72149  -7661873.16846  22425093.941    22425100.577
       230.000         184.000
  23462377.524    -6675934.59149  -5186117.66646  23462377.794    23462384.984
       221.000         164.000
  23626836.805   -10075303.58349  -7826994.81545  23626834.943    23626842.145
       219.000         157.000
  22446722.154   -14732593.46849 -11470941.56446  22446721.658    22446729.758
       228.000         179.000
  23559920.539    -9802380.22549  -7617550.84245  23559920.486    23559929.067
       218.000         161.000
 03  4 16  1 31  0.0000000  0  8G18G14G31G25G23G11G15G 3
  23373603.364    -8076084.20749  -6267118.79245  23373602.682    23373609.884
       218.000         156.000
  20530787.287   -22571400.69049 -17062700.61348  20530786.672    20530791.788
       245.000         216.000
  23234697.658    -6499426.40949  -5051845.09246  23234697.384    23234704.649
       223.000         168.000
  22408319.775   -10236565.00149  -7730560.05446  22408319.623    22408326.356
       231.000         184.000
  23471933.909    -6625715.98649  -5146986.27745  23471934.248    23471940.920
       218.000         162.000
  23609258.972   -10167674.44749  -7898972.08545  23609257.211    23609263.890
       217.000         158.000
  22464918.279   -14636972.86949 -11396432.06146  22464917.651    22464925.748
       229.000         179.000
  23574137.572    -9727669.40249  -7559334.65345  23574137.664    23574145.740
       218.000         161.000
 03  4 16  1 31 30.0000000  0  8G18G14G31G25G23G11G15G 3
  23385618.174    -8012946.29249  -6217920.41245  23385618.393    23385624.076
       221.000         155.000
  20537857.285   -22534247.58549 -17033750.13648  20537856.828    20537861.801
       245.000         216.000
  23244385.985    -6448514.23849  -5012173.30346  23244385.986    23244393.158
       221.000         168.000
  22391591.875   -10324470.46349  -7799057.74046  22391591.624    22391599.010
       230.000         183.000
  23481506.093    -6575414.04449  -5107789.99945  23481505.962    23481512.759
       220.000         161.000
  23591719.654   -10259843.46449  -7970792.07545  23591718.303    23591725.091
       218.000         158.000
  22483171.829   -14541050.01549 -11321687.02346  22483171.234    22483179.207
       228.000         179.000
  23588381.562    -9652817.36249  -7501008.42945  23588381.223    23588389.672
       218.000         160.000
 03  4 16  1 32  0.0000000  0  8G18G14G31G25G23G11G15G 3
  23397652.886    -7949703.77149  -6168640.54845  23397651.943    23397659.767
       220.000         160.000
  20544994.655   -22496740.50549 -17004523.83448  20544994.077    20544999.222
       245.000         217.000
  23254142.330    -6397243.52849  -4972222.12646  23254141.773    23254148.811
       221.000         167.000
  22374910.590   -10412130.77249  -7867364.40146  22374910.182    22374917.359
       231.000         183.000
  23491094.209    -6525028.71449  -5068528.71246  23491094.584    23491101.369
       221.000         163.000
  23574219.226   -10351808.73949  -8042453.29245  23574217.859    23574224.818
       217.000         158.000
  22501482.353   -14444827.25949 -11246708.30446  22501482.168    22501489.951
       228.000         179.000
  23602651.635    -9577827.61549  -7442574.90145  23602652.334    23602660.282
       216.000         160.000
 03  4 16  1 32 30.0000000  0  8G18G14G31G25G23G11G15G 3
  23409707.523    -7886355.98349  -6119278.68345  23409705.488    23409713.482
       214.000         159.000
  20552199.111   -22458880.87349 -16975022.82348  20552198.599    20552203.689
       245.000         216.000
  23263966.466    -6345616.39449  -4931993.21246  23263965.642    23263974.089
       222.000         167.000
  22358276.556   -10499542.73549  -7935477.55446  22358275.868    22358283.033
       230.000         182.000
  23500698.329    -6474558.82049  -5029201.57145  23500697.446    23500705.818
       215.000         159.000
  23556758.128   -10443567.34749  -8113953.45445  23556758.156    23556762.526
       217.000         158.000
  22519849.753   -14348306.01349 -11171496.99946  22519849.792    22519857.023
       229.000         179.000
  23616947.433    -9502702.56149  -7384035.95145  23616946.288    23616955.918
       216.000         159.000
 03  4 16  1 33  0.0000000  0  8G18G14G31G25G23G11G15G 3
  23421782.250    -7822902.33449  -6069834.35845  23421781.398    23421787.853
       215.000         155.000
  20559470.205   -22420670.75049 -16945248.70248  20559469.465    20559474.926
       245.000         216.000
  23273858.045    -6293635.48949  -4891488.62946  23273857.804    23273865.637
       223.000         168.000
  22341690.322   -10586703.42249  -8003394.91146  22341690.330    22341696.820
       231.000         182.000
  23510318.565    -6424003.88849  -4989808.12045  23510317.726    23510325.263
       221.000         160.000
  23539336.594   -10535117.05649  -8185290.83645  23539336.287    23539341.839
       217.000         158.000
  22538273.644   -14251488.07849 -11096054.50046  22538272.519    22538280.671
       229.000         179.000
  23631268.449    -9427444.90749  -7325393.65345  23631267.494    23631276.541
       216.000         158.000
 03  4 16  1 33 30.0000000  0  8G18G14G31G25G23G11G15G 3
  23433877.230    -7759343.04749  -6020307.64645  23433877.364    23433882.717
       221.000         154.000
  20566807.582   -22382112.28049 -16915203.14848  20566806.946    20566812.262
       243.000         216.000
  23283816.523    -6241303.93849  -4850710.83146  23283816.369    23283824.035
       223.000         168.000
  22325152.338   -10673610.80149  -8071114.89246  22325151.649    22325158.989
       232.000         183.000
  23519955.136    -6373363.84449  -4950348.38445  23519954.404    23519962.568
       217.000         160.000
  23521955.320   -10626455.66149  -8256463.73345  23521954.230    23521961.426
       217.000         158.000
  22556753.484   -14154375.98649 -11020382.79346  22556753.015    22556761.129
       228.000         178.000
  23645614.113    -9352058.10049  -7266650.72345  23645614.032    23645622.159
       216.000         157.000
 03  4 16  1 34  0.0000000  0  8G18G14G31G25G23G11G15G 3
  23445992.472    -7695677.96449  -5970698.49145  23445992.277    23445998.866
       220.000         156.000
  20574210.887   -22343207.59449 -16884887.81248  20574210.590    20574215.512
       244.000         216.000
  23293841.255    -6188624.37449  -4809661.84746  23293841.789    23293848.782
       224.000         168.000
  22308663.064   -10760262.03349  -8138635.28146  22308663.094    22308669.467
       232.000         184.000
  23529607.894    -6322638.07949  -4910821.83445  23529607.212    23529614.903
       219.000         160.000
  23504614.721   -10717580.53649  -8327470.10145  23504614.864    23504620.000
       219.000         159.000
  22575288.926   -14056971.54849 -10944483.27946  22575288.253    22575296.326
       227.000         177.000
  23659983.873    -9276544.97849  -7207809.37945  23659984.074    23659992.299
       216.000         157.000
 03  4 16  1 34 30.0000000  0  8G18G14G31G25G23G11G15G 3
  23458127.659    -7631906.68649  -5921006.63845  23458126.827    23458133.578
       215.000         157.000
  20581679.788   -22303958.53149 -16854304.13048  20581679.260    20581684.428
       244.000         216.000
  23303931.654    -6135599.36349  -4768343.68446  23303931.004    23303938.594
       224.000         168.000
  22292223.077   -10846654.33649  -8205953.90346  22292223.225    22292229.521
       232.000         186.000
  23539277.147    -6271825.81149  -4871227.89145  23539276.508    23539284.473
       218.000         160.000
  23487315.212   -10808489.75049  -8398308.41345  23487315.280    23487320.579
       219.000         159.000
  22593879.788   -13959276.43149 -10868357.26646  22593879.253    22593886.571
       226.000         176.000
  23674377.192    -9200908.43549  -7148871.85645  23674377.470    23674385.190
       216.000         157.000
 03  4 16  1 35  0.0000000  0  8G18G14G31G25G23G11G15G 3
  23470283.171    -7568028.59849  -5871231.57045  23470282.541    23470289.636
       218.000         158.000
  20589213.809   -22264366.84949 -16823453.47548  20589213.254    20589218.545
       244.000         216.000
  23314087.287    -6082231.18849  -4726758.12046  23314087.343    23314094.252
       223.000         168.000
  22275833.013   -10932784.39049  -8273068.17146  22275832.852    22275839.934
       231.000         187.000
  23548962.981    -6220926.04449  -4831565.78345  23548961.993    23548970.391
       218.000         159.000
  23470057.298   -10899180.48149  -8468976.48645  23470056.378    23470062.686
       218.000         159.000
  22612525.580   -13861292.15649 -10792005.93546  22612525.744    22612532.904
       225.000         174.000
  23688793.533    -9125151.29949  -7089840.37545  23688793.769    23688802.265
       217.000         157.000
 03  4 16  1 35 30.0000000  0  8G18G14G31G25G23G11G15G 3
  23482458.991    -7504043.96949  -5821373.44045  23482458.852    23482465.873
       219.000         158.000
  20596812.668   -22224434.63549 -16792337.47448  20596812.334    20596817.256
       244.000         216.000
  23324307.592    -6028522.94549  -4684907.57846  23324306.818    23324314.707
       224.000         167.000
  22259493.261   -11018650.07649  -8339976.43146  22259492.844    22259499.889
       231.000         187.000
  23558665.661    -6169938.61549  -4791835.33945  23558665.765    23558673.048
       220.000         160.000
  23452841.350   -10989650.46549  -8539472.52645  23452841.636    23452847.820
       219.000         160.000
  22631226.007   -13763021.09049 -10715431.13146  22631225.479    22631233.368
       224.000         173.000
  23703232.138    -9049276.47349  -7030717.17645  23703231.504    23703239.718
       216.000         157.000
 03  4 16  1 36  0.0000000  0  8G18G14G31G25G23G11G15G 3
  23494655.290    -7439952.60449  -5771432.14145  23494654.829    23494662.135
       218.000         158.000
  20604475.921   -22184164.22349 -16760957.94048  20604475.688    20604480.462
       244.000         216.000
  23334592.125    -5974477.53149  -4642794.29646  23334591.618    23334599.061
       225.000         168.000
  22243204.196   -11104249.13749  -8406676.93246  22243203.651    22243211.069
       231.000         187.000
  23568385.137    -6118863.07049  -4752036.24745  23568384.857    23568392.546
       220.000         162.000
  23435668.017   -11079897.49449  -8609794.84145  23435667.605    23435673.208
       221.000         161.000
  22649980.532   -13664465.32949 -10638634.49146  22649979.535    22649988.286
       223.000         172.000
  23717692.312    -8973287.15749  -6971504.77145  23717691.964    23717699.296
       214.000         155.000
 03  4 16  1 36 30.0000000  0  8G18G14G31G25G23G11G15G 3
  23506871.915    -7375753.95849  -5721407.26645  23506871.312    23506877.563
       217.000         158.000
  20612203.164   -22143557.40649 -16729316.26848  20612202.779    20612207.791
       244.000         216.000
  23344940.560    -5920097.29149  -4600420.12946  23344940.244    23344947.564
       225.000         168.000
  22226966.568   -11189578.57049  -8473167.33446  22226966.142    22226973.355
       231.000         187.000
  23578121.501    -6067698.52549  -4712167.82545  23578121.246    23578128.310
       219.000         161.000
  23418537.696   -11169919.00149  -8679941.40945  23418538.213    23418542.544
       222.000         162.000
  22668788.945   -13565626.61849 -10561617.36246  22668787.855    22668795.971
       222.000         171.000
  23732173.651    -8897185.84249  -6912205.09845  23732173.798    23732180.868
       214.000         154.000
 03  4 16  1 37  0.0000000  0  8G18G14G31G25G23G11G15G 3
  23519108.903    -7311448.10149  -5671298.85845  23519108.900    23519115.852
       218.000         158.000
  20619993.992   -22102616.19649 -16697414.03248  20619993.456    20619998.703
       244.000         216.000
  23355351.993    -5865385.34549  -4557787.48146  23355351.467    23355359.384
       224.000         167.000
  22210780.757   -11274635.83049  -8539445.65647  22210780.826    22210787.645
       233.000         188.000
  23587874.735    -6016444.74749  -4672229.85645  23587874.844    23587882.610
       219.000         161.000
  23401450.550   -11259713.12549  -8749910.81546  23401450.283    23401455.748
       224.000         163.000
  22687650.644   -13466507.17749 -10484381.48446  22687649.657    22687658.573
       222.000         171.000
  23746676.073    -8820975.94649  -6852820.80545  23746675.629    23746684.264
       215.000         154.000
 03  4 16  1 37 30.0000000  0  8G18G14G31G25G23G11G15G 3
  23531366.392    -7247034.22449  -5621106.26745  23531365.555    23531372.263
       219.000         159.000
  20627848.188   -22061342.17949 -16665252.46648  20627847.658    20627852.727
       244.000         216.000
  23365825.992    -5810343.87449  -4514898.06146  23365825.675    23365833.274
       223.000         167.000
  22194647.328   -11359417.77949  -8605509.44747  22194646.836    22194653.728
       232.000         188.000
  23597645.218    -5965100.49149  -4632221.36045  23597645.320    23597651.722
       216.000         158.000
  23384407.304   -11349276.34449  -8819700.28346  23384406.872    23384412.051
       223.000         164.000
  22706565.605   -13367108.48749 -10406928.00346  22706565.212    22706572.981
       224.000         172.000
  23761198.626    -8744659.92949  -6793353.82145  23761198.804    23761206.116
       216.000         154.000
 03  4 16  1 38  0.0000000  0  8G18G14G31G25G23G11G15G 3
  23543644.612    -7182512.54949  -5570829.65745  23543645.054    23543650.500
       221.000         160.000
  20635765.216   -22019737.88949 -16632833.54748  20635764.817    20635769.658
       244.000         216.000
  23376362.167    -5754975.99349  -4471754.31446  23376362.001    23376369.440
       224.000         167.000
  22178566.689   -11443921.94749  -8671356.78847  22178566.238    22178573.167
       233.000         189.000
  23607432.961    -5913665.58849  -4592142.23645  23607432.555    23607439.773
       218.000         158.000
  23367408.209   -11438607.05549  -8889308.56446  23367407.440    23367413.585
       223.000         165.000
  22725533.420   -13267432.75749 -10329258.64146  22725532.931    22725541.052
       224.000         173.000
  23775740.741    -8668240.91249  -6733806.57545  23775739.578    23775748.953
       216.000         154.000
 03  4 16  1 38 30.0000000  0  8G18G14G31G25G23G11G15G 3
  23555943.485    -7117882.52749  -5520468.64145  23555942.660    23555950.621
       219.000         159.000
  20643744.860   -21977804.85149 -16600158.45748  20643744.423    20643749.421
       244.000         216.000
  23386960.009    -5699284.24749  -4428358.18246  23386959.845    23386967.062
       224.000         168.000
  22162539.331   -11528145.75749  -8736985.67147  22162539.004    22162545.902
       233.000         189.000
  23617238.083    -5862139.26549  -4551991.89145  23617237.117    23617245.561
       219.000         161.000
  23350453.645   -11527702.72449  -8958733.72046  23350453.338    23350457.676
       221.000         165.000
  22744553.464   -13167481.91649 -10251374.90446  22744552.334    22744561.193
       225.000         173.000
  23790301.857    -8591721.43349  -6674181.04545  23790302.027    23790310.354
       216.000         155.000
 03  4 16  1 39  0.0000000  0  8G18G14G31G25G23G11G15G 3
  23568262.898    -7053143.87649  -5470022.97345  23568261.672    23568269.696
       217.000         157.000
  20651786.592   -21935545.12549 -16567228.80548  20651786.056    20651791.067
       244.000         215.000
  23397619.026    -5643271.20749  -4384711.69946  23397618.396    23397625.865
       223.000         168.000
  22146565.974   -11612086.20249  -8802393.75047  22146565.672    22146572.251
       234.000         189.000
  23627060.818    -5810520.67549  -4511769.66345  23627060.297    23627068.742
       217.000         160.000
  23333544.296   -11616560.63949  -9027973.59846  23333542.764    23333549.401
       221.000         165.000
  22763625.638   -13067257.62649 -10173278.09946  22763624.800    22763633.077
       225.000         174.000
  23804881.503    -8515104.57949  -6614479.64545  23804880.274    23804888.621
       216.000         155.000
 03  4 16  1 39 30.0000000  0  8G18G14G31G25G23G11G15G 3
  23580602.914    -6988296.46549  -5419492.57045  23580601.789    23580609.438
       217.000         156.000
  20659890.072   -21892960.85749 -16534046.25648  20659889.536    20659894.741
       244.000         215.000
  23408338.402    -5586939.91449  -4340817.23346  23408337.865    23408345.307
       222.000         168.000
  22130647.081   -11695740.82549  -8867579.11147  22130647.112    22130653.442
       235.000         190.000
  23636901.118    -5758809.58549  -4471475.32345  23636901.224    23636908.175
       216.000         155.000
  23316680.813   -11705178.33049  -9097026.28246  23316679.918    23316686.689
       222.000         165.000
  22782749.324   -12966762.29849 -10094970.09546  22782748.531    22782756.856
       225.000         175.000
  23819479.123    -8438393.34149  -6554704.71245  23819477.769    23819487.628
       215.000         155.000
 03  4 16  1 40  0.0000000  0  8G18G14G31G25G23G11G15G 3
  23592963.788    -6923340.11549  -5368877.28045  23592962.982    23592970.545
       218.000         157.000
  20668054.951   -21850054.08849 -16500612.41548  20668054.624    20668059.592
       244.000         216.000
  23419117.961    -5530293.17749  -4296676.97446  23419117.502    23419124.925
       223.000         167.000
  22114783.054   -11779106.99449  -8932539.70247  22114782.814    22114789.218
       235.000         190.000
  23646759.247    -5707005.44849  -4431108.48145  23646758.340    23646765.803
       218.000         154.000
  23299863.473   -11793553.90249  -9165890.32546  23299862.671    23299868.321
       224.000         166.000
  22801924.179   -12865997.90049 -10016452.44246  22801923.887    22801932.212
       224.000         175.000
  23834094.160    -8361590.70949  -6494858.55845  23834094.720    23834102.489
       216.000         155.000
 03  4 16  1 40 30.0000000  0  8G18G14G31G25G23G11G15G 3
  23605345.441    -6858274.90849  -5318177.14545  23605345.280    23605350.645
       220.000         159.000
  20676280.835   -21806827.14249 -16466929.08748  20676280.569    20676285.300
       244.000         216.000
  23429957.025    -5473334.00149  -4252293.25146  23429955.899    23429964.342
       222.000         167.000
  22098974.287   -11862182.58949  -8997273.86447  22098974.099    22098980.703
       234.000         190.000
  23656635.103    -5655107.80449  -4390668.78545  23656635.632    23656641.826
       217.000         157.000
  23283092.700   -11881685.13249  -9234563.97246  23283091.921    23283097.507
       225.000         167.000
  22821149.749   -12764966.89149  -9937727.02746  22821148.648    22821157.090
       225.000         174.000
  23848726.241    -8284699.65349  -6434943.50745  23848726.810    23848734.602
       218.000         155.000
 03  4 16  1 41  0.0000000  0  8G18G14G31G25G23G11G15G 3
  23617747.905    -6793100.49849  -5267391.91445  23617747.873    23617753.962
       219.000         158.000
  20684567.189   -21763282.10749 -16432997.89448  20684566.652    20684571.692
       244.000         216.000
  23440854.851    -5416065.24749  -4207668.29046  23440853.715    23440861.868
       221.000         166.000
  22083221.272   -11944964.92849  -9061779.52047  22083220.694    22083227.156
       235.000         191.000
  23666528.736    -5603116.13449  -4350155.83345  23666528.483    23666535.606
       214.000         157.000
  23266368.853   -11969569.39049  -9303045.17846  23266367.639    23266374.542
       224.000         168.000
  22840425.788   -12663670.96249  -9858795.19746  22840425.363    22840433.497
       225.000         174.000
  23863374.535    -8207723.21449  -6374961.92245  23863374.280    23863382.686
       218.000         156.000
 03  4 16  1 41 30.0000000  0  8G18G14G31G25G23G11G15G 3
  23630171.196    -6727815.82949  -5216520.78645  23630170.553    23630176.464
       213.000         155.000
  20692913.798   -21719420.20549 -16398819.79048  20692913.474    20692918.460
       244.000         216.000
  23451811.116    -5358488.99249  -4162803.72246  23451810.499    23451818.473
       222.000         165.000
  22067524.671   -12027450.84749  -9126054.19347  22067524.341    22067531.053
       235.000         192.000
  23676440.472    -5551029.08649  -4309568.56345  23676439.892    23676448.060
       216.000         156.000
  23249692.505   -12057203.79449  -9371331.69546  23249691.743    23249698.187
       224.000         168.000
  22859751.973   -12562111.54149  -9779658.05046  22859751.303    22859759.431
       225.000         173.000
  23878038.390    -8130663.61249  -6314915.51245  23878037.549    23878046.571
       217.000         157.000
 03  4 16  1 42  0.0000000  0  8G18G14G31G25G23G11G15G 3
  23642615.133    -6662421.35049  -5165564.09245  23642614.309    23642621.312
       211.000         151.000
  20701320.369   -21675243.66749 -16364396.51348  20701320.014    20701324.752
       244.000         215.000
  23462825.445    -5300608.48449  -4117702.06746  23462825.624    23462832.986
       221.000         165.000
  22051884.967   -12109637.97049  -9190096.03747  22051884.348    22051891.148
       237.000         193.000
  23686370.662    -5498846.52949  -4268906.81145  23686370.277    23686378.127
       216.000         156.000
  23233064.185   -12144586.20549  -9439421.85346  23233063.605    23233070.176
       223.000         168.000
  22879127.761   -12460291.07749  -9700317.48346  22879126.650    22879135.217
       225.000         172.000
  23892717.564    -8053524.04049  -6254806.81545  23892716.946    23892726.210
       218.000         157.000
 03  4 16  1 42 30.0000000  0  8G18G14G31G25G23G11G15G 3
  23655080.294    -6596916.87049  -5114521.68045  23655079.679    23655086.199
       212.000         148.000
  20709786.275   -21630754.97149 -16329729.99848  20709785.854    20709790.715
       244.000         215.000
  23473897.144    -5242426.59249  -4072365.57646  23473896.600    23473904.486
       221.000         165.000
  22036302.572   -12191523.52849  -9253902.90047  22036302.275    22036308.605
       237.000         193.000
  23696318.982    -5446568.03949  -4228170.35145  23696317.960    23696326.998
       216.000         158.000
  23216484.242   -12231714.58149  -9507314.05546  23216483.883    23216489.908
       223.000         169.000
  22898552.822   -12358211.75949  -9620775.23046  22898551.523    22898559.941
       224.000         171.000
  23907411.384    -7976307.66949  -6194638.27045  23907412.023    23907419.902
       216.000         156.000
 03  4 16  1 43  0.0000000  0  8G18G14G31G25G23G11G15G 3
  23667566.369    -6531302.20849  -5063393.41645  23667567.114    23667571.892
       212.000         146.000
  20718311.248   -21585956.15049 -16294821.82148  20718310.872    20718315.636
       244.000         215.000
  23485025.632    -5183946.22949  -4026796.50746  23485025.555    23485033.653
       222.000         166.000
  22020777.988   -12273105.25749  -9317473.01547  22020777.643    22020783.980
       237.000         193.000
  23706285.567    -5394193.12549  -4187358.77245  23706284.471    23706292.593
       212.000         158.000
  23199953.079   -12318586.56249  -9575006.46746  23199952.697    23199958.651
       224.000         169.000
  22918026.859   -12255875.70749  -9541032.92546  22918026.101    22918034.563
       222.000         169.000
  23922119.308    -7899017.47649  -6134412.18645  23922118.852    23922126.825
       217.000         156.000
 03  4 16  1 43 30.0000000  0  8G18G14G31G25G23G11G15G 3
  23680073.411    -6465576.61749  -5012178.71345  23680072.387    23680080.171
       212.000         145.000
  20726894.950   -21540848.68549 -16259673.14648  20726894.619    20726899.330
       244.000         215.000
  23496210.522    -5125169.89649  -3980996.80746  23496209.643    23496218.771
       221.000         165.000
  22005311.814   -12354380.22949  -9380804.10047  22005311.260    22005318.067
       237.000         193.000
  23716270.681    -5341720.77349  -4146471.29345  23716269.778    23716277.809
       213.000         157.000
  23183471.385   -12405199.13949  -9642496.76146  23183470.707    23183476.972
       225.000         170.000
  22937549.299   -12153284.66849  -9461091.90746  22937550.264    22937556.530
       222.000         167.000
  23936840.859    -7821656.01049  -6074130.56845  23936840.850    23936849.032
       217.000         156.000
 03  4 16  1 44  0.0000000  0  8G18G14G31G25G23G11G15G 3
  23692601.542    -6399740.18049  -4960877.61845  23692601.403    23692607.328
       215.000         148.000
  20735536.903   -21495434.95549 -16224285.82848  20735536.347    20735541.302
       244.000         215.000
  23507451.084    -5066100.74949  -3934968.93646  23507450.990    23507458.142
       222.000         165.000
  21989904.413   -12435346.51249  -9443894.65147  21989904.086    21989910.261
       236.000         193.000
  23726274.338    -5289150.82549  -4105507.72845  23726274.092    23726281.646
       218.000         159.000
  23167039.319   -12491550.32149  -9709783.36646  23167039.232    23167044.827
       226.000         170.000
  22957119.833   -12050441.06649  -9380954.10046  22957119.037    22957128.294
       221.000         164.000
  23951575.235    -7744226.17549  -6013795.67845  23951575.200    23951583.819
       217.000         156.000
 03  4 16  1 44 30.0000000  0  8G18G14G31G25G23G11G15G 3
  23705151.022    -6333792.47749  -4909489.83145  23705151.495    23705157.461
       215.000         152.000
  20744236.808   -21449716.73049 -16188661.23648  20744236.414    20744241.267
       244.000         215.000
  23518746.941    -5006741.26049  -3888714.82346  23518746.151    23518754.938
       220.000         165.000
  21974556.361   -12516000.78349  -9506742.07147  21974555.702    21974562.620
       236.000         193.000
  23736296.934    -5236482.14549  -4064467.20745  23736296.994    23736304.382
       217.000         160.000
  23150657.470   -12577637.42549  -9776864.20246  23150656.894    23150662.898
       225.000         170.000
  22976738.107   -11947346.57249  -9300620.78545  22976736.346    22976745.687
       219.000         162.000
  23966322.227    -7666730.54349  -5953409.54145  23966322.080    23966331.093
       218.000         157.000
 03  4 16  1 45  0.0000000  0  8G18G14G31G25G23G11G15G 3
  23717721.639    -6267733.97149  -4858015.70245  23717721.913    23717728.889
       216.000         154.000
  20752994.144   -21403696.52749 -16152801.33848  20752993.562    20752998.449
       244.000         215.000
  23530097.214    -4947094.87649  -3842237.15446  23530096.593    23530104.142
       220.000         164.000
  21959268.043   -12596341.13749  -9569344.87647  21959267.575    21959274.193
       237.000         193.000
  23746338.344    -5183714.80149  -4023349.81145  23746337.613    23746346.146
       216.000         159.000
  23134326.351   -12663458.32949  -9843737.59746  23134326.089    23134331.250
       225.000         169.000
  22996403.549   -11844003.83549  -9220094.01445  22996401.982    22996411.673
       217.000         159.000
  23981081.030    -7589172.66149  -5892974.88245  23981080.204    23981089.438
       216.000         157.000
 03  4 16  1 45 30.0000000  0  8G18G14G31G25G23G11G15G 3
  23730313.460    -6201563.99249  -4806454.70345  23730313.166    23730319.883
       213.000         154.000
  20761808.625   -21357376.06649 -16116707.47648  20761807.999    20761813.224
       244.000         215.000
  23541501.560    -4887164.15949  -3795537.93146  23541501.028    23541509.406
       219.000         163.000
  21944039.957   -12676364.97849  -9631701.04947  21944039.558    21944045.775
       237.000         193.000
  23756398.635    -5130847.75049  -3982154.76045  23756398.078    23756406.354
       213.000         157.000
  23118046.367   -12749010.55949  -9910401.63946  23118046.220    23118050.599
       226.000         169.000
  23016115.782   -11740414.63049  -9139375.20045  23016114.955    23016122.523
       217.000         158.000
  23995851.245    -7511554.94949  -5832493.60245  23995851.218    23995859.634
       216.000         157.000
 03  4 16  1 46  0.0000000  0  8G18G14G31G25G23G11G15G 3
  23742926.374    -6135282.25949  -4754806.62845  23742924.715    23742932.924
       210.000         151.000
  20770679.785   -21310757.61849 -16080381.41948  20770679.218    20770684.547
       244.000         215.000
  23552959.597    -4826951.83349  -3748619.28445  23552959.485    23552966.898
       219.000         162.000
  21928872.711   -12756069.21349  -9693808.18647  21928872.637    21928878.591
       237.000         193.000
  23766477.880    -5077880.43149  -3940881.56645  23766478.120    23766484.682
       216.000         158.000
  23101817.957   -12834291.93749  -9976854.61746  23101818.214    23101821.867
       226.000         169.000
  23035874.712   -11636580.81449  -9058465.78145  23035874.426    23035882.134
       218.000         158.000
  24010632.287    -7433880.39349  -5771968.04645  24010631.855    24010640.085
       214.000         156.000
 03  4 16  1 46 30.0000000  0  8G18G14G31G25G23G11G15G 3
  23755560.560    -6068888.47249  -4703071.28545  23755560.937    23755567.734
       210.000         151.000
  20779607.349   -21263842.75049 -16043824.37848  20779606.828    20779612.048
       244.000         215.000
  23564470.782    -4766460.74849  -3701483.41946  23564471.486    23564478.006
       219.000         163.000
  21913766.768   -12835451.41649  -9755664.38247  21913766.425    21913772.682
       238.000         194.000
  23776576.541    -5024812.36649  -3899529.86245  23776576.149    23776583.565
       218.000         160.000
  23085641.431   -12919299.98949 -10043094.62346  23085641.083    23085645.767
       225.000         170.000
  23055679.791   -11532504.74649  -8977367.59145  23055679.135    23055686.863
       219.000         160.000
  24025423.428    -7356151.95549  -5711400.50945  24025422.206    24025431.786
       212.000         155.000
 03  4 16  1 47  0.0000000  0  8G18G14G31G25G23G11G15G 3
  23768216.420    -6002381.89449  -4651248.02345  23768216.616    23768223.232
       213.000         152.000
  20788591.072   -21216632.97449 -16007037.53948  20788590.618    20788595.708
       244.000         215.000
  23576034.422    -4705693.49749  -3654132.36046  23576033.851    23576041.480
       219.000         163.000
  21898722.607   -12914509.00449  -9817267.63347  21898722.180    21898728.623
       237.000         194.000
  23786694.620    -4971642.53549  -3858098.84145  23786694.294    23786702.845
       219.000         161.000
  23069517.496   -13004031.26549 -10109118.97046  23069516.506    23069521.439
       226.000         170.000
  23075530.750   -11428188.07749  -8896081.92445  23075529.923    23075538.055
       220.000         162.000
  24040224.319    -7278371.89949  -5650792.75545  24040223.859    24040232.414
       210.000         154.000
 03  4 16  1 47 30.0000000  0  8G18G14G31G25G23G11G15G 3
  23780893.801    -5935763.02549  -4599337.27345  23780894.120    23780900.649
       213.000         153.000
  20797630.330   -21169131.22549 -15970023.19248  20797629.870    20797634.833
       244.000         214.000
  23587649.950    -4644653.51349  -3606568.78845  23587649.220    23587657.441
       218.000         162.000
  21883740.533   -12993239.72949  -9878616.19247  21883740.052    21883746.606
       238.000         194.000
  23796831.874    -4918371.02549  -3816588.60245  23796832.466    23796838.671
       216.000         159.000
  23053446.403   -13088484.57049 -10174926.69846  23053445.622    23053451.670
       225.000         170.000
  23095426.833   -11323633.54649  -8814610.90946  23095426.609    23095434.362
       222.000         165.000
  24055034.594    -7200543.70949  -5590147.48145  24055035.196    24055043.737
       212.000         153.000
 03  4 16  1 48  0.0000000  0  8G18G14G31G25G23G11G15G 3
  23793592.499    -5869031.41149  -4547338.66945  23793591.529    23793598.254
       212.000         153.000
  20806724.764   -21121339.50949 -15932782.89848  20806724.314    20806729.332
       244.000         214.000
  23599316.835    -4583343.73649  -3558794.98545  23599316.243    23599323.882
       217.000         161.000
  21868821.173   -13071641.08449  -9939708.09947  21868820.311    21868827.116
       238.000         195.000
  23806988.556    -4864997.06249  -3774998.53345  23806987.665    23806995.048
       215.000         156.000
  23037428.798   -13172657.30049 -10240515.80746  23037428.130    23037433.765
       225.000         170.000
  23115367.849   -11218843.14349  -8732956.10546  23115367.154    23115376.037
       223.000         167.000
  24069853.621    -7122670.12649  -5529466.84045  24069853.757    24069862.378
       212.000         152.000
 03  4 16  1 48 30.0000000  0  8G18G14G31G25G23G11G15G 3
  23806312.666    -5802186.91149  -4495252.09945  23806311.993    23806319.215
       210.000         151.000
  20815874.091   -21073259.56149 -15895318.00848  20815873.740    20815878.577
       244.000         214.000
  23611034.554    -4521766.65349  -3510812.88745  23611034.201    23611042.421
       217.000         161.000
  21853965.041   -13149710.39049 -10000541.26547  21853964.545    21853971.077
       239.000         196.000
  23817164.906    -4811519.84749  -3733328.00245  23817165.350    23817172.450
       212.000         152.000
  23021465.102   -13256546.89549 -10305884.28846  23021465.081    23021468.954
       225.000         169.000
  23135353.293   -11113818.82449  -8651119.01846  23135352.369    23135361.326
       223.000         168.000
  24084680.721    -7044753.95349  -5468753.01345  24084680.053    24084689.757
       210.000         152.000
 03  4 16  1 49  0.0000000  0  8G18G14G31G25G23G11G15G 3
  23819054.370    -5735228.74549  -4443076.96745  23819054.252    23819060.183
       210.000         150.000
  20825077.947   -21024893.13949 -15857629.89548  20825077.519    20825082.627
       244.000         214.000
  23622802.696    -4459924.88549  -3462624.54545  23622803.244    23622809.218
       217.000         161.000
  21839172.573   -13227444.96349 -10061113.60347  21839172.336    21839178.767
       239.000         196.000
  23827361.063    -4757938.56049  -3691576.35845  23827360.092    23827367.964
       213.000         149.000
  23005555.804   -13340150.63549 -10371030.04046  23005555.545    23005559.555
       225.000         170.000
  23155383.011   -11008562.22049  -8569100.93446  23155382.612    23155390.190
       225.000         168.000
  24099515.342    -6966797.51549  -5408007.81745  24099514.983    24099525.298
       209.000         152.000
 03  4 16  1 49 30.0000000  0  8G18G14G31G25G23G11G15G 3
  23831817.551    -5668157.51149  -4390813.71445  23831817.046    23831824.472
       216.000         151.000
  20834335.819   -20976242.67749 -15819720.44448  20834335.230    20834340.231
       244.000         214.000
  23634620.531    -4397821.96149  -3414232.70345  23634620.133    23634627.500
       217.000         161.000
  21824444.212   -13304842.80949 -10121423.55747  21824443.652    21824449.914
       238.000         196.000
  23837577.226    -4704253.20449  -3649743.64145  23837577.648    23837583.369
       214.000         149.000
  22989701.422   -13423466.44649 -10435951.42346  22989701.531    22989705.632
       226.000         170.000
  23175456.520   -10903075.99649  -8486903.93246  23175455.426    23175463.652
       223.000         168.000
  24114356.975    -6888804.37149  -5347234.01745  24114356.179    24114366.010
       213.000         152.000
 03  4 16  1 50  0.0000000  0  8G18G14G31G25G23G11G15G 3
  23844602.405    -5600973.06149  -4338462.20745  23844602.055    23844607.297
       219.000         151.000
  20843647.294   -20927310.39949 -15781591.40148  20843646.694    20843651.890
       244.000         213.000
  23646487.541    -4335460.93949  -3365639.73645  23646487.268    23646495.462
       217.000         159.000
  21809780.230   -13381901.97549 -10181469.60847  21809779.364    21809786.641
       238.000         196.000
  23847813.116    -4650463.29549  -3607829.47845  23847812.173    23847819.375
       213.000         150.000
  22973902.132   -13506492.35849 -10500646.91646  22973901.239    22973906.864
       228.000         172.000
  23195573.102   -10797362.63749  -8404529.93246  23195572.879    23195581.000
       223.000         167.000
  24129205.266    -6810777.55549  -5286433.97845  24129204.689    24129214.192
       213.000         152.000
 03  4 16  1 50 30.0000000  0  8G18G14G31G25G23G11G15G 3
  23857408.939    -5533675.18249  -4286022.29345  23857408.110    23857414.143
       219.000         151.000
  20853012.028   -20878098.43549 -15743244.42248  20853011.610    20853016.450
       244.000         213.000
  23658403.070    -4272844.70149  -3316847.90345  23658403.028    23658410.338
       218.000         159.000
  21795181.248   -13458619.49049 -10241249.43347  21795180.640    21795187.421
       238.000         196.000
  23858068.940    -4596568.21649  -3565833.35945  23858068.313    23858075.690
       216.000         153.000
  22958158.487   -13589225.99049 -10565114.65446  22958157.998    22958162.594
       228.000         173.000
  23215732.606   -10691424.30349  -8321980.63946  23215731.703    23215739.702
       223.000         166.000
  24144059.413    -6732719.71749  -5225609.75745  24144059.465    24144068.348
       211.000         151.000
 03  4 16  1 51  0.0000000  0  8G18G14G31G25G23G11G15G 3
  23870237.054    -5466263.06549  -4233493.37245  23870236.679    23870243.528
       217.000         152.000
  20862429.732   -20828608.16949 -15704680.58248  20862429.351    20862434.128
       244.000         213.000
  23670366.811    -4209975.50249  -3267858.95345  23670366.846    23670374.047
       217.000         158.000
  21780647.934   -13534992.23749 -10300760.60647  21780647.362    21780653.923
       238.000         196.000
  23868345.112    -4542566.93849  -3523754.47245  23868344.869    23868353.371
       218.000         156.000
  22942470.946   -13671664.21549 -10629352.22046  22942469.919    22942475.553
       227.000         173.000
  23235934.579   -10585262.52849  -8239257.22146  23235933.758    23235942.621
       221.000         165.000
  24158918.691    -6654633.23149  -5164763.21045  24158918.559    24158927.863
       211.000         151.000
 03  4 16  1 51 30.0000000  0  8G18G14G31G25G23G11G15G 3
  23883086.885    -5398736.16249  -4180875.06145  23883086.353    23883093.088
       216.000         152.000
  20871900.109   -20778841.30349 -15665901.20848  20871899.675    20871904.549
       244.000         213.000
  23682378.172    -4146856.19149  -3218675.11445  23682377.971    23682385.716
       217.000         158.000
  21766180.782   -13611017.68749 -10360001.16547  21766180.757    21766186.683
       239.000         197.000
  23878641.727    -4488458.58749  -3481592.15245  23878641.690    23878649.379
       216.000         157.000
  22926840.084   -13753804.51649 -10693357.63746  22926839.729    22926844.164
       228.000         172.000
  23256178.735   -10478879.04849  -8156361.05246  23256178.203    23256186.201
       221.000         164.000
  24173783.042    -6576520.45249  -5103896.18145  24173782.868    24173792.273
       210.000         150.000
 03  4 16  1 52  0.0000000  0  8G18G14G31G25G23G11G15G 3
  23895958.695    -5331094.36249  -4128167.21445  23895958.242    23895965.309
       217.000         153.000
  20881422.620   -20728800.19249 -15626908.13248  20881422.162    20881427.011
       244.000         213.000
  23694436.397    -4083489.86049  -3169298.79945  23694435.504    23694443.159
       216.000         157.000
  21751780.083   -13686693.99149 -10418969.66647  21751780.016    21751785.734
       240.000         197.000
  23888958.626    -4434242.79149  -3439346.11245  23888957.369    23888965.279
       212.000         154.000
  22911266.251   -13835644.88849 -10757129.33046  22911265.241    22911270.610
       227.000         172.000
  23276464.609   -10372276.49349  -8073294.18746  23276463.899    23276472.266
       221.000         164.000
  24188651.788    -6498384.56349  -5043011.15645  24188652.215    24188661.185
       212.000         149.000
 03  4 16  1 52 30.0000000  0  8G18G14G31G25G23G11G15G 3
  23908852.468    -5263337.61049  -4075369.76145  23908852.766    23908858.157
       219.000         154.000
  20890996.923   -20678486.56449 -15587702.70748  20890996.424    20891001.386
       244.000         213.000
  23706541.015    -4019879.21649  -3119732.10345  23706539.564    23706547.616
       215.000         156.000
  21737446.343   -13762018.38449 -10477663.94447  21737445.859    21737451.961
       238.000         197.000
  23899295.889    -4379918.86649  -3397015.81545  23899294.842    23899303.000
       208.000         149.000
  22895750.090   -13917182.38649 -10820665.04246  22895749.662    22895754.738
       227.000         173.000
  23296791.749   -10265456.91349  -7990058.19546  23296791.447    23296798.933
       220.000         163.000
  24203524.557    -6420228.22249  -4982110.17245  24203524.888    24203532.735
       211.000         150.000
 03  4 16  1 53  0.0000000  0  8G18G14G31G25G23G11G15G 3
  23921768.063    -5195466.15749  -4022482.93445  23921767.405    23921774.712
       214.000         154.000
  20900622.604   -20627903.04849 -15548286.97948  20900622.190    20900627.112
       244.000         213.000
  23718691.365    -3956027.83849  -3069977.82045  23718690.182    23718698.793
       215.000         155.000
  21723179.926   -13836988.74149 -10536082.35447  21723179.756    21723185.822
       238.000         197.000
  23909653.848    -4325486.80149  -3354601.25645  23909652.852    23909661.694
       210.000         147.000
  22880291.881   -13998415.61149 -10883963.63646  22880291.194    22880296.465
       228.000         174.000
  23317159.619   -10158422.96449  -7906655.16846  23317159.676    23317167.315
       220.000         163.000
  24218400.634    -6342054.69949  -4921195.79645  24218401.070    24218410.033
       213.000         150.000
 03  4 16  1 53 30.0000000  0  8G18G14G31G25G23G11G15G 3
  23934705.411    -5127479.55649  -3969506.46045  23934704.469    23934712.642
       210.000         152.000
  20910299.284   -20577051.73149 -15508662.57747  20910298.891    20910303.788
       243.000         212.000
  23730887.189    -3891938.60949  -3020038.20045  23730886.849    23730894.869
       216.000         155.000
  21708981.316   -13911602.83949 -10594223.16047  21708980.955    21708986.720
       239.000         198.000
  23920032.854    -4270945.95649  -3312101.92845  23920032.806    23920040.242
       211.000         147.000
  22864892.126   -14079341.75049 -10947022.96046  22864892.145    22864897.733
       228.000         174.000
  23337567.990   -10051176.92449  -7823086.87845  23337567.448    23337575.884
       219.000         162.000
  24233279.492    -6263866.89949  -4860270.30045  24233278.750    24233289.026
       210.000         148.000
 03  4 16  1 54  0.0000000  0  8G18G14G31G25G23G11G15G 3
  23947664.708    -5059377.77849  -3916440.19545  23947664.287    23947671.207
       213.000         153.000
  20920026.577   -20525934.46849 -15468830.94447  20920026.047    20920031.197
       244.000         212.000
  23743127.769    -3827614.32449  -2969915.41745  23743127.405    23743135.224
       217.000         155.000
  21694850.896   -13985858.30449 -10652084.51147  21694850.268    21694856.477
       239.000         198.000
  23930432.622    -4216295.68249  -3269517.31045  23930431.887    23930438.448
       209.000         146.000
  22849551.281   -14159958.43149 -11009841.13246  22849550.595    22849556.477
       228.000         175.000
  23358016.336    -9943720.51949  -7739354.68245  23358014.973    23358024.119
       217.000         160.000
  24248160.206    -6185667.46449  -4799335.73545  24248158.859    24248169.586
       209.000         146.000
 03  4 16  1 54 30.0000000  0  8G18G14G31G25G23G11G15G 3
  23960646.033    -4991160.92049  -3863284.27045  23960645.900    23960652.584
       217.000         155.000
  20929804.076   -20474553.46549 -15428793.79547  20929803.658    20929808.550
       244.000         212.000
  23755412.545    -3763058.33549  -2919612.08045  23755411.821    23755420.252
       218.000         157.000
  21680789.165   -14059752.90549 -10709664.67147  21680788.922    21680795.283
       239.000         199.000
  23940853.039    -4161535.61949  -3226847.16845  23940851.114    23940860.743
       206.000         143.000
  22834269.711   -14240263.76049 -11072416.70146  22834268.945    22834274.561
       229.000         175.000
  23378504.134    -9836056.57949  -7655460.76145  23378504.378    23378511.969
       218.000         157.000
  24263042.673    -6107459.47549  -4738394.53345  24263042.835    24263052.608
       209.000         145.000
 03  4 16  1 55  0.0000000  0  8G18G14G31G25G23G11G15G 3
  23973649.438    -4922828.05649  -3810037.91245  23973649.188    23973654.685
       217.000         155.000
  20939631.524   -20422910.11849 -15388552.22647  20939631.185    20939636.148
       244.000         212.000
  23767740.968    -3698272.85049  -2869129.91045  23767740.306    23767748.177
       218.000         157.000
  21666796.682   -14133283.71049 -10766961.35447  21666796.469    21666802.832
       239.000         200.000
  23951294.458    -4106664.47649  -3184090.48545  23951293.455    23951302.736
       206.000         142.000
  22819047.866   -14320254.79749 -11134747.36146  22819047.822    22819052.923
       228.000         176.000
  23399031.227    -9728186.41249  -7571406.13445  23399030.178    23399039.075
       216.000         154.000
  24277926.358    -6029245.05349  -4677448.28245  24277924.593    24277937.080
       207.000         144.000
 03  4 16  1 55 30.0000000  0  8G18G14G31G25G23G11G15G 3
  23986674.867    -4854379.02149  -3756701.02545  23986674.691    23986680.123
       217.000         153.000
  20949508.438   -20371006.63149 -15348107.95647  20949507.818    20949513.088
       244.000         212.000
  23780112.360    -3633260.98249  -2818471.35745  23780111.242    23780119.457
       217.000         157.000
  21652873.862   -14206448.60049 -10823972.90247  21652873.448    21652880.022
       240.000         200.000
  23961757.244    -4051681.95549  -3141247.00245  23961758.250    23961764.586
       213.000         145.000
  22803886.290   -14399929.29349 -11196831.37846  22803886.238    22803891.304
       229.000         177.000
  23419597.029    -9620112.33249  -7487192.64145  23419596.631    23419604.318
       215.000         151.000
  24292810.700    -5951027.29549  -4616499.45945  24292810.847    24292820.677
       205.000         143.000
 03  4 16  1 56  0.0000000  0  8G18G14G31G25G23G11G15G 3
  23999722.350    -4785813.70749  -3703273.52745  23999722.168    23999728.502
       215.000         149.000
  20959434.489   -20318844.83749 -15307462.40647  20959433.946    20959439.110
       244.000         212.000
  23792526.085    -3568025.63549  -2767638.64445  23792525.287    23792533.308
       217.000         157.000
  21639021.138   -14279245.05249 -10880697.35147  21639020.878    21639026.914
       240.000         201.000
  23972241.553    -3996587.56749  -3098316.31845  23972241.363    23972249.475
       217.000         148.000
  22788785.433   -14479284.78649 -11258666.80946  22788785.182    22788790.134
       229.000         178.000
  23440201.137    -9511836.64749  -7402822.04045  23440199.448    23440208.537
       216.000         149.000
  24307695.078    -5872808.72549  -4555549.99445  24307695.153    24307703.607
       205.000         142.000
 03  4 16  1 56 30.0000000  0  8G18G14G31G25G23G11G15G 3
  24012792.138    -4717132.13749  -3649755.43645  24012791.740    24012798.735
       211.000         147.000
  20969409.270   -20266427.05549 -15266617.38647  20969408.700    20969413.798
       244.000         212.000
  23804981.850    -3502569.97449  -2716634.28645  23804980.825    23804989.727
       218.000         157.000
  21625238.969   -14351670.80249 -10937132.95847  21625238.279    21625244.615
       241.000         201.000
  23982747.187    -3941380.98149  -3055298.20445  23982746.900    23982754.469
       218.000         152.000
  22773745.800   -14558318.90349 -11320251.81546  22773745.644    22773751.155
       230.000         178.000
  23460843.158    -9403361.74149  -7318296.21345  23460842.287    23460850.394
       215.000         149.000
  24322579.239    -5794592.32549  -4494602.20445  24322579.339    24322587.232
       208.000         143.000
 03  4 16  1 57  0.0000000  0  8G18G14G31G25G23G11G15G 3
  24025883.893    -4648334.62449  -3596147.04445  24025883.527    24025890.348
       210.000         145.000
  20979432.316   -20213755.68949 -15225574.76847  20979431.722    20979436.884
       244.000         211.000
  23817479.032    -3436897.55749  -2665460.99245  23817477.853    23817485.987
       218.000         157.000
  21611527.573   -14423724.13449 -10993278.36547  21611526.791    21611533.394
       240.000         200.000
  23993274.090    -3886062.00449  -3012192.52945  23993273.902    23993281.901
       216.000         155.000
  22758767.649   -14637029.77249 -11381584.92946  22758767.083    22758773.149
       229.000         178.000
  23481522.733    -9294690.20249  -7233617.16745  23481521.761    23481529.827
       217.000         150.000
  24337462.448    -5716381.37549  -4433658.65945  24337461.996    24337471.705
       209.000         143.000
 03  4 16  1 57 30.0000000  0  8G18G14G31G25G23G11G15G 3
  24038997.889    -4579420.30049  -3542447.58245  24038998.248    24039004.621
       211.000         145.000
  20989503.367   -20160832.21949 -15184335.70647  20989502.830    20989507.772
       244.000         211.000
  23830016.961    -3371010.57949  -2614120.52845  23830015.803    23830024.977
       217.000         157.000
  21597887.649   -14495402.11449 -11049131.29347  21597887.404    21597893.435
       241.000         200.000
  24003822.606    -3830629.49149  -2968998.40945  24003821.920    24003830.780
       217.000         157.000
  22743851.505   -14715414.79649 -11442664.13146  22743850.910    22743855.934
       229.000         178.000
  23502239.354    -9185823.76049  -7148786.23245  23502238.229    23502246.972
       218.000         152.000
  24352344.140    -5638178.20249  -4372721.17545  24352343.663    24352352.732
       210.000         144.000
 03  4 16  1 58  0.0000000  0  8G18G14G31G25G23G11G15G 3
  24052134.092    -4510389.09549  -3488657.06545  24052134.344    24052140.327
       211.000         146.000
  20999622.021   -20107658.42249 -15142901.58147  20999621.574    20999626.544
       244.000         211.000
  23842595.085    -3304911.95249  -2562615.14245  23842593.626    23842602.910
       216.000         157.000
  21584319.599   -14566702.35149 -11104689.87247  21584319.127    21584325.358
       241.000         201.000
  24014392.914    -3775082.68349  -2925715.22445  24014392.062    24014400.412
       216.000         157.000
  22728997.783   -14793471.23449 -11503487.29346  22728997.273    22729002.451
       229.000         178.000
  23522992.705    -9076764.45149  -7063805.01545  23522992.081    23523000.235
       217.000         154.000
  24367223.649    -5559985.30749  -4311791.71445  24367223.592    24367233.040
       208.000         144.000
 03  4 16  1 58 30.0000000  0  8G18G14G31G25G23G11G15G 3
  24065292.638    -4441240.67949  -3434775.22245  24065291.755    24065298.418
       212.000         146.000
  21009787.934   -20054236.21949 -15101273.89547  21009787.297    21009792.508
       244.000         211.000
  23855212.935    -3238604.45149  -2510947.00745  23855210.991    23855220.393
       216.000         156.000
  21570823.937   -14637622.43449 -11159952.22647  21570823.460    21570829.915
       241.000         201.000
  24024985.139    -3719421.11649  -2882342.60145  24024984.689    24024992.825
       216.000         156.000
  22714206.959   -14871196.84449 -11564052.66546  22714205.723    22714211.428
       229.000         178.000
  23543782.412    -8967514.34349  -6978675.11545  23543782.179    23543789.204
       217.000         155.000
  24382100.741    -5481805.34149  -4250872.31345  24382099.744    24382109.993
       212.000         145.000
 03  4 16  1 59  0.0000000  0  8G18G14G31G25G23G11G15G 3
  24078473.488    -4371974.72249  -3380801.79545  24078472.580    24078478.926
       211.000         146.000
  21020000.659   -20000567.83649 -15059454.38347  21020000.027    21020005.370
       243.000         211.000
  23867869.863    -3172091.52049  -2459118.77445  23867869.278    23867878.721
       216.000         157.000
  21557400.887   -14708160.65349 -11214917.03247  21557400.462    21557406.639
       241.000         202.000
  24035599.121    -3663644.58249  -2838880.39245  24035597.552    24035606.196
       217.000         156.000
  22699479.723   -14948588.93749 -11624358.14746  22699479.917    22699483.628
       229.000         178.000
  23564607.800    -8858076.36949  -6893398.83045  23564607.801    23564615.616
       215.000         154.000
  24396974.847    -5403641.37849  -4189965.37845  24396974.846    24396983.572
       212.000         146.000
 03  4 16  1 59 30.0000000  0  8G18G14G31G25G23G11G15G 3
  24091676.704    -4302591.35349  -3326736.85645  24091675.650    24091683.050
       211.000         146.000
  21030259.845   -19946655.33449 -15017444.65147  21030259.195    21030264.292
       243.000         211.000
  23880565.403    -3105376.05449  -2407132.73745  23880564.559    23880573.314
       217.000         158.000
  21544050.968   -14778314.43849 -11269582.27347  21544050.614    21544056.885
       241.000         202.000
  24046234.969    -3607752.52649  -2795328.20845  24046233.829    24046242.834
       214.000         156.000
  22684816.354   -15025645.59349 -11684402.23846  22684815.629    22684820.852
       229.000         178.000
  23585468.512    -8748452.48449  -6807977.67345  23585467.211    23585476.831
       212.000         153.000
  24411845.550    -5325496.01049  -4129072.94945  24411845.691    24411855.037
       212.000         146.000
 03  4 16  2  0  0.0000000  0  8G18G14G31G25G23G11G15G 3
  24104902.405    -4233090.10849  -3272580.07745  24104902.373    24104909.250
       213.000         146.000
  21040565.117   -19892500.52249 -14975246.09947  21040564.440    21040569.774
       244.000         210.000
  23893299.006    -3038460.76949  -2354991.01145  23893298.843    23893307.340
       218.000         159.000
  21530774.702   -14848081.56049 -11323946.22247  21530774.395    21530780.805
       241.000         203.000
  24056893.044    -3551744.15549  -2751685.37845  24056892.260    24056900.685
       216.000         155.000
  22670217.076   -15102364.89749 -11744183.46446  22670216.815    22670222.126
       230.000         178.000
  23606364.210    -8638644.71549  -6722413.22345  23606362.955    23606372.006
       209.000         150.000
  24426712.191    -5247371.83149  -4068197.01645  24426712.039    24426721.016
       211.000         145.000
 03  4 16  2  0 30.0000000  0  8G18G14G31G25G23G11G15G 3
  24118150.524    -4163471.47049  -3218331.82045  24118151.521    24118155.946
       211.000         145.000
  21050916.092   -19838105.70449 -14932860.53047  21050915.255    21050920.641
       243.000         210.000
  23906069.926    -2971349.05749  -2302696.21045  23906069.103    23906077.648
       217.000         160.000
  21517572.422   -14917459.85149 -11378007.18447  21517571.985    21517578.337
       241.000         203.000
  24067573.272    -3495619.41349  -2707951.85845  24067572.696    24067580.559
       215.000         154.000
  22655682.472   -15178744.44449 -11803699.94646  22655681.318    22655687.092
       230.000         179.000
  23627294.484    -8528655.44049  -6636707.33945  23627292.786    23627301.854
       207.000         147.000
  24441574.227    -5169271.99549  -4007340.07045  24441574.040    24441583.067
       211.000         144.000
 03  4 16  2  1  0.0000000  0  8G18G14G31G25G23G11G15G 3
  24131421.044    -4093734.75449  -3163991.54845  24131420.006    24131427.597
       209.000         143.000
  21061312.453   -19783472.38649 -14890289.12147  21061311.937    21061316.848
       243.000         210.000
  23918877.664    -2904043.45249  -2250250.31745  23918876.626    23918885.155
       218.000         160.000
  21504444.698   -14986446.63349 -11431763.07447  21504444.463    21504450.577
       241.000         203.000
  24078275.797    -3439377.21249  -2664126.76445  24078274.747    24078281.659
       218.000         151.000
  22641212.982   -15254781.47349 -11862949.54446  22641212.255    22641217.995
       229.000         179.000
  23648258.904    -8418486.69449  -6550861.59245  23648257.482    23648267.214
       204.000         143.000
  24456431.150    -5091198.71149  -3946503.81545  24456431.515    24456440.129
       212.000         143.000
 03  4 16  2  1 30.0000000  0  8G18G14G31G25G23G11G15G 3
  24144714.056    -4023879.66549  -3109559.05545  24144712.323    24144720.357
       206.000         137.000
  21071753.948   -19728602.31349 -14847533.23547  21071753.559    21071758.353
       243.000         210.000
  23931721.756    -2836546.90849  -2197655.64345  23931721.534    23931729.810
       218.000         160.000
  21491391.828   -15055039.75349 -11485212.21547  21491391.409    21491397.814
       241.000         203.000
  24089000.728    -3383016.96449  -2620209.69245  24089000.662    24089008.358
       216.000         152.000
  22626809.212   -15330473.35449 -11921930.18246  22626808.426    22626814.898
       229.000         179.000
  23669257.045    -8308140.67549  -6464877.73945  23669257.374    23669264.967
       201.000         140.000
  24471282.599    -5013154.66949  -3885690.32945  24471282.484    24471290.382
       213.000         143.000
 03  4 16  2  2  0.0000000  0  8G18G14G31G25G23G11G15G 3
  24158029.525    -3953906.08049  -3055034.22345  24158027.066    24158039.538
       205.000         133.000
  21082240.026   -19673497.79149 -14804594.65747  21082239.459    21082244.461
       243.000         210.000
  23944601.825    -2768862.47349  -2144914.56445  23944601.817    23944609.403
       220.000         160.000
  21478414.229   -15123237.14049 -11538352.98947  21478414.053    21478420.063
       241.000         203.000
  24099748.205    -3326538.15049  -2576200.24845  24099747.472    24099756.221
       214.000         152.000
  22612471.587   -15405818.12349 -11980640.35346  22612471.572    22612476.371
       229.000         179.000
  23690288.424    -8197619.90449  -6378757.70045  23690289.104    23690296.844
       202.000         138.000
  24486127.924    -4935142.73349  -3824901.86745  24486126.947    24486136.977
       211.000         143.000
 03  4 16  2  2 30.0000000  0  8G18G14G31G25G23G11G15G 3
  24171367.755    -3883813.61149  -3000416.74944  24171368.610    24171374.193
       201.000         129.000
  21092770.293   -19618160.68449 -14761474.83847  21092769.789    21092774.759
       244.000         209.000
  23957517.166    -2700992.96049  -2092029.26345  23957517.296    23957525.039
       221.000         161.000
  21465512.405   -15191036.56449 -11591183.67347  21465512.035    21465518.386
       241.000         204.000
  24110518.375    -3269940.05549  -2532097.87645  24110518.176    24110526.596
       212.000         152.000
  22598200.587   -15480813.31849 -12039078.13546  22598200.641    22598205.453
       230.000         179.000
  23711352.668    -8086926.26449  -6292502.94345  23711351.593    23711360.429
       200.000         135.000
  24500966.500    -4857165.36849  -3764140.35845  24500966.014    24500973.939
       211.000         143.000
 03  4 16  2  3  0.0000000  0  8G18G14G31G25G23G11G15G 3
  24184728.460    -3813602.66349  -2945706.95044  24184724.184    24184735.523
       198.000         124.000
  21103344.353   -19562593.52749 -14718175.75647  21103343.709    21103348.795
       243.000         209.000
  23970466.829    -2632942.06949  -2039002.61845  23970466.441    23970474.467
       219.000         161.000
  21452686.630   -15258436.43549 -11643703.00847  21452686.434    21452692.568
       242.000         204.000
  24121311.385    -3213222.94549  -2487902.80645  24121310.344    24121319.629
       211.000         153.000
  22583996.457   -15555456.90049 -12097241.93546  22583995.815    22584000.955
       230.000         179.000
  23732449.375    -7976062.70749  -6206115.80645  23732449.067    23732458.533
       202.000         134.000
  24515797.723    -4779226.04349  -3703408.47845  24515797.257    24515806.409
       211.000         143.000
 03  4 16  2  3 30.0000000  0  8G18G14G31G25G23G11G15G 3
  24198111.803    -3743273.04348  -2890904.69944  24198108.628    24198117.609
       191.000         119.000
  21113961.906   -19506797.84349 -14674698.60247  21113961.698    21113966.193
       243.000         209.000
  23983450.523    -2564712.44149  -1985836.69545  23983450.543    23983459.310
       218.000         161.000
  21439937.355   -15325434.27549 -11695909.07147  21439937.100    21439943.346
       242.000         204.000
  24132127.124    -3156386.05149  -2443614.33545  24132126.437    24132135.465
       212.000         152.000
  22569859.487   -15629746.97049 -12155130.26346  22569859.401    22569863.953
       230.000         180.000
  23753578.140    -7865031.24249  -6119597.84445  23753579.909    23753586.798
       203.000         135.000
  24530621.287    -4701326.87049  -3642707.89945  24530621.484    24530629.282
       210.000         143.000
 03  4 16  2  4  0.0000000  0  8G18G14G31G25G23G11G15G 3
  24211517.645    -3672824.32648  -2836009.67544                  24211516.066
       186.000         111.000
  21124622.703   -19450775.21549 -14631044.61347  21124622.318    21124626.892
       243.000         209.000
  23996467.838    -2496306.61849  -1932533.49345  23996468.101    23996475.031
       218.000         161.000
  21427265.051   -15392027.56249 -11747799.90047  21427264.723    21427270.732
       241.000         204.000
  24142965.805    -3099428.34649  -2399231.73045  24142964.893    24142973.774
       214.000         151.000
  22555790.327   -15703680.44049 -12212740.74746  22555789.932    22555794.964
       230.000         180.000
  23774738.580    -7753833.51749  -6032950.32445  23774739.410    23774745.900
       202.000         135.000
  24545436.849    -4623470.42449  -3582040.59745  24545436.718    24545445.504
       210.000         142.000
 03  4 16  2  4 30.0000000  0  8G18G14G31G25G23G11G15G 3
  24224946.177    -3602256.11848  -2781021.49644                  24224940.473
       181.000         106.000
  21135326.291   -19394527.67149 -14587215.35847  21135325.898    21135330.470
       243.000         209.000
  24009518.079    -2427727.52649  -1879095.27545  24009517.977    24009526.359
       216.000         160.000
  21414670.136   -15458214.12549 -11799373.80647  21414669.843    21414675.774
       242.000         205.000
  24153827.418    -3042349.32349  -2354754.60145  24153827.333    24153835.224
       212.000         148.000
  22541789.519   -15777254.92449 -12270071.50946  22541788.934    22541794.458
       231.000         181.000
  23795930.140    -7642471.95649  -5946175.14045  23795930.570    23795939.020
       204.000         133.000
  24560243.961    -4545659.04549  -3521408.40345  24560243.827    24560252.945
       210.000         142.000
 03  4 16  2  5  0.0000000  0  8G18G14G31G25G23G11G15G 3
  24238397.334    -3531568.65448  -2725940.38944                  24238394.738
       182.000         103.000
  21146072.223   -19338057.43849 -14543212.57847  21146071.569    21146076.656
       243.000         209.000
  24022600.486    -2358978.66649  -1825524.77645  24022599.361    24022608.791
       214.000         159.000
  21402152.978   -15523992.17549 -11850629.39047  21402152.818    21402158.636
       243.000         206.000
  24164712.275    -2985148.77049  -2310182.76145  24164711.838    24164720.311
       210.000         147.000
  22527857.441   -15850468.48249 -12327121.01346  22527856.979    22527862.198
       230.000         181.000
  23817152.387    -7530949.29049  -5859274.42045  23817151.679    23817160.386
       203.000         132.000
  24575041.999    -4467895.97449  -3460813.88445  24575041.643    24575051.128
       209.000         141.000
 03  4 16  2  5 30.0000000  0  8G18G14G31G25G23G11G15G 3
                  -3460761.65558  -3016260.13243
       183.000          74.000
  21156860.113   -19281366.40949 -14499037.75247  21156859.451    21156864.585
       243.000         208.000
  24035714.570    -2290062.87649  -1771824.21645  24035714.861    24035722.272
       214.000         158.000
  21389713.969   -15589359.60049 -11901565.00647  21389713.469    21389719.606
       242.000         206.000
  24175620.562    -2927826.18049  -2265515.84445  24175620.027    24175628.170
       211.000         146.000
  22513994.392   -15923319.16249 -12383887.75746  22513993.587    22513999.180
       231.000         182.000
  23838404.785    -7419267.62649  -5772249.82144  23838403.517    23838413.394
       200.000         131.000
  24589830.186    -4390183.71949  -3400258.94845  24589830.704    24589837.979
       208.000         140.000
 03  4 16  2  6  0.0000000  0  8G18G14G31G25G23G11G15G 3
                  -3389834.73758  -2960994.72643
       181.000          74.000
  21167689.723   -19224456.22749 -14454692.16247  21167689.064    21167694.446
       241.000         208.000
  24048860.040    -2220982.91849  -1717995.72445  24048859.921    24048868.448
       215.000         158.000
  21377353.494   -15654314.01949 -11952178.80047  21377353.056    21377359.192
       243.000         206.000
  24186552.051    -2870380.82549  -2220753.24045  24186552.018    24186558.679
       210.000         145.000
  22500200.882   -15995804.28549 -12440369.66446  22500201.005    22500205.482
       231.000         182.000
  23859687.045    -7307428.90249  -5685102.81044  23859686.113    23859695.395
       199.000         129.000
  24604608.179    -4312524.67149  -3339745.48745  24604606.096    24604618.916
       207.000         139.000
 03  4 16  2  6 30.0000000  0  8G18G14G31G25G23G11G15G 3
                  -3318788.64348  -2905638.85843
       169.000          74.000
  21178560.518   -19167329.42049 -14410177.77347  21178559.838    21178565.116
       242.000         208.000
  24062036.211    -2151742.52349  -1664042.21545  24062035.679    24062044.246
       217.000         159.000
  21365071.911   -15718853.98949 -12002469.64747  21365071.579    21365077.539
       242.000         206.000
  24197506.954    -2812812.86449  -2175895.10945  24197507.214    24197513.852
       212.000         147.000
  22486477.301   -16067922.37649 -12496565.56846  22486477.166    22486482.293
       232.000         182.000
  23880998.653    -7195436.21449  -5597835.83244  23880996.950    23881005.679
       197.000         128.000
  24619375.440    -4234922.17649  -3279276.10345  24619375.551    24619383.807
       206.000         137.000
 03  4 16  2  7  0.0000000  0  8G18G14G31G25G23G11G15G 3
                  -3247622.83248  -3020846.50443
       170.000          74.000
  21189472.244   -19109987.75249 -14365495.96447  21189471.774    21189476.952
       242.000         208.000
  24075242.487    -2082344.17749  -1609965.62045  24075242.137    24075250.395
       218.000         159.000
  21352869.684   -15782976.98649 -12052435.58247  21352869.216    21352875.273
       242.000         206.000
  24208485.405    -2755121.51249  -2130940.87145  24208484.655    24208492.795
       213.000         149.000
  22472824.174   -16139670.29849 -12552473.01946  22472824.078    22472828.573
       232.000         183.000
  23902338.959    -7083291.45049  -5510450.38444  23902339.085    23902348.972
       197.000         126.000
  24634131.584    -4157378.55849  -3218852.58745  24634129.507    24634139.868
       204.000         136.000
 03  4 16  2  7 30.0000000  0  8G18G14G31G25G23G11G15G 3
                  -3176336.89448  -2965261.07143
       169.000          74.000
  21200424.600   -19052432.87749 -14320648.01047  21200424.212    21200429.178
       242.000         208.000
  24088478.224    -2012790.64949  -1555768.10745  24088478.453    24088485.869
       216.000         160.000
  21340747.168   -15846680.93849 -12102074.98647  21340746.808    21340753.078
       242.000         205.000
  24219487.399    -2697305.86549  -2085889.76645  24219486.378    24219494.991
       215.000         151.000
  22459241.906   -16211045.91949 -12608090.36346  22459241.351    22459246.044
       232.000         182.000
  23923707.894    -6970996.43349  -5422947.79044  23923705.204    23923715.767
       196.000         125.000
  24648876.016    -4079896.27749  -3158476.88645  24648874.619    24648886.384
       205.000         135.000
 03  4 16  2  8  0.0000000  0  8G18G14G31G25G23G11G15G 3
                  -3104930.89158  -2909529.31843
       169.000          74.000
  21211417.182   -18994666.74349 -14275635.44547  21211416.822    21211421.775
       243.000         208.000
  24101742.811    -1943085.14349  -1501452.17045  24101742.561    24101750.532
       216.000         159.000
  21328704.803   -15909964.00149 -12151386.43347  21328704.595    21328710.209
       242.000         205.000
  24230513.042    -2639365.71449  -2040741.62445  24230512.865    24230520.389
       215.000         152.000
  22445730.743   -16282047.14849 -12663415.97246  22445730.004    22445734.956
       232.000         182.000
  23945104.918    -6858553.85949  -5335330.25644  23945102.860    23945112.618
       195.000         123.000
  24663608.288    -4002478.04049  -3098151.05145  24663608.699    24663616.542
       206.000         136.000
 03  4 16  2  8 30.0000000  0  8G18G14G31G25G23G11G15G 3
                  -3033404.26357  -3024232.10643
       159.000          74.000
  21222449.648   -18936690.94949 -14230459.50647  21222449.364    21222454.135
       242.000         208.000
  24115035.714    -1873230.27049  -1447019.83745  24115035.298    24115043.670
       215.000         159.000
  21316742.969   -15972823.86449 -12200368.10847  21316742.606    21316748.263
       242.000         206.000
  24241562.627    -2581300.16249  -1995495.79245  24241562.436    24241571.014
       216.000         153.000
  22432291.372   -16352671.26149 -12718447.71646  22432290.668    22432295.869
       232.000         183.000
  23966529.830    -6745965.57449  -5247599.18844  23966527.708    23966536.841
       197.000         123.000
  24678327.962    -3925126.20449  -3037876.96345  24678327.759    24678336.519
       208.000         136.000
 03  4 16  2  9  0.0000000  0  8G18G14G31G25G23G11G15G 3
                  -2961757.40157  -2968400.39543
       161.000          74.000
  21233521.591   -18878507.58249 -14185121.81947  21233520.999    21233526.039
       243.000         208.000
  24128356.387    -1803229.47649  -1392473.82245  24128355.887    24128364.216
       215.000         158.000
  21304861.917   -16035258.87549 -12249018.72847  21304861.321    21304867.641
       242.000         206.000
  24252635.994    -2523109.11149  -1950152.14045  24252635.090    24252643.971
       213.000         153.000
  22418924.002   -16422916.56849 -12773184.29246  22418923.942    22418928.745
       233.000         183.000
  23987981.891    -6633234.30849  -5159756.70944  23987981.186    23987990.696
       199.000         123.000
  24693034.468    -3847843.59249  -2977656.81045  24693033.928    24693042.406
       209.000         136.000
 03  4 16  2  9 30.0000000  0  8G18G14G31G25G23G11G15G 3
                  -2889990.13857  -2912469.37843
       154.000          74.000
  21244632.562   -18820118.97749 -14139624.21347  21244632.237    21244637.126
       242.000         208.000
  24141704.350    -1733085.71749  -1337816.39145  24141703.277    24141712.352
       214.000         157.000
  21293062.045   -16097266.96049 -12297336.67647  21293061.460    21293067.884
       242.000         207.000
  24263733.307    -2464792.23449  -1904710.46945  24263733.197    24263741.351
       209.000         149.000
  22405629.230   -16492781.04649 -12827624.12546  22405629.226    22405634.420
       232.000         184.000
  24009461.001    -6520362.36549  -5071804.60244  24009459.907    24009468.739
       198.000         122.000
  24707727.264    -3770632.87849  -2917492.70245  24707726.307    24707737.444
       205.000         136.000
 03  4 16  2 10  0.0000000  0  7G14G31G25G23G11G15G 3
  21255781.690   -18761529.99349 -14093970.46947  21255781.219    21255786.432
       242.000         207.000
  24155078.331    -1662805.16349  -1283052.36345  24155078.517    24155085.905
       213.000         156.000
  21281343.257   -16158849.19849 -12345322.79447  21281342.783    21281349.180
       242.000         208.000
  24274854.047    -2406352.07249  -1859172.71545  24274852.409    24274862.014
       206.000         145.000
  22392406.759   -16562265.41249 -12881767.75046  22392405.950    22392412.047
       233.000         184.000
  24030965.723    -6407355.32849  -4983747.23744  24030962.461    24030971.081
       196.000         122.000
  24722405.197    -3693499.94249  -2857389.19745  24722405.465    24722414.148
       208.000         137.000
 03  4 16  2 10 30.0000000  0  7G14G31G25G23G11G15G 3
  21266969.323   -18702738.49849 -14048158.92647  21266968.844    21266973.963
       242.000         207.000
  24168478.660    -1592386.63549  -1228180.82245  24168478.790    24168485.466
       213.000         155.000
  21269706.665   -16219999.68649 -12392972.48647  21269706.219    21269712.540
       243.000         208.000
  24285999.105    -2347784.01349  -1813535.27945  24285997.644    24286006.540
       204.000         140.000
  22379257.786   -16631363.42949 -12935610.33846  22379257.442    22379262.625
       233.000         185.000
  24052496.269    -6294211.32149  -4895583.11244  24052494.934    24052502.005
       195.000         120.000
  24737068.732    -3616443.13649  -2797345.02745  24737069.423    24737078.286
       205.000         137.000
 03  4 16  2 11  0.0000000  0  7G14G31G25G23G11G15G 3
  21278195.316   -18643745.53549 -14002190.38947  21278194.782    21278199.734
       242.000         206.000
  24181904.786    -1521832.49849  -1173203.62445  24181904.126    24181911.833
       210.000         154.000
  21258152.683   -16280716.00849 -12440283.87047  21258152.367    21258158.662
       243.000         208.000
  24297168.799    -2289086.89849  -1767797.28945  24297168.570    24297175.056
       203.000         135.000
  22366182.870   -16700072.20149 -12989149.61846  22366182.384    22366188.006
       233.000         185.000
  24074052.486    -6180932.14648  -4807313.64944  24074049.922    24074062.306
       194.000         120.000
  24751717.235    -3539464.53949  -2737361.77245  24751717.043    24751726.431
       207.000         138.000
 03  4 16  2 11 30.0000000  0  7G14G31G25G23G11G15G 3
  21289459.213   -18584553.41749 -13956066.67147  21289458.734    21289463.447
       242.000         206.000
  24195356.001    -1451146.00549  -1118123.28145  24195355.154    24195364.189
       209.000         152.000
  21246681.766   -16340996.11049 -12487255.34247  21246681.558    21246687.378
       244.000         208.000
  24308363.024    -2230260.78349  -1721958.76945  24308362.731    24308372.176
       198.000         132.000
  22353182.468   -16768389.94149 -13042384.20146  22353181.944    22353187.239
       233.000         185.000
  24095634.095    -6067520.21048  -4718940.77844  24095630.602    24095638.913
       193.000         120.000
  24766350.340    -3462566.81549  -2677441.56045  24766349.973    24766359.240
       204.000         137.000
 03  4 16  2 12  0.0000000  0  7G14G31G25G23G11G15G 3
  21300760.592   -18525164.32549 -13909789.46447  21300760.281    21300765.219
       243.000         206.000
  24208831.571    -1380330.55649  -1062942.46345  24208830.166    24208838.357
       208.000         151.000
  21235294.146   -16400838.78049 -12533885.95847  21235294.182    21235299.722
       244.000         208.000
  24319581.882    -2171305.58349  -1676019.69544  24319584.082    24319589.865
       195.000         126.000
  22340256.801   -16836314.82449 -13095312.66246  22340256.123    22340261.760
       233.000         186.000
  24117240.377    -5953978.36648  -4630466.67944  24117240.452    24117246.606
       194.000         119.000
  24780967.419    -3385753.00749  -2617586.72645  24780966.774    24780976.855
       209.000         138.000
 03  4 16  2 12 30.0000000  0  7G14G31G25G23G11G15G 3
  21312099.086   -18465580.36849 -13863360.41947  21312098.701    21312103.860
       242.000         206.000
  24222330.953    -1309389.49949  -1007663.75245  24222329.580    24222338.355
       206.000         149.000
  21223990.097   -16460242.16649 -12580174.26947  21223989.698    21223995.615
       244.000         209.000
  24330825.213    -2112221.16648  -1629979.91244                  24330823.242
       191.000         121.000
  22327406.219   -16903844.82549 -13147933.42246  22327405.459    22327411.252
       233.000         186.000
  24138870.854    -5840308.98549  -4541893.14444  24138869.938    24138878.371
       195.000         119.000
  24795568.143    -3309025.96849  -2557799.51645  24795569.125    24795577.777
       209.000         139.000
 03  4 16  2 13  0.0000000  0  7G14G31G25G23G11G15G 3
  21323474.279   -18405803.74249 -13816781.23847  21323473.936    21323478.742
       242.000         206.000
  24235853.718    -1238325.73449   -952289.43745  24235852.289    24235862.072
       205.000         149.000
  21212769.920   -16519204.60749 -12626118.99747  21212769.425    21212775.437
       244.000         209.000
  24342093.575    -2053006.92348  -1583839.01844  24342090.521    24342102.920
       190.000         115.000
  22314631.159   -16970977.87849 -13200244.87246  22314630.463    22314636.503
       233.000         186.000
  24160525.278    -5726514.34849  -4453222.05744  24160525.596    24160535.957
       195.000         119.000
  24810151.983    -3232388.12149  -2498081.79145  24810152.379    24810162.165
       206.000         139.000
 03  4 16  2 13 30.0000000  0  6G14G31G25G23G11G15
  21334885.866   -18345835.41749 -13770052.67847  21334885.236    21334890.377
       242.000         206.000
  24249399.557    -1167141.62749   -896821.33145  24249399.280    24249407.733
       209.000         150.000
  21201634.092   -16577723.31249 -12671717.95247  21201633.604    21201639.654
       244.000         210.000
  24353386.723    -1993661.81248  -1537596.09944  24353387.691
       186.000         110.000
  22301932.175   -17037711.16049 -13252244.82046  22301931.764    22301937.033
       233.000         186.000
  24182203.274    -5612596.40349  -4364454.86944  24182203.919    24182212.041
       195.000         119.000
 03  4 16  2 14  0.0000000  0  6G14G31G25G23G11G15
  21346333.934   -18285675.13349 -13723174.54047  21346333.621    21346338.336
       241.000         205.000
  24262968.324    -1095838.20249   -841260.24645  24262968.546    24262976.139
       211.000         152.000
  21190583.397   -16635794.87649 -12716968.48047  21190582.805    21190589.025
       244.000         210.000
  24364705.063    -1934183.49448  -1491249.30944  24364706.565
       186.000         106.000
  22289310.013   -17104040.82849 -13303930.26046  22289310.232    22289314.674
       233.000         186.000
  24203904.421    -5498555.25549  -4275591.68144  24203904.036    24203912.775
       195.000         117.000
 03  4 16  2 14 30.0000000  0  6G14G31G25G23G11G15
  21357817.338   -18225329.41449 -13676151.90347  21357816.721    21357821.574
       241.000         205.000
  24276558.389    -1024423.00449   -785612.07545  24276558.798    24276566.502
       211.000         152.000
  21179617.234   -16693421.97749 -12761872.67547  21179616.846    21179622.783
       244.000         210.000
  24376047.806    -1874576.12948  -1444802.00444  24376044.026
       181.000         101.000
  22276764.254   -17169969.18849 -13355302.99746  22276764.007    22276769.300
       233.000         186.000
  24225627.728    -5384397.96548  -4186637.96544  24225626.038    24225634.922
       191.000         117.000
 03  4 16  2 15  0.0000000  0  6G14G31G25G23G11G15
  21369335.795   -18164799.44349 -13628985.69947  21369335.107    21369340.320
       241.000         204.000
  24290169.220     -952898.38549   -729878.67245  24290168.236    24290177.611
       209.000         152.000
  21168736.166   -16750602.00449 -12806428.49947  21168735.759    21168741.771
       244.000         210.000
                  -1814838.534 8   1400583.163 1
       180.000
  22264295.485   -17235493.28249 -13406360.72446  22264295.099    22264300.646
       233.000         186.000
  24247372.792    -5270126.18149  -4097595.04644  24247371.004    24247382.156
       195.000         116.000
 03  4 16  2 15 30.0000000  0  6G14G31G25G23G11G15
  21380889.066   -18104086.69349 -13581677.06847  21380888.539    21380893.583
       241.000         204.000
  24303800.174     -881266.74249   -674061.87345  24303799.110    24303808.345
       206.000         151.000
  21157940.648   -16807332.65849 -12850634.16747  21157940.323    21157946.301
       245.000         210.000
                  -1754969.81748  -2984757.68143
       173.000          74.000
  22251904.130   -17300610.47449 -13457101.38046  22251903.448    22251908.728
       233.000         186.000
  24269139.482    -5155741.56148  -4008464.21844  24269140.014    24269149.455
       193.000         115.000
 03  4 16  2 16  0.0000000  0  6G14G31G25G23G11G15
  21392476.751   -18043192.73249 -13534227.23547  21392475.967    21392481.404
       240.000         204.000
  24317450.984     -809530.85149   -618163.81745  24317450.669    24317459.268
       208.000         151.000
  21147231.024   -16863612.07949 -12894488.22047  21147230.717    21147236.767
       244.000         210.000
                  -1694969.27548  -2938028.31343
       174.000          74.000
  22239590.578   -17365318.60849 -13507523.29246  22239590.192    22239595.533
       234.000         187.000
  24290927.037    -5041246.25648  -3919247.12844  24290925.452    24290932.525
       193.000         114.000
 03  4 16  2 16 30.0000000  0  6G14G31G25G23G11G15
  21404098.609   -17982119.24549 -13486637.51047  21404098.231    21404103.246
       241.000         204.000
  24331121.240     -737693.61649   -562186.80145  24331121.265    24331128.526
       210.000         151.000
  21136607.623   -16919438.38849 -12937989.21447  21136607.241    21136613.106
       245.000         210.000
                  -1634837.04758  -2891196.37743
       170.000          74.000
  22227355.213   -17429615.56949 -13557624.80446  22227354.463    22227360.149
       234.000         187.000
  24312735.350    -4926642.47848  -3829945.52044  24312735.144    24312747.051
       193.000         114.000
 03  4 16  2 17  0.0000000  0  5G14G31G25G11G15
  21415752.883   -17920875.78849 -13438915.34547  21415752.513    21415757.588
       241.000         204.000
  24344808.666     -665765.86549   -506139.25545  24344807.960    24344816.675
       209.000         149.000
  21126069.262   -16974817.81849 -12981141.98947  21126068.907    21126074.653
       245.000         210.000
  22215197.131   -17493506.87249 -13607410.22747  22215196.709    22215201.728
       234.000         188.000
  24334562.728    -4811940.63348  -3740567.50144  24334564.591    24334571.518
       193.000         113.000
 03  4 16  2 17 30.0000000  0  5G14G31G25G11G15
  21427441.240   -17859453.39449 -13391053.73747  21427440.701    21427445.776
       241.000         204.000
  24358514.789     -593739.63649   -450014.96445  24358514.411    24358522.387
       212.000         148.000
  21115618.360   -17029737.46749 -13023936.48247  21115617.842    21115623.742
       244.000         210.000
  22203118.661   -17556979.80349 -13656869.64047  22203118.461    22203123.369
       235.000         188.000
  24356410.207    -4697131.73948  -3651106.04744  24356408.189    24356421.742
       193.000         114.000
 03  4 16  2 18  0.0000000  0  5G14G31G25G11G15
  21439163.141   -17797854.33749 -13343054.48347  21439162.707    21439167.998
       241.000         204.000
  24372239.156     -521618.51849   -393816.75245  24372239.300    24372247.276
       211.000         147.000
  21105255.209   -17084196.14549 -13066371.78247  21105254.916    21105260.790
       245.000         210.000
  22191120.142   -17620032.66749 -13706001.73747  22191119.927    22191124.655
       234.000         188.000
  24378277.334    -4582219.01548  -3561563.68944  24378276.880    24378287.337
       191.000         113.000
 03  4 16  2 18 30.0000000  0  5G14G31G25G11G15
  21450918.225   -17736080.99849 -13294919.42447  21450917.719    21450922.916
       241.000         204.000
  24385980.838     -449405.73149   -337547.10545  24385980.467    24385989.907
       209.000         147.000
  21094979.952   -17138192.85649 -13108447.10047  21094979.649    21094985.310
       245.000         210.000
  22179201.800   -17682663.80749 -13754805.21547  22179201.169    22179206.328
       235.000         188.000
  24400163.576    -4467205.36248  -3471942.71944  24400165.237    24400173.375
       190.000         112.000
 03  4 16  2 19  0.0000000  0  5G14G31G25G11G15
  21462706.060   -17674135.78749 -13246650.43847  21462705.708    21462710.514
       241.000         204.000
  24399739.193     -377105.08849   -281208.99745  24399739.202    24399748.015
       210.000         146.000
  21084792.831   -17191726.59649 -13150161.66047  21084792.582    21084798.019
       245.000         211.000
  22167363.888   -17744872.35449 -13803279.40047  22167363.564    22167368.730
       235.000         188.000
  24422068.817    -4352093.66748  -3382245.36144                  24422070.922
       188.000         109.000
 03  4 16  2 19 30.0000000  0  5G14G31G25G11G15
  21474526.061   -17612021.40049 -13198249.62447  21474525.415    21474530.684
       240.000         204.000
  24413513.647     -304720.38349   -224805.40745  24413512.567    24413520.074
       210.000         144.000
  21074693.937   -17244796.57449 -13191514.85747  21074693.653    21074699.338
       245.000         211.000
  22155606.712   -17806656.78849 -13851423.11047  22155606.123    22155611.739
       235.000         189.000
  24443992.119    -4236886.88948  -3292473.89344                  24443988.689
       191.000         107.000
 03  4 16  2 20  0.0000000  0  5G14G31G25G11G15
  21486377.754   -17549740.11149 -13149718.75947  21486377.171    21486382.358
       240.000         203.000
  24427303.486     -232255.23249   -168339.10745  24427303.470    24427310.654
       209.000         143.000
  21064683.510   -17297401.77949 -13232505.88847  21064683.163    21064688.779
       245.000         211.000
  22143930.539   -17868015.49649 -13899235.08247  22143929.896    22143935.110
       236.000         190.000
                  -4121588.06648  -3202630.66944
       191.000         106.000
 03  4 16  2 20 30.0000000  0  5G14G31G25G11G15
  21498261.032   -17487292.75049 -13101058.48347  21498260.164    21498265.795
       240.000         202.000
  24441108.094     -159711.46649   -111811.54845  24441109.302    24441115.727
       211.000         143.000
  21054762.051   -17349539.30949 -13273132.50347  21054761.502    21054767.229
       245.000         211.000
  22132335.965   -17928945.50749 -13946713.00147  22132335.993    22132340.628
       235.000         190.000
                  -4006198.63948  -3112716.87144
       188.000         105.000
 03  4 16  2 21  0.0000000  0  5G14G31G25G11G15
  21510175.568   -17424681.30449 -13052270.35447  21510175.206    21510180.210
       240.000         202.000
  24454927.280      -87092.23149    -55225.19045  24454927.276    24454934.439
       212.000         144.000
  21044929.745   -17401207.97549 -13313393.76947  21044929.359    21044934.907
       245.000         212.000
  22120823.197   -17989445.25649 -13993855.64647  22120822.463    22120828.073
       236.000         190.000
                  -3890721.08548  -2985884.35743
       188.000          74.000
 03  4 16  2 21 30.0000000  0  5G14G31G25G11G15
  21522120.845   -17361908.29449 -13003356.32247  21522120.166    21522125.665
       239.000         202.000
  24468760.150      -14401.30549      1417.05045  24468760.090    24468767.342
       213.000         144.000
  21035186.934   -17452406.86549 -13353288.97547  21035186.763    21035192.445
       245.000         212.000
  22109392.622   -18049513.49849 -14040662.05747  22109391.886    22109397.152
       234.000         190.000
                  -3775158.52048  -2895833.47643
       187.000          74.000
 03  4 16  2 22  0.0000000  0  5G14G31G25G11G15
  21534096.719   -17298974.37549 -12954316.91247  21534096.185    21534101.591
       239.000         201.000
  24482606.162       58359.40849     58113.65445  24482604.865    24482613.274
       213.000         145.000
  21025533.985   -17503133.38349 -13392816.09947  21025533.716    21025539.329
       245.000         212.000
  22098044.595   -18109147.00249 -14087129.71347  22098044.082    22098049.572
       235.000         190.000
                  -3659512.16548  -2805715.54243
       182.000          74.000
 03  4 16  2 22 30.0000000  0  5G14G31G25G11G15
  21546102.911   -17235881.46649 -12905153.61747  21546102.514    21546107.968
       239.000         201.000
  24496464.709      131186.85349    114862.25545  24496463.161    24496472.228
       215.000         146.000
  21015971.127   -17553386.40549 -13431974.26647  21015970.726    21015976.633
       245.000         212.000
  22086779.683   -18168344.01349 -14133257.23347  22086779.111    22086784.372
       235.000         190.000
                  -3543784.56448  -2990059.32743
       183.000          74.000
 03  4 16  2 23  0.0000000  0  5G14G31G25G11G15
  21558139.080   -17172631.09649 -12855867.61947  21558138.611    21558144.122
       240.000         201.000
  24510335.583      204078.30749    171660.74045  24510335.698    24510342.879
       215.000         147.000
  21006498.708   -17603163.96849 -13470761.94048  21006498.334    21006504.171
       245.000         213.000
  22075598.272   -18227102.48949 -14179043.04747  22075597.362    22075603.397
       236.000         190.000
                  -3427977.81748  -2899797.06443
       181.000          74.000
 03  4 16  2 23 30.0000000  0  5G14G31G25G11G15
  21570204.773   -17109225.35649 -12806460.55147  21570204.088    21570209.406
       239.000         201.000
  24524217.880      277030.39249    228506.48445  24524217.677    24524224.616
       216.000         148.000
  20997117.015   -17652465.00749 -13509178.30248  20997116.539    20997122.486
       245.000         213.000
  22064500.643   -18285420.91149 -14224485.96347  22064500.784    22064505.503
       236.000         191.000
                  -3312094.69248  -2809448.87343
       183.000          74.000
 03  4 16  2 24  0.0000000  0  5G14G31G25G11G15
  21582299.656   -17045666.56549 -12756934.22247  21582299.455    21582304.118
       239.000         201.000
  24538111.023      350039.56949    285396.69245  24538111.349    24538119.448
       213.000         147.000
  20987826.089   -17701288.87049 -13547222.83947  20987825.821    20987831.213
       246.000         212.000
  22053487.057   -18343298.10949 -14269585.06047  22053486.259    22053492.032
       237.000         191.000
                  -3196138.15048  -2993882.62743
       179.000          74.000
 03  4 16  2 24 30.0000000  0  5G14G31G25G11G15
  21594423.516   -16981955.32349 -12707289.10547  21594423.062    21594428.369
       239.000         201.000
  24552014.733      423103.98849    342329.94945  24552014.404    24552022.988
       214.000         147.000
  20978626.536   -17749632.76149 -13584893.37347  20978626.299    20978631.712
       246.000         212.000
  22042558.010   -18400730.98649 -14314337.93647  22042557.715    22042562.476
       238.000         192.000
                  -3080109.38048  -2903437.97043
       185.000          74.000
 03  4 16  2 25  0.0000000  0  5G14G31G25G11G15
  21606575.815   -16918094.51049 -12657527.44547  21606575.269    21606580.805
       239.000         200.000
  24565928.233      496219.73949    399303.22845  24565926.663    24565935.512
       212.000         145.000
  20969518.418   -17797496.26549 -13622189.58147  20969518.035    20969523.547
       246.000         212.000
  22031713.746   -18457718.46249 -14358743.75147  22031713.592    22031718.104
       239.000         192.000
                  -2964011.89758  -2812887.69643
       177.000          74.000
 03  4 16  2 25 30.0000000  0  4G14G31G25G11
  21618756.482   -16854084.65249 -12607649.63947  21618755.927    21618761.383
       240.000         201.000
  24579851.007      569385.01549    456315.09645  24579849.564    24579859.586
       211.000         145.000
  20960502.170   -17844876.77249 -13659109.42547  20960501.717    20960507.192
       246.000         212.000
  22020954.833   -18514257.35249 -14402800.01947  22020954.400    22020959.368
       238.000         192.000
 03  4 16  2 26  0.0000000  0  4G14G31G25G11
  21630965.371   -16789926.78449 -12557656.49547  21630964.855    21630969.981
       239.000         201.000
  24593782.875      642597.62049    513363.82045  24593782.928    24593791.445
       211.000         144.000
  20951578.253   -17891772.24549 -13695651.32047  20951578.004    20951583.312
       245.000         212.000
  22010281.577   -18570345.51349 -14446505.07247  22010281.369    22010286.130
       238.000         193.000
 03  4 16  2 26 30.0000000  0  4G14G31G25G11
  21643201.842   -16725623.77949 -12507550.26147  21643201.483    21643206.494
       239.000         200.000
  24607722.948      715853.38049    570446.17545  24607723.727    24607731.334
       210.000         143.000
  20942746.646   -17938182.53849 -13731815.15248  20942746.179    20942751.905
       246.000         213.000
  21999694.313   -18625981.77649 -14489857.99347  21999693.929    21999699.071
       238.000         192.000
 03  4 16  2 27  0.0000000  0  4G14G31G25G11
  21655465.585   -16661177.27149 -12457332.20547  21655464.944    21655470.118
       239.000         200.000
  24621670.787      789149.55849    627560.02145  24621671.242    24621679.503
       208.000         143.000
  20934007.644   -17984106.10849 -13767599.72048  20934007.168    20934012.853
       245.000         213.000
  21989193.321   -18681164.83649 -14532857.76547  21989193.188    21989197.987
       238.000         193.000
 03  4 16  2 27 30.0000000  0  4G14G31G25G11
  21667756.340   -16596588.78249 -12407003.51947  21667755.835    21667761.022
       239.000         200.000
  24635625.688      862483.16849    684703.03045  24635625.891    24635632.804
       210.000         143.000
  20925361.500   -18029541.61649 -13803003.97748  20925361.214    20925366.728
       245.000         213.000
  21978779.002   -18735892.60149 -14575502.76047  21978778.968    21978783.652
       239.000         194.000
 03  4 16  2 28  0.0000000  0  4G14G31G25G11
  21680073.795   -16531860.16149 -12356565.64247  21680073.018    21680078.548
       239.000         200.000
  24649587.160      935851.27149    741872.92845  24649586.356    24649595.297
       209.000         142.000
  20916808.444   -18074487.89749 -13838027.01948  20916807.865    20916813.465
       245.000         213.000
  21968451.627   -18790163.35149 -14617791.64647  21968451.088    21968455.889
       239.000         194.000
 03  4 16  2 28 30.0000000  0  4G14G31G25G11
  21692417.675   -16466992.99549 -12306019.81347  21692417.152    21692422.325
       239.000         199.000
  24663554.668     1009251.08749    799067.54845  24663554.467    24663562.568
       210.000         141.000
  20908348.755   -18118943.56249 -13872667.76048  20908348.352    20908353.873
       245.000         213.000
  21958211.550   -18843975.17849 -14659722.92447  21958211.227    21958216.152
       238.000         194.000
 03  4 16  2 29  0.0000000  0  4G14G31G25G11
  21704787.483   -16401989.50649 -12255367.75347  21704787.248    21704792.013
       239.000         199.000
  24677527.673     1082679.00349    856284.03945  24677526.924    24677535.152
       208.000         141.000
  20899982.598   -18162907.80149 -13906925.57548  20899982.223    20899987.684
       246.000         213.000
  21948058.986   -18897326.86949 -14701295.65547  21948058.485    21948063.674
       239.000         194.000
 03  4 16  2 29 30.0000000  0  4G14G31G25G11
  21717182.982   -16336850.70349 -12204610.24647  21717182.437    21717187.298
       238.000         198.000
  24691505.608     1156132.98549    913520.88745  24691506.006    24691514.958
       212.000         142.000
  20891710.348   -18206378.68249 -13940798.96348  20891710.050    20891715.559
       246.000         213.000
  21937994.458   -18950215.97149 -14742507.92647  21937993.493    21937999.028
       238.000         194.000
 03  4 16  2 30  0.0000000  0  4G14G31G25G11
  21729603.905   -16271578.04549 -12153748.44047  21729603.379    21729608.746
       238.000         197.000
  24705487.923     1229610.17849    970775.79845  24705487.487    24705495.833
       211.000         144.000
  20883532.238   -18249354.87549 -13974286.87548  20883532.042    20883537.346
       246.000         214.000
  21928018.367   -19002640.37949 -14783358.08947  21928018.109    21928022.877
       238.000         193.000
 03  4 16  2 30 30.0000000  0  4G14G31G25G11
  21742050.053   -16206172.72049 -12102783.25447  21742049.742    21742054.729
       238.000         197.000
  24719474.189     1303108.04549   1028046.81045  24719474.184    24719483.076
       211.000         145.000
  20875448.535   -18291834.97949 -14007388.22448  20875448.378    20875453.801
       246.000         214.000
  21918131.118   -19054598.08849 -14823844.59347  21918130.444    21918135.231
       238.000         193.000
 03  4 16  2 31  0.0000000  0  4G14G31G25G11
  21754521.156   -16140636.66349 -12051716.20147  21754520.659    21754526.267
       238.000         197.000
  24733463.737     1376623.48449   1085331.50545  24733464.299    24733471.123
       212.000         144.000
  20867459.448   -18333817.88849 -14040102.15148  20867459.089    20867464.639
       246.000         214.000
  21908332.911   -19106087.75449 -14863966.38947  21908332.627    21908337.650
       239.000         194.000
 03  4 16  2 31 30.0000000  0  4G14G31G25G11
  21767016.794   -16074971.94649 -12000548.89247  21767016.458    21767021.560
       239.000         198.000
  24747456.098     1450153.20549   1142627.33845  24747456.033    24747465.175
       210.000         143.000
  20859565.148   -18375302.46649 -14072427.77148  20859564.744    20859570.260
       246.000         214.000
  21898624.012   -19157108.33649 -14903722.67047  21898623.578    21898628.353
       239.000         194.000
 03  4 16  2 32  0.0000000  0  4G14G31G25G11
  21779536.538   -16009180.45849 -11949282.80347  21779535.971    21779540.904
       239.000         198.000
  24761450.717     1523694.24449   1199932.01245  24761450.075    24761458.573
       209.000         141.000
  20851765.798   -18416288.12649 -14104364.61848  20851765.283    20851771.098
       246.000         214.000
  21889004.755   -19207657.74649 -14943111.80247  21889004.258    21889009.680
       239.000         194.000
 03  4 16  2 32 30.0000000  0  4G14G31G25G11
  21792080.294   -15943262.59549 -11897918.24547  21792079.527    21792084.848
       238.000         197.000
  24775446.907     1597244.61449   1257243.94045  24775445.856    24775455.205
       208.000         140.000
  20844061.758   -18456772.79149 -14135911.07948  20844061.367    20844067.282
       245.000         214.000
  21879475.628   -19257733.62049 -14982131.94647  21879475.145    21879480.010
       239.000         195.000
 03  4 16  2 33  0.0000000  0  4G14G31G25G11
  21804647.708   -15877220.09649 -11846456.56647  21804647.007    21804652.710
       237.000         196.000
  24789444.150     1670801.53649   1314560.96445  24789442.806    24789451.983
       207.000         139.000
  20836453.293   -18496755.28549 -14167066.23748  20836452.814    20836458.760
       246.000         214.000
  21870036.979   -19307334.25249 -15020781.76647  21870036.719    21870041.903
       240.000         195.000
 03  4 16  2 33 30.0000000  0  4G14G31G25G11
  21817238.672   -15811054.18549 -11794898.72947  21817238.170    21817243.483
       237.000         196.000
  24803442.364     1744362.51549   1371881.15145  24803441.735    24803449.723
       206.000         139.000
  20828940.732   -18536233.82849 -14197828.70848  20828940.405    20828946.237
       246.000         215.000
  21860689.163   -19356457.58149 -15059059.67447  21860688.680    21860694.141
       240.000         196.000
 03  4 16  2 34  0.0000000  0  4G14G31G25G11
  21829852.693   -15744767.19449 -11743246.52647  21829852.148    21829857.344
       238.000         196.000
  24817440.650     1817923.68349   1429201.47845  24817440.723    24817449.422
       206.000         141.000
  20821524.099   -18575208.49049 -14228198.54448  20821523.809    20821529.611
       246.000         215.000
  21851432.300   -19405102.77949 -15096965.01147  21851431.659    21851436.835
       239.000         195.000
 03  4 16  2 34 30.0000000  0  4G14G31G25G11
  21842489.421   -15678360.74149 -11691501.24147  21842488.820    21842494.398
       237.000         195.000
  24831438.643     1891482.46549   1486519.95245  24831438.453    24831446.776
       208.000         141.000
  20814203.548   -18613678.40049 -14258175.07148  20814203.567    20814208.956
       247.000         216.000
  21842266.678   -19453268.34149 -15134496.60947  21842266.254    21842271.166
       240.000         196.000
 03  4 16  2 35  0.0000000  0  4G14G31G25G11
  21855148.485   -15611836.89549 -11639664.48347  21855147.946    21855152.846
       237.000         195.000
  24845435.537     1965035.41849   1543833.86945  24845434.624    24845444.694
       208.000         141.000
  20806979.204   -18651642.67949 -14287757.59848  20806978.898    20806984.456
       246.000         215.000
  21833192.556   -19500953.08149 -15171653.54147  21833191.986    21833197.217
       239.000         196.000
 03  4 16  2 35 30.0000000  0  4G14G31G25G11
  21867829.695   -15545196.62849 -11587737.00947  21867828.987    21867834.303
       237.000         194.000
  24859430.923     2038580.15749   1601141.37645  24859429.415    24859437.847
       207.000         142.000
  20799851.284   -18689099.97449 -14316945.07148  20799850.853    20799856.481
       246.000         215.000
  21824210.329   -19548155.04949 -15208434.29047  21824209.964    21824215.085
       240.000         196.000
 03  4 16  2 36  0.0000000  0  4G14G31G25G11
  21880532.841   -15478441.31849 -11535719.90147  21880532.423    21880537.404
       238.000         194.000
  24873424.026     2112114.08949   1658440.47545  24873423.127    24873431.213
       205.000         143.000
  20792820.101   -18726048.89149 -14345736.40648  20792819.611    20792825.417
       246.000         215.000
  21815320.399   -19594872.12049 -15244837.19247  21815319.888    21815325.129
       240.000         196.000
 03  4 16  2 36 30.0000000  0  4G14G31G25G11
  21893257.732   -15411572.01149 -11483613.94547  21893257.443    21893262.272
       238.000         194.000
  24887414.593     2185634.93849   1715729.37945  24887413.662    24887423.085
       208.000         144.000
  20785885.947   -18762487.90049 -14374130.41348  20785885.561    20785891.139
       246.000         215.000
  21806523.045   -19641102.29849 -15280860.69847  21806522.569    21806527.401
       240.000         196.000
 03  4 16  2 37  0.0000000  0  4G14G31G25G11
  21906003.955   -15344590.28949 -11431420.40547  21906003.419    21906008.331
       238.000         194.000
  24901402.122     2259139.97749   1773005.96345  24901400.929    24901410.837
       207.000         144.000
  20779048.980   -18798416.21349 -14402126.47348  20779048.674    20779054.356
       246.000         215.000
  21797818.600   -19686844.18549 -15316503.72647  21797818.364    21797823.037
       240.000         196.000
 03  4 16  2 37 30.0000000  0  4G14G31G25G11
  21918771.291   -15277497.31649 -11379140.16447  21918770.201    21918775.799
       237.000         194.000
  24915386.014     2332626.50149   1830268.13145  24915384.808    24915392.791
       205.000         143.000
  20772309.413   -18833832.77749 -14429723.77048  20772309.100    20772314.821
       247.000         216.000
  21789207.553   -19732095.96949 -15351764.84947  21789207.336    21789212.185
       240.000         196.000
 03  4 16  2 38  0.0000000  0  3G14G25G11
  21931559.904   -15210292.85049 -11326773.06047  21931559.317    21931564.446
       237.000         194.000
  20765667.798   -18868734.83249 -14456920.15248  20765667.707    20765673.134
       247.000         216.000
  21780690.316   -19776854.43549 -15386641.56347  21780689.812    21780694.514
       240.000         196.000
 03  4 16  2 38 30.0000000  0  3G14G25G11
  21944369.260   -15142979.31449 -11274320.96747  21944368.790    21944373.737
       237.000         193.000
  20759124.144   -18903122.34449 -14483715.58748  20759124.107    20759129.340
       248.000         216.000
  21772267.031   -19821118.79449 -15421133.26447  21772266.484    21772271.537
       240.000         197.000
 03  4 16  2 39  0.0000000  0  3G14G25G11
  21957198.456   -15075561.37949 -11221787.51747  21957198.048    21957202.739
       237.000         193.000
  20752677.935   -18936997.49749 -14510111.78148  20752677.490    20752683.018
       247.000         217.000
  21763937.413   -19864890.74849 -15455241.26447  21763936.960    21763942.240
       240.000         197.000
 03  4 16  2 39 30.0000000  0  3G14G25G11
  21970047.394   -15008039.82049 -11169173.32247  21970046.973    21970051.476
       238.000         193.000
  20746329.456   -18970358.86249 -14536107.62348  20746328.995    20746334.583
       247.000         216.000
  21755701.919   -19908168.23549 -15488963.96747  21755701.481    21755706.852
       239.000         197.000
 03  4 16  2 40  0.0000000  0  3G14G25G11
  21982916.170   -14940414.21149 -11116478.04547  21982916.074    21982920.574
       238.000         193.000
  20740079.228   -19003203.77449 -14561701.03648  20740078.862    20740084.353
       247.000         216.000
  21747561.144   -19950948.20649 -15522298.99447  21747560.857    21747565.977
       239.000         197.000
 03  4 16  2 40 30.0000000  0  4G14G20G25G11
  21995801.986   -14872699.36149 -11063713.22947  21995801.873    21995806.338
       238.000         192.000
  24721205.667    -4785088.00749  -3711344.66545  24721203.417    24721211.847
       206.000         138.000
  20733924.930   -19035544.38849 -14586901.48248  20733924.333    20733930.033
       246.000         216.000
  21739512.893   -19993241.98349 -15555255.16747  21739512.778    21739517.505
       239.000         197.000
 03  4 16  2 41  0.0000000  0  4G14G20G25G11
  22008703.950   -14804899.20249 -11010881.94147  22008703.052    22008707.969
       237.000         191.000
  24704836.027    -4871110.37049  -3778375.03345  24704835.198    24704842.785
       205.000         141.000
  20727866.239   -19067382.66049 -14611710.49648  20727865.947    20727871.339
       246.000         216.000
  21731556.902   -20035050.91249 -15587833.53847  21731556.496    21731561.519
       239.000         198.000
 03  4 16  2 41 30.0000000  0  4G14G20G25G11
  22021627.095   -14736987.53349 -10957963.75947  22021626.625    22021631.141
       236.000         190.000
  24688458.609    -4957173.91849  -3845437.46445  24688457.836    24688465.345
       205.000         141.000
  20721908.637   -19098689.95449 -14636105.76448  20721908.201    20721913.608
       246.000         216.000
  21723698.682   -20076345.90849 -15620011.43547  21723698.277    21723703.470
       239.000         198.000
 03  4 16  2 42  0.0000000  0  4G14G20G25G11
  22034569.998   -14668971.66149 -10904964.37647  22034569.535    22034574.078
       236.000         190.000
  24672072.312    -5043283.84949  -3912536.03745  24672072.170    24672079.416
       206.000         140.000
  20716051.091   -19129471.42049 -14660091.29448  20716050.617    20716056.263
       246.000         216.000
  21715937.426   -20117131.36849 -15651792.30047  21715936.590    21715942.347
       238.000         198.000
